<?xml version="1.0" encoding="UTF-8" standalone="no" ?>
<gpx xmlns="http://www.topografix.com/GPX/1/1" xmlns:xsi="http://www.w3.org/2001/XMLSchema-instance" xsi:schemaLocation="http://www.topografix.com/GPX/1/1 http://www.topografix.com/GPX/1/1/gpx.xsd" version="1.1" creator="VisuGPX - https://www.visugpx.com">
  <metadata>
    <name>Chemin Faisant à Auros 2016</name>
    <desc><![CDATA[Balade très agréable, pour partie dans des bois.
De nombreuses palombières dans le coin.
A voir, la chapelle du château du Mirail à Brouqueyran.
]]></desc>
  </metadata>
  <trk>
    <name><![CDATA[2016-10-11 16:30:53]]></name>
    <trkseg>
      <trkpt lat="44.49671" lon="-0.1504">
        <ele>40.51</ele>
        <time>2016-10-11T06:52:52Z</time>
      </trkpt>
      <trkpt lat="44.49665" lon="-0.15038">
        <ele>41.95</ele>
        <time>2016-10-11T06:53:02Z</time>
      </trkpt>
      <trkpt lat="44.49661" lon="-0.15039">
        <ele>41.95</ele>
        <time>2016-10-11T06:53:23Z</time>
      </trkpt>
      <trkpt lat="44.49654" lon="-0.15043">
        <ele>41.95</ele>
        <time>2016-10-11T06:53:39Z</time>
      </trkpt>
      <trkpt lat="44.49652" lon="-0.15046">
        <ele>41.95</ele>
        <time>2016-10-11T06:54:04Z</time>
      </trkpt>
      <trkpt lat="44.49652" lon="-0.15042">
        <ele>41.95</ele>
        <time>2016-10-11T06:54:25Z</time>
      </trkpt>
      <trkpt lat="44.49635" lon="-0.1505">
        <ele>42.92</ele>
        <time>2016-10-11T06:54:55Z</time>
      </trkpt>
      <trkpt lat="44.49629" lon="-0.15053">
        <ele>43.4</ele>
        <time>2016-10-11T06:55:17Z</time>
      </trkpt>
      <trkpt lat="44.49623" lon="-0.15053">
        <ele>44.36</ele>
        <time>2016-10-11T06:55:45Z</time>
      </trkpt>
      <trkpt lat="44.49622" lon="-0.15052">
        <ele>45.32</ele>
        <time>2016-10-11T06:56:05Z</time>
      </trkpt>
      <trkpt lat="44.49628" lon="-0.15053">
        <ele>45.8</ele>
        <time>2016-10-11T06:56:27Z</time>
      </trkpt>
      <trkpt lat="44.49629" lon="-0.15054">
        <ele>46.28</ele>
        <time>2016-10-11T06:56:44Z</time>
      </trkpt>
      <trkpt lat="44.49629" lon="-0.15059">
        <ele>47.24</ele>
        <time>2016-10-11T06:57:08Z</time>
      </trkpt>
      <trkpt lat="44.49627" lon="-0.15061">
        <ele>47.72</ele>
        <time>2016-10-11T06:57:32Z</time>
      </trkpt>
      <trkpt lat="44.4963" lon="-0.15059">
        <ele>48.2</ele>
        <time>2016-10-11T06:57:47Z</time>
      </trkpt>
      <trkpt lat="44.49633" lon="-0.15059">
        <ele>48.68</ele>
        <time>2016-10-11T06:58:10Z</time>
      </trkpt>
      <trkpt lat="44.4963" lon="-0.15062">
        <ele>49.65</ele>
        <time>2016-10-11T06:58:33Z</time>
      </trkpt>
      <trkpt lat="44.49627" lon="-0.15064">
        <ele>50.61</ele>
        <time>2016-10-11T06:59:01Z</time>
      </trkpt>
      <trkpt lat="44.49627" lon="-0.15062">
        <ele>51.09</ele>
        <time>2016-10-11T06:59:22Z</time>
      </trkpt>
      <trkpt lat="44.49625" lon="-0.15062">
        <ele>50.13</ele>
        <time>2016-10-11T06:59:45Z</time>
      </trkpt>
      <trkpt lat="44.49626" lon="-0.15061">
        <ele>50.61</ele>
        <time>2016-10-11T07:00:04Z</time>
      </trkpt>
      <trkpt lat="44.49624" lon="-0.15057">
        <ele>51.57</ele>
        <time>2016-10-11T07:00:25Z</time>
      </trkpt>
      <trkpt lat="44.49624" lon="-0.15047">
        <ele>52.05</ele>
        <time>2016-10-11T07:00:47Z</time>
      </trkpt>
      <trkpt lat="44.49625" lon="-0.15044">
        <ele>52.53</ele>
        <time>2016-10-11T07:01:07Z</time>
      </trkpt>
      <trkpt lat="44.49625" lon="-0.15042">
        <ele>53.49</ele>
        <time>2016-10-11T07:01:41Z</time>
      </trkpt>
      <trkpt lat="44.49623" lon="-0.1504">
        <ele>53.97</ele>
        <time>2016-10-11T07:02:04Z</time>
      </trkpt>
      <trkpt lat="44.49624" lon="-0.15027">
        <ele>53.97</ele>
        <time>2016-10-11T07:02:18Z</time>
      </trkpt>
      <trkpt lat="44.49629" lon="-0.15004">
        <ele>54.45</ele>
        <time>2016-10-11T07:02:35Z</time>
      </trkpt>
      <trkpt lat="44.49639" lon="-0.15008">
        <ele>54.45</ele>
        <time>2016-10-11T07:02:49Z</time>
      </trkpt>
      <trkpt lat="44.49647" lon="-0.15032">
        <ele>54.45</ele>
        <time>2016-10-11T07:03:05Z</time>
      </trkpt>
      <trkpt lat="44.49651" lon="-0.15046">
        <ele>53.01</ele>
        <time>2016-10-11T07:03:17Z</time>
      </trkpt>
      <trkpt lat="44.49666" lon="-0.15061">
        <ele>51.09</ele>
        <time>2016-10-11T07:03:32Z</time>
      </trkpt>
      <trkpt lat="44.49674" lon="-0.15069">
        <ele>51.09</ele>
        <time>2016-10-11T07:03:40Z</time>
      </trkpt>
      <trkpt lat="44.49695" lon="-0.15075">
        <ele>50.61</ele>
        <time>2016-10-11T07:03:56Z</time>
      </trkpt>
      <trkpt lat="44.49714" lon="-0.15085">
        <ele>50.61</ele>
        <time>2016-10-11T07:04:12Z</time>
      </trkpt>
      <trkpt lat="44.49741" lon="-0.1509">
        <ele>50.61</ele>
        <time>2016-10-11T07:04:31Z</time>
      </trkpt>
      <trkpt lat="44.49761" lon="-0.15093">
        <ele>50.13</ele>
        <time>2016-10-11T07:04:47Z</time>
      </trkpt>
      <trkpt lat="44.49764" lon="-0.15094">
        <ele>50.61</ele>
        <time>2016-10-11T07:05:00Z</time>
      </trkpt>
      <trkpt lat="44.49771" lon="-0.15096">
        <ele>50.61</ele>
        <time>2016-10-11T07:05:10Z</time>
      </trkpt>
      <trkpt lat="44.49791" lon="-0.151">
        <ele>51.09</ele>
        <time>2016-10-11T07:05:27Z</time>
      </trkpt>
      <trkpt lat="44.49799" lon="-0.15103">
        <ele>51.09</ele>
        <time>2016-10-11T07:05:34Z</time>
      </trkpt>
      <trkpt lat="44.49804" lon="-0.15101">
        <ele>51.57</ele>
        <time>2016-10-11T07:05:44Z</time>
      </trkpt>
      <trkpt lat="44.49813" lon="-0.1511">
        <ele>52.05</ele>
        <time>2016-10-11T07:05:59Z</time>
      </trkpt>
      <trkpt lat="44.49826" lon="-0.15119">
        <ele>53.49</ele>
        <time>2016-10-11T07:06:12Z</time>
      </trkpt>
      <trkpt lat="44.49841" lon="-0.15129">
        <ele>53.97</ele>
        <time>2016-10-11T07:06:27Z</time>
      </trkpt>
      <trkpt lat="44.49859" lon="-0.15145">
        <ele>55.41</ele>
        <time>2016-10-11T07:06:44Z</time>
      </trkpt>
      <trkpt lat="44.49865" lon="-0.15163">
        <ele>55.89</ele>
        <time>2016-10-11T07:07:00Z</time>
      </trkpt>
      <trkpt lat="44.49868" lon="-0.15189">
        <ele>54.93</ele>
        <time>2016-10-11T07:07:16Z</time>
      </trkpt>
      <trkpt lat="44.4987" lon="-0.15197">
        <ele>54.93</ele>
        <time>2016-10-11T07:07:20Z</time>
      </trkpt>
      <trkpt lat="44.49874" lon="-0.1523">
        <ele>54.93</ele>
        <time>2016-10-11T07:07:38Z</time>
      </trkpt>
      <trkpt lat="44.49878" lon="-0.15247">
        <ele>56.37</ele>
        <time>2016-10-11T07:07:49Z</time>
      </trkpt>
      <trkpt lat="44.49883" lon="-0.15259">
        <ele>57.34</ele>
        <time>2016-10-11T07:08:03Z</time>
      </trkpt>
      <trkpt lat="44.49877" lon="-0.15258">
        <ele>57.34</ele>
        <time>2016-10-11T07:08:10Z</time>
      </trkpt>
      <trkpt lat="44.49874" lon="-0.15247">
        <ele>55.89</ele>
        <time>2016-10-11T07:08:18Z</time>
      </trkpt>
      <trkpt lat="44.49872" lon="-0.15234">
        <ele>56.37</ele>
        <time>2016-10-11T07:08:28Z</time>
      </trkpt>
      <trkpt lat="44.49865" lon="-0.15221">
        <ele>55.41</ele>
        <time>2016-10-11T07:08:43Z</time>
      </trkpt>
      <trkpt lat="44.49857" lon="-0.15236">
        <ele>51.57</ele>
        <time>2016-10-11T07:09:00Z</time>
      </trkpt>
      <trkpt lat="44.49851" lon="-0.15266">
        <ele>48.2</ele>
        <time>2016-10-11T07:09:22Z</time>
      </trkpt>
      <trkpt lat="44.49846" lon="-0.15296">
        <ele>45.8</ele>
        <time>2016-10-11T07:09:42Z</time>
      </trkpt>
      <trkpt lat="44.49846" lon="-0.15323">
        <ele>43.4</ele>
        <time>2016-10-11T07:10:01Z</time>
      </trkpt>
      <trkpt lat="44.4985" lon="-0.15345">
        <ele>40.51</ele>
        <time>2016-10-11T07:10:20Z</time>
      </trkpt>
      <trkpt lat="44.49857" lon="-0.15371">
        <ele>38.59</ele>
        <time>2016-10-11T07:10:41Z</time>
      </trkpt>
      <trkpt lat="44.49866" lon="-0.15386">
        <ele>37.63</ele>
        <time>2016-10-11T07:11:01Z</time>
      </trkpt>
      <trkpt lat="44.49883" lon="-0.15399">
        <ele>37.15</ele>
        <time>2016-10-11T07:11:21Z</time>
      </trkpt>
      <trkpt lat="44.49903" lon="-0.15414">
        <ele>37.15</ele>
        <time>2016-10-11T07:11:41Z</time>
      </trkpt>
      <trkpt lat="44.49917" lon="-0.15421">
        <ele>33.3</ele>
        <time>2016-10-11T07:11:55Z</time>
      </trkpt>
      <trkpt lat="44.49939" lon="-0.15435">
        <ele>30.9</ele>
        <time>2016-10-11T07:12:17Z</time>
      </trkpt>
      <trkpt lat="44.49953" lon="-0.1545">
        <ele>28.98</ele>
        <time>2016-10-11T07:12:40Z</time>
      </trkpt>
      <trkpt lat="44.49968" lon="-0.15471">
        <ele>27.53</ele>
        <time>2016-10-11T07:12:59Z</time>
      </trkpt>
      <trkpt lat="44.49992" lon="-0.15496">
        <ele>26.57</ele>
        <time>2016-10-11T07:13:19Z</time>
      </trkpt>
      <trkpt lat="44.50001" lon="-0.15511">
        <ele>25.61</ele>
        <time>2016-10-11T07:13:34Z</time>
      </trkpt>
      <trkpt lat="44.50006" lon="-0.15519">
        <ele>25.13</ele>
        <time>2016-10-11T07:13:42Z</time>
      </trkpt>
      <trkpt lat="44.50022" lon="-0.15535">
        <ele>24.17</ele>
        <time>2016-10-11T07:14:01Z</time>
      </trkpt>
      <trkpt lat="44.50034" lon="-0.15545">
        <ele>23.21</ele>
        <time>2016-10-11T07:14:15Z</time>
      </trkpt>
      <trkpt lat="44.50044" lon="-0.15549">
        <ele>22.73</ele>
        <time>2016-10-11T07:14:29Z</time>
      </trkpt>
      <trkpt lat="44.50059" lon="-0.15558">
        <ele>22.73</ele>
        <time>2016-10-11T07:14:47Z</time>
      </trkpt>
      <trkpt lat="44.5006" lon="-0.15559">
        <ele>22.73</ele>
        <time>2016-10-11T07:14:48Z</time>
      </trkpt>
      <trkpt lat="44.50079" lon="-0.15559">
        <ele>24.65</ele>
        <time>2016-10-11T07:15:06Z</time>
      </trkpt>
      <trkpt lat="44.50086" lon="-0.15562">
        <ele>23.21</ele>
        <time>2016-10-11T07:15:11Z</time>
      </trkpt>
      <trkpt lat="44.50105" lon="-0.15567">
        <ele>22.25</ele>
        <time>2016-10-11T07:15:28Z</time>
      </trkpt>
      <trkpt lat="44.50115" lon="-0.15568">
        <ele>22.73</ele>
        <time>2016-10-11T07:15:42Z</time>
      </trkpt>
      <trkpt lat="44.50116" lon="-0.15571">
        <ele>21.29</ele>
        <time>2016-10-11T07:15:47Z</time>
      </trkpt>
      <trkpt lat="44.50122" lon="-0.15577">
        <ele>18.88</ele>
        <time>2016-10-11T07:15:56Z</time>
      </trkpt>
      <trkpt lat="44.50119" lon="-0.156">
        <ele>16.96</ele>
        <time>2016-10-11T07:16:13Z</time>
      </trkpt>
      <trkpt lat="44.50114" lon="-0.15627">
        <ele>15.04</ele>
        <time>2016-10-11T07:16:33Z</time>
      </trkpt>
      <trkpt lat="44.50108" lon="-0.15653">
        <ele>12.63</ele>
        <time>2016-10-11T07:16:51Z</time>
      </trkpt>
      <trkpt lat="44.50096" lon="-0.15674">
        <ele>10.71</ele>
        <time>2016-10-11T07:17:08Z</time>
      </trkpt>
      <trkpt lat="44.50085" lon="-0.15695">
        <ele>8.79</ele>
        <time>2016-10-11T07:17:21Z</time>
      </trkpt>
      <trkpt lat="44.50071" lon="-0.15714">
        <ele>6.39</ele>
        <time>2016-10-11T07:17:39Z</time>
      </trkpt>
      <trkpt lat="44.50056" lon="-0.15738">
        <ele>4.46</ele>
        <time>2016-10-11T07:17:56Z</time>
      </trkpt>
      <trkpt lat="44.50042" lon="-0.15752">
        <ele>2.06</ele>
        <time>2016-10-11T07:18:13Z</time>
      </trkpt>
      <trkpt lat="44.50029" lon="-0.15771">
        <ele>1.58</ele>
        <time>2016-10-11T07:18:28Z</time>
      </trkpt>
      <trkpt lat="44.50023" lon="-0.15797">
        <ele>1.58</ele>
        <time>2016-10-11T07:18:45Z</time>
      </trkpt>
      <trkpt lat="44.50019" lon="-0.15827">
        <ele>1.1</ele>
        <time>2016-10-11T07:19:03Z</time>
      </trkpt>
      <trkpt lat="44.50017" lon="-0.1585">
        <ele>3.02</ele>
        <time>2016-10-11T07:19:20Z</time>
      </trkpt>
      <trkpt lat="44.50011" lon="-0.15869">
        <ele>2.06</ele>
        <time>2016-10-11T07:19:36Z</time>
      </trkpt>
      <trkpt lat="44.50011" lon="-0.1587">
        <ele>2.06</ele>
        <time>2016-10-11T07:19:37Z</time>
      </trkpt>
      <trkpt lat="44.50009" lon="-0.15874">
        <ele>2.06</ele>
        <time>2016-10-11T07:19:40Z</time>
      </trkpt>
      <trkpt lat="44.50008" lon="-0.15876">
        <ele>2.06</ele>
        <time>2016-10-11T07:19:42Z</time>
      </trkpt>
      <trkpt lat="44.50006" lon="-0.15885">
        <ele>1.58</ele>
        <time>2016-10-11T07:19:50Z</time>
      </trkpt>
      <trkpt lat="44.50006" lon="-0.15902">
        <ele>3.5</ele>
        <time>2016-10-11T07:20:04Z</time>
      </trkpt>
      <trkpt lat="44.49995" lon="-0.15899">
        <ele>4.94</ele>
        <time>2016-10-11T07:20:23Z</time>
      </trkpt>
      <trkpt lat="44.49978" lon="-0.15879">
        <ele>3.98</ele>
        <time>2016-10-11T07:20:41Z</time>
      </trkpt>
      <trkpt lat="44.49958" lon="-0.15864">
        <ele>4.46</ele>
        <time>2016-10-11T07:20:59Z</time>
      </trkpt>
      <trkpt lat="44.49939" lon="-0.15853">
        <ele>5.91</ele>
        <time>2016-10-11T07:21:19Z</time>
      </trkpt>
      <trkpt lat="44.49918" lon="-0.15842">
        <ele>6.39</ele>
        <time>2016-10-11T07:21:37Z</time>
      </trkpt>
      <trkpt lat="44.499" lon="-0.15839">
        <ele>6.87</ele>
        <time>2016-10-11T07:21:53Z</time>
      </trkpt>
      <trkpt lat="44.49899" lon="-0.15851">
        <ele>7.35</ele>
        <time>2016-10-11T07:22:08Z</time>
      </trkpt>
      <trkpt lat="44.49898" lon="-0.15861">
        <ele>8.31</ele>
        <time>2016-10-11T07:22:21Z</time>
      </trkpt>
      <trkpt lat="44.49896" lon="-0.15879">
        <ele>9.27</ele>
        <time>2016-10-11T07:22:42Z</time>
      </trkpt>
      <trkpt lat="44.49897" lon="-0.15888">
        <ele>9.75</ele>
        <time>2016-10-11T07:23:07Z</time>
      </trkpt>
      <trkpt lat="44.49899" lon="-0.15884">
        <ele>11.19</ele>
        <time>2016-10-11T07:23:30Z</time>
      </trkpt>
      <trkpt lat="44.49902" lon="-0.15903">
        <ele>12.15</ele>
        <time>2016-10-11T07:23:45Z</time>
      </trkpt>
      <trkpt lat="44.49899" lon="-0.15923">
        <ele>13.6</ele>
        <time>2016-10-11T07:24:02Z</time>
      </trkpt>
      <trkpt lat="44.49901" lon="-0.15943">
        <ele>15.04</ele>
        <time>2016-10-11T07:24:18Z</time>
      </trkpt>
      <trkpt lat="44.49901" lon="-0.15975">
        <ele>16.96</ele>
        <time>2016-10-11T07:24:38Z</time>
      </trkpt>
      <trkpt lat="44.49898" lon="-0.16005">
        <ele>18.4</ele>
        <time>2016-10-11T07:24:59Z</time>
      </trkpt>
      <trkpt lat="44.49892" lon="-0.16031">
        <ele>20.32</ele>
        <time>2016-10-11T07:25:20Z</time>
      </trkpt>
      <trkpt lat="44.49891" lon="-0.16071">
        <ele>21.77</ele>
        <time>2016-10-11T07:25:37Z</time>
      </trkpt>
      <trkpt lat="44.49896" lon="-0.16109">
        <ele>22.25</ele>
        <time>2016-10-11T07:25:55Z</time>
      </trkpt>
      <trkpt lat="44.49881" lon="-0.16134">
        <ele>23.21</ele>
        <time>2016-10-11T07:26:12Z</time>
      </trkpt>
      <trkpt lat="44.49879" lon="-0.16136">
        <ele>23.21</ele>
        <time>2016-10-11T07:26:14Z</time>
      </trkpt>
      <trkpt lat="44.49877" lon="-0.16138">
        <ele>23.21</ele>
        <time>2016-10-11T07:26:16Z</time>
      </trkpt>
      <trkpt lat="44.4987" lon="-0.16171">
        <ele>24.65</ele>
        <time>2016-10-11T07:26:36Z</time>
      </trkpt>
      <trkpt lat="44.4987" lon="-0.16206">
        <ele>25.13</ele>
        <time>2016-10-11T07:26:53Z</time>
      </trkpt>
      <trkpt lat="44.49871" lon="-0.16238">
        <ele>25.61</ele>
        <time>2016-10-11T07:27:08Z</time>
      </trkpt>
      <trkpt lat="44.49873" lon="-0.16271">
        <ele>26.09</ele>
        <time>2016-10-11T07:27:27Z</time>
      </trkpt>
      <trkpt lat="44.49872" lon="-0.16303">
        <ele>27.05</ele>
        <time>2016-10-11T07:27:45Z</time>
      </trkpt>
      <trkpt lat="44.49874" lon="-0.16335">
        <ele>27.05</ele>
        <time>2016-10-11T07:28:02Z</time>
      </trkpt>
      <trkpt lat="44.49876" lon="-0.16373">
        <ele>27.53</ele>
        <time>2016-10-11T07:28:23Z</time>
      </trkpt>
      <trkpt lat="44.49878" lon="-0.16398">
        <ele>27.53</ele>
        <time>2016-10-11T07:28:38Z</time>
      </trkpt>
      <trkpt lat="44.49878" lon="-0.16406">
        <ele>27.53</ele>
        <time>2016-10-11T07:28:45Z</time>
      </trkpt>
      <trkpt lat="44.49877" lon="-0.16411">
        <ele>27.53</ele>
        <time>2016-10-11T07:28:49Z</time>
      </trkpt>
      <trkpt lat="44.49876" lon="-0.16443">
        <ele>28.98</ele>
        <time>2016-10-11T07:29:06Z</time>
      </trkpt>
      <trkpt lat="44.49873" lon="-0.16465">
        <ele>28.98</ele>
        <time>2016-10-11T07:29:22Z</time>
      </trkpt>
      <trkpt lat="44.49876" lon="-0.16489">
        <ele>29.46</ele>
        <time>2016-10-11T07:29:39Z</time>
      </trkpt>
      <trkpt lat="44.49874" lon="-0.16508">
        <ele>30.9</ele>
        <time>2016-10-11T07:29:54Z</time>
      </trkpt>
      <trkpt lat="44.49856" lon="-0.16523">
        <ele>32.34</ele>
        <time>2016-10-11T07:30:14Z</time>
      </trkpt>
      <trkpt lat="44.49837" lon="-0.16529">
        <ele>33.78</ele>
        <time>2016-10-11T07:30:29Z</time>
      </trkpt>
      <trkpt lat="44.4982" lon="-0.1654">
        <ele>34.26</ele>
        <time>2016-10-11T07:30:40Z</time>
      </trkpt>
      <trkpt lat="44.4979" lon="-0.16547">
        <ele>34.74</ele>
        <time>2016-10-11T07:30:58Z</time>
      </trkpt>
      <trkpt lat="44.49766" lon="-0.16557">
        <ele>34.74</ele>
        <time>2016-10-11T07:31:16Z</time>
      </trkpt>
      <trkpt lat="44.49744" lon="-0.16564">
        <ele>35.71</ele>
        <time>2016-10-11T07:31:35Z</time>
      </trkpt>
      <trkpt lat="44.49718" lon="-0.16567">
        <ele>35.71</ele>
        <time>2016-10-11T07:31:54Z</time>
      </trkpt>
      <trkpt lat="44.49699" lon="-0.16564">
        <ele>35.71</ele>
        <time>2016-10-11T07:32:09Z</time>
      </trkpt>
      <trkpt lat="44.49696" lon="-0.16563">
        <ele>35.71</ele>
        <time>2016-10-11T07:32:12Z</time>
      </trkpt>
      <trkpt lat="44.49692" lon="-0.16562">
        <ele>35.71</ele>
        <time>2016-10-11T07:32:16Z</time>
      </trkpt>
      <trkpt lat="44.49666" lon="-0.16558">
        <ele>36.19</ele>
        <time>2016-10-11T07:32:36Z</time>
      </trkpt>
      <trkpt lat="44.49648" lon="-0.16554">
        <ele>36.19</ele>
        <time>2016-10-11T07:32:50Z</time>
      </trkpt>
      <trkpt lat="44.49644" lon="-0.16553">
        <ele>34.74</ele>
        <time>2016-10-11T07:32:53Z</time>
      </trkpt>
      <trkpt lat="44.49622" lon="-0.16549">
        <ele>34.74</ele>
        <time>2016-10-11T07:33:09Z</time>
      </trkpt>
      <trkpt lat="44.49602" lon="-0.16546">
        <ele>34.26</ele>
        <time>2016-10-11T07:33:24Z</time>
      </trkpt>
      <trkpt lat="44.49582" lon="-0.16539">
        <ele>33.78</ele>
        <time>2016-10-11T07:33:40Z</time>
      </trkpt>
      <trkpt lat="44.49564" lon="-0.16535">
        <ele>32.82</ele>
        <time>2016-10-11T07:33:55Z</time>
      </trkpt>
      <trkpt lat="44.49545" lon="-0.16529">
        <ele>32.82</ele>
        <time>2016-10-11T07:34:12Z</time>
      </trkpt>
      <trkpt lat="44.49523" lon="-0.16522">
        <ele>32.82</ele>
        <time>2016-10-11T07:34:30Z</time>
      </trkpt>
      <trkpt lat="44.4952" lon="-0.1652">
        <ele>33.78</ele>
        <time>2016-10-11T07:34:35Z</time>
      </trkpt>
      <trkpt lat="44.495" lon="-0.16512">
        <ele>34.74</ele>
        <time>2016-10-11T07:34:51Z</time>
      </trkpt>
      <trkpt lat="44.49472" lon="-0.16504">
        <ele>35.71</ele>
        <time>2016-10-11T07:35:09Z</time>
      </trkpt>
      <trkpt lat="44.49454" lon="-0.16498">
        <ele>36.19</ele>
        <time>2016-10-11T07:35:21Z</time>
      </trkpt>
      <trkpt lat="44.49437" lon="-0.16493">
        <ele>37.15</ele>
        <time>2016-10-11T07:35:40Z</time>
      </trkpt>
      <trkpt lat="44.49417" lon="-0.16492">
        <ele>37.15</ele>
        <time>2016-10-11T07:35:56Z</time>
      </trkpt>
      <trkpt lat="44.49409" lon="-0.16495">
        <ele>37.63</ele>
        <time>2016-10-11T07:36:11Z</time>
      </trkpt>
      <trkpt lat="44.49406" lon="-0.16491">
        <ele>38.59</ele>
        <time>2016-10-11T07:36:28Z</time>
      </trkpt>
      <trkpt lat="44.49408" lon="-0.16485">
        <ele>38.59</ele>
        <time>2016-10-11T07:36:52Z</time>
      </trkpt>
      <trkpt lat="44.49407" lon="-0.1649">
        <ele>38.59</ele>
        <time>2016-10-11T07:37:07Z</time>
      </trkpt>
      <trkpt lat="44.49408" lon="-0.16509">
        <ele>39.55</ele>
        <time>2016-10-11T07:37:24Z</time>
      </trkpt>
      <trkpt lat="44.49411" lon="-0.16535">
        <ele>40.03</ele>
        <time>2016-10-11T07:37:39Z</time>
      </trkpt>
      <trkpt lat="44.49409" lon="-0.16556">
        <ele>40.51</ele>
        <time>2016-10-11T07:37:55Z</time>
      </trkpt>
      <trkpt lat="44.49405" lon="-0.1658">
        <ele>41.47</ele>
        <time>2016-10-11T07:38:13Z</time>
      </trkpt>
      <trkpt lat="44.49404" lon="-0.16585">
        <ele>42.44</ele>
        <time>2016-10-11T07:38:33Z</time>
      </trkpt>
      <trkpt lat="44.49405" lon="-0.16611">
        <ele>43.4</ele>
        <time>2016-10-11T07:38:51Z</time>
      </trkpt>
      <trkpt lat="44.49403" lon="-0.16631">
        <ele>45.32</ele>
        <time>2016-10-11T07:39:07Z</time>
      </trkpt>
      <trkpt lat="44.49399" lon="-0.16662">
        <ele>46.76</ele>
        <time>2016-10-11T07:39:24Z</time>
      </trkpt>
      <trkpt lat="44.49396" lon="-0.16688">
        <ele>47.72</ele>
        <time>2016-10-11T07:39:42Z</time>
      </trkpt>
      <trkpt lat="44.49401" lon="-0.16721">
        <ele>49.16</ele>
        <time>2016-10-11T07:40:01Z</time>
      </trkpt>
      <trkpt lat="44.49401" lon="-0.16739">
        <ele>50.13</ele>
        <time>2016-10-11T07:40:12Z</time>
      </trkpt>
      <trkpt lat="44.49396" lon="-0.16762">
        <ele>51.09</ele>
        <time>2016-10-11T07:40:31Z</time>
      </trkpt>
      <trkpt lat="44.49398" lon="-0.16771">
        <ele>51.57</ele>
        <time>2016-10-11T07:40:56Z</time>
      </trkpt>
      <trkpt lat="44.49402" lon="-0.16772">
        <ele>52.05</ele>
        <time>2016-10-11T07:41:23Z</time>
      </trkpt>
      <trkpt lat="44.49407" lon="-0.1677">
        <ele>52.05</ele>
        <time>2016-10-11T07:41:50Z</time>
      </trkpt>
      <trkpt lat="44.49406" lon="-0.16775">
        <ele>52.53</ele>
        <time>2016-10-11T07:42:18Z</time>
      </trkpt>
      <trkpt lat="44.49402" lon="-0.1678">
        <ele>53.01</ele>
        <time>2016-10-11T07:42:43Z</time>
      </trkpt>
      <trkpt lat="44.49408" lon="-0.16781">
        <ele>53.01</ele>
        <time>2016-10-11T07:43:09Z</time>
      </trkpt>
      <trkpt lat="44.4941" lon="-0.1678">
        <ele>53.49</ele>
        <time>2016-10-11T07:43:32Z</time>
      </trkpt>
      <trkpt lat="44.49407" lon="-0.16773">
        <ele>53.49</ele>
        <time>2016-10-11T07:44:00Z</time>
      </trkpt>
      <trkpt lat="44.49403" lon="-0.16777">
        <ele>54.93</ele>
        <time>2016-10-11T07:44:22Z</time>
      </trkpt>
      <trkpt lat="44.49405" lon="-0.16784">
        <ele>54.93</ele>
        <time>2016-10-11T07:44:47Z</time>
      </trkpt>
      <trkpt lat="44.49404" lon="-0.16796">
        <ele>55.41</ele>
        <time>2016-10-11T07:45:03Z</time>
      </trkpt>
      <trkpt lat="44.494" lon="-0.16812">
        <ele>55.89</ele>
        <time>2016-10-11T07:45:19Z</time>
      </trkpt>
      <trkpt lat="44.49399" lon="-0.16836">
        <ele>56.37</ele>
        <time>2016-10-11T07:45:33Z</time>
      </trkpt>
      <trkpt lat="44.49397" lon="-0.16856">
        <ele>57.34</ele>
        <time>2016-10-11T07:45:49Z</time>
      </trkpt>
      <trkpt lat="44.49397" lon="-0.16889">
        <ele>58.3</ele>
        <time>2016-10-11T07:46:09Z</time>
      </trkpt>
      <trkpt lat="44.49396" lon="-0.16894">
        <ele>58.78</ele>
        <time>2016-10-11T07:46:32Z</time>
      </trkpt>
      <trkpt lat="44.49393" lon="-0.16903">
        <ele>60.22</ele>
        <time>2016-10-11T07:46:46Z</time>
      </trkpt>
      <trkpt lat="44.49391" lon="-0.16924">
        <ele>61.66</ele>
        <time>2016-10-11T07:47:02Z</time>
      </trkpt>
      <trkpt lat="44.49391" lon="-0.16949">
        <ele>62.62</ele>
        <time>2016-10-11T07:47:18Z</time>
      </trkpt>
      <trkpt lat="44.49391" lon="-0.16953">
        <ele>62.62</ele>
        <time>2016-10-11T07:47:20Z</time>
      </trkpt>
      <trkpt lat="44.49391" lon="-0.16958">
        <ele>63.58</ele>
        <time>2016-10-11T07:47:23Z</time>
      </trkpt>
      <trkpt lat="44.49388" lon="-0.16983">
        <ele>65.03</ele>
        <time>2016-10-11T07:47:37Z</time>
      </trkpt>
      <trkpt lat="44.49384" lon="-0.1701">
        <ele>66.95</ele>
        <time>2016-10-11T07:47:54Z</time>
      </trkpt>
      <trkpt lat="44.49383" lon="-0.17034">
        <ele>68.39</ele>
        <time>2016-10-11T07:48:07Z</time>
      </trkpt>
      <trkpt lat="44.49385" lon="-0.17062">
        <ele>69.35</ele>
        <time>2016-10-11T07:48:23Z</time>
      </trkpt>
      <trkpt lat="44.49382" lon="-0.17088">
        <ele>70.31</ele>
        <time>2016-10-11T07:48:41Z</time>
      </trkpt>
      <trkpt lat="44.49383" lon="-0.17125">
        <ele>71.27</ele>
        <time>2016-10-11T07:49:03Z</time>
      </trkpt>
      <trkpt lat="44.49382" lon="-0.1714">
        <ele>71.76</ele>
        <time>2016-10-11T07:49:16Z</time>
      </trkpt>
      <trkpt lat="44.49379" lon="-0.17171">
        <ele>72.24</ele>
        <time>2016-10-11T07:49:33Z</time>
      </trkpt>
      <trkpt lat="44.49379" lon="-0.17195">
        <ele>72.72</ele>
        <time>2016-10-11T07:49:48Z</time>
      </trkpt>
      <trkpt lat="44.49378" lon="-0.17222">
        <ele>74.64</ele>
        <time>2016-10-11T07:50:08Z</time>
      </trkpt>
      <trkpt lat="44.49377" lon="-0.17246">
        <ele>76.56</ele>
        <time>2016-10-11T07:50:23Z</time>
      </trkpt>
      <trkpt lat="44.49375" lon="-0.17267">
        <ele>77.52</ele>
        <time>2016-10-11T07:50:37Z</time>
      </trkpt>
      <trkpt lat="44.49374" lon="-0.17291">
        <ele>78</ele>
        <time>2016-10-11T07:50:53Z</time>
      </trkpt>
      <trkpt lat="44.49375" lon="-0.17323">
        <ele>79.93</ele>
        <time>2016-10-11T07:51:12Z</time>
      </trkpt>
      <trkpt lat="44.49377" lon="-0.17341">
        <ele>80.89</ele>
        <time>2016-10-11T07:51:28Z</time>
      </trkpt>
      <trkpt lat="44.49383" lon="-0.17361">
        <ele>83.29</ele>
        <time>2016-10-11T07:51:47Z</time>
      </trkpt>
      <trkpt lat="44.4939" lon="-0.1738">
        <ele>84.73</ele>
        <time>2016-10-11T07:52:04Z</time>
      </trkpt>
      <trkpt lat="44.494" lon="-0.1741">
        <ele>85.69</ele>
        <time>2016-10-11T07:52:21Z</time>
      </trkpt>
      <trkpt lat="44.49413" lon="-0.17442">
        <ele>86.66</ele>
        <time>2016-10-11T07:52:40Z</time>
      </trkpt>
      <trkpt lat="44.4942" lon="-0.17474">
        <ele>87.14</ele>
        <time>2016-10-11T07:52:55Z</time>
      </trkpt>
      <trkpt lat="44.49423" lon="-0.17509">
        <ele>89.06</ele>
        <time>2016-10-11T07:53:14Z</time>
      </trkpt>
      <trkpt lat="44.49429" lon="-0.17542">
        <ele>90.02</ele>
        <time>2016-10-11T07:53:33Z</time>
      </trkpt>
      <trkpt lat="44.49435" lon="-0.17564">
        <ele>91.46</ele>
        <time>2016-10-11T07:53:50Z</time>
      </trkpt>
      <trkpt lat="44.49439" lon="-0.1759">
        <ele>91.94</ele>
        <time>2016-10-11T07:54:06Z</time>
      </trkpt>
      <trkpt lat="44.4944" lon="-0.17595">
        <ele>92.42</ele>
        <time>2016-10-11T07:54:09Z</time>
      </trkpt>
      <trkpt lat="44.49443" lon="-0.17624">
        <ele>92.9</ele>
        <time>2016-10-11T07:54:26Z</time>
      </trkpt>
      <trkpt lat="44.49445" lon="-0.17637">
        <ele>93.39</ele>
        <time>2016-10-11T07:54:35Z</time>
      </trkpt>
      <trkpt lat="44.49449" lon="-0.17665">
        <ele>94.35</ele>
        <time>2016-10-11T07:54:52Z</time>
      </trkpt>
      <trkpt lat="44.49451" lon="-0.1768">
        <ele>94.35</ele>
        <time>2016-10-11T07:55:01Z</time>
      </trkpt>
      <trkpt lat="44.49454" lon="-0.1771">
        <ele>95.31</ele>
        <time>2016-10-11T07:55:17Z</time>
      </trkpt>
      <trkpt lat="44.49457" lon="-0.17736">
        <ele>96.27</ele>
        <time>2016-10-11T07:55:32Z</time>
      </trkpt>
      <trkpt lat="44.49457" lon="-0.1776">
        <ele>96.75</ele>
        <time>2016-10-11T07:55:45Z</time>
      </trkpt>
      <trkpt lat="44.4946" lon="-0.17789">
        <ele>97.71</ele>
        <time>2016-10-11T07:56:01Z</time>
      </trkpt>
      <trkpt lat="44.49465" lon="-0.17817">
        <ele>97.71</ele>
        <time>2016-10-11T07:56:18Z</time>
      </trkpt>
      <trkpt lat="44.4947" lon="-0.17843">
        <ele>98.67</ele>
        <time>2016-10-11T07:56:34Z</time>
      </trkpt>
      <trkpt lat="44.49476" lon="-0.1787">
        <ele>99.15</ele>
        <time>2016-10-11T07:56:51Z</time>
      </trkpt>
      <trkpt lat="44.49476" lon="-0.17881">
        <ele>99.63</ele>
        <time>2016-10-11T07:56:58Z</time>
      </trkpt>
      <trkpt lat="44.49473" lon="-0.17896">
        <ele>99.63</ele>
        <time>2016-10-11T07:57:08Z</time>
      </trkpt>
      <trkpt lat="44.49472" lon="-0.17924">
        <ele>100.11</ele>
        <time>2016-10-11T07:57:25Z</time>
      </trkpt>
      <trkpt lat="44.49473" lon="-0.17951">
        <ele>100.6</ele>
        <time>2016-10-11T07:57:42Z</time>
      </trkpt>
      <trkpt lat="44.49475" lon="-0.17976">
        <ele>101.08</ele>
        <time>2016-10-11T07:57:57Z</time>
      </trkpt>
      <trkpt lat="44.49475" lon="-0.17981">
        <ele>101.08</ele>
        <time>2016-10-11T07:58:00Z</time>
      </trkpt>
      <trkpt lat="44.49477" lon="-0.18005">
        <ele>101.08</ele>
        <time>2016-10-11T07:58:16Z</time>
      </trkpt>
      <trkpt lat="44.49478" lon="-0.18029">
        <ele>101.08</ele>
        <time>2016-10-11T07:58:33Z</time>
      </trkpt>
      <trkpt lat="44.49479" lon="-0.18063">
        <ele>101.08</ele>
        <time>2016-10-11T07:58:53Z</time>
      </trkpt>
      <trkpt lat="44.4948" lon="-0.18091">
        <ele>101.08</ele>
        <time>2016-10-11T07:59:11Z</time>
      </trkpt>
      <trkpt lat="44.4948" lon="-0.18122">
        <ele>101.08</ele>
        <time>2016-10-11T07:59:29Z</time>
      </trkpt>
      <trkpt lat="44.49481" lon="-0.18143">
        <ele>101.08</ele>
        <time>2016-10-11T07:59:38Z</time>
      </trkpt>
      <trkpt lat="44.49482" lon="-0.18179">
        <ele>101.56</ele>
        <time>2016-10-11T07:59:58Z</time>
      </trkpt>
      <trkpt lat="44.49486" lon="-0.18213">
        <ele>101.56</ele>
        <time>2016-10-11T08:00:17Z</time>
      </trkpt>
      <trkpt lat="44.49492" lon="-0.18249">
        <ele>100.11</ele>
        <time>2016-10-11T08:00:37Z</time>
      </trkpt>
      <trkpt lat="44.49499" lon="-0.18285">
        <ele>99.63</ele>
        <time>2016-10-11T08:00:57Z</time>
      </trkpt>
      <trkpt lat="44.49504" lon="-0.18315">
        <ele>99.63</ele>
        <time>2016-10-11T08:01:14Z</time>
      </trkpt>
      <trkpt lat="44.49505" lon="-0.18326">
        <ele>99.63</ele>
        <time>2016-10-11T08:01:20Z</time>
      </trkpt>
      <trkpt lat="44.4951" lon="-0.18356">
        <ele>99.63</ele>
        <time>2016-10-11T08:01:38Z</time>
      </trkpt>
      <trkpt lat="44.49515" lon="-0.18383">
        <ele>99.63</ele>
        <time>2016-10-11T08:01:54Z</time>
      </trkpt>
      <trkpt lat="44.4952" lon="-0.18409">
        <ele>101.08</ele>
        <time>2016-10-11T08:02:11Z</time>
      </trkpt>
      <trkpt lat="44.49525" lon="-0.18439">
        <ele>102.04</ele>
        <time>2016-10-11T08:02:29Z</time>
      </trkpt>
      <trkpt lat="44.49529" lon="-0.18467">
        <ele>102.52</ele>
        <time>2016-10-11T08:02:45Z</time>
      </trkpt>
      <trkpt lat="44.49535" lon="-0.18496">
        <ele>102.52</ele>
        <time>2016-10-11T08:03:01Z</time>
      </trkpt>
      <trkpt lat="44.49541" lon="-0.18525">
        <ele>103.48</ele>
        <time>2016-10-11T08:03:19Z</time>
      </trkpt>
      <trkpt lat="44.49548" lon="-0.18554">
        <ele>103.48</ele>
        <time>2016-10-11T08:03:36Z</time>
      </trkpt>
      <trkpt lat="44.49554" lon="-0.1858">
        <ele>103.96</ele>
        <time>2016-10-11T08:03:53Z</time>
      </trkpt>
      <trkpt lat="44.49559" lon="-0.18608">
        <ele>104.44</ele>
        <time>2016-10-11T08:04:10Z</time>
      </trkpt>
      <trkpt lat="44.49562" lon="-0.18629">
        <ele>104.44</ele>
        <time>2016-10-11T08:04:23Z</time>
      </trkpt>
      <trkpt lat="44.49568" lon="-0.18654">
        <ele>104.44</ele>
        <time>2016-10-11T08:04:41Z</time>
      </trkpt>
      <trkpt lat="44.49572" lon="-0.18674">
        <ele>104.92</ele>
        <time>2016-10-11T08:04:54Z</time>
      </trkpt>
      <trkpt lat="44.49577" lon="-0.18703">
        <ele>104.92</ele>
        <time>2016-10-11T08:05:12Z</time>
      </trkpt>
      <trkpt lat="44.49581" lon="-0.18729">
        <ele>104.92</ele>
        <time>2016-10-11T08:05:28Z</time>
      </trkpt>
      <trkpt lat="44.49583" lon="-0.18754">
        <ele>104.92</ele>
        <time>2016-10-11T08:05:42Z</time>
      </trkpt>
      <trkpt lat="44.49585" lon="-0.18785">
        <ele>105.4</ele>
        <time>2016-10-11T08:05:59Z</time>
      </trkpt>
      <trkpt lat="44.49588" lon="-0.18818">
        <ele>105.4</ele>
        <time>2016-10-11T08:06:17Z</time>
      </trkpt>
      <trkpt lat="44.49588" lon="-0.18846">
        <ele>103.96</ele>
        <time>2016-10-11T08:06:34Z</time>
      </trkpt>
      <trkpt lat="44.49588" lon="-0.18878">
        <ele>103.48</ele>
        <time>2016-10-11T08:06:52Z</time>
      </trkpt>
      <trkpt lat="44.49589" lon="-0.18906">
        <ele>103.48</ele>
        <time>2016-10-11T08:07:09Z</time>
      </trkpt>
      <trkpt lat="44.49588" lon="-0.18933">
        <ele>103</ele>
        <time>2016-10-11T08:07:25Z</time>
      </trkpt>
      <trkpt lat="44.49587" lon="-0.18958">
        <ele>103</ele>
        <time>2016-10-11T08:07:41Z</time>
      </trkpt>
      <trkpt lat="44.49587" lon="-0.18968">
        <ele>103</ele>
        <time>2016-10-11T08:07:49Z</time>
      </trkpt>
      <trkpt lat="44.49588" lon="-0.18974">
        <ele>103.48</ele>
        <time>2016-10-11T08:07:53Z</time>
      </trkpt>
      <trkpt lat="44.4959" lon="-0.19003">
        <ele>103</ele>
        <time>2016-10-11T08:08:12Z</time>
      </trkpt>
      <trkpt lat="44.49589" lon="-0.19028">
        <ele>103</ele>
        <time>2016-10-11T08:08:27Z</time>
      </trkpt>
      <trkpt lat="44.49591" lon="-0.19057">
        <ele>103</ele>
        <time>2016-10-11T08:08:44Z</time>
      </trkpt>
      <trkpt lat="44.49591" lon="-0.19061">
        <ele>103</ele>
        <time>2016-10-11T08:08:47Z</time>
      </trkpt>
      <trkpt lat="44.49605" lon="-0.19068">
        <ele>103</ele>
        <time>2016-10-11T08:09:02Z</time>
      </trkpt>
      <trkpt lat="44.49624" lon="-0.19058">
        <ele>103</ele>
        <time>2016-10-11T08:09:19Z</time>
      </trkpt>
      <trkpt lat="44.49642" lon="-0.19046">
        <ele>102.52</ele>
        <time>2016-10-11T08:09:36Z</time>
      </trkpt>
      <trkpt lat="44.49661" lon="-0.19035">
        <ele>102.52</ele>
        <time>2016-10-11T08:09:53Z</time>
      </trkpt>
      <trkpt lat="44.49671" lon="-0.19034">
        <ele>102.04</ele>
        <time>2016-10-11T08:10:01Z</time>
      </trkpt>
      <trkpt lat="44.49688" lon="-0.19028">
        <ele>102.04</ele>
        <time>2016-10-11T08:10:17Z</time>
      </trkpt>
      <trkpt lat="44.4971" lon="-0.19025">
        <ele>102.04</ele>
        <time>2016-10-11T08:10:34Z</time>
      </trkpt>
      <trkpt lat="44.49731" lon="-0.19022">
        <ele>102.04</ele>
        <time>2016-10-11T08:10:51Z</time>
      </trkpt>
      <trkpt lat="44.49749" lon="-0.1902">
        <ele>102.04</ele>
        <time>2016-10-11T08:11:06Z</time>
      </trkpt>
      <trkpt lat="44.49752" lon="-0.19018">
        <ele>102.04</ele>
        <time>2016-10-11T08:11:09Z</time>
      </trkpt>
      <trkpt lat="44.49775" lon="-0.19016">
        <ele>102.04</ele>
        <time>2016-10-11T08:11:27Z</time>
      </trkpt>
      <trkpt lat="44.49798" lon="-0.19014">
        <ele>102.04</ele>
        <time>2016-10-11T08:11:46Z</time>
      </trkpt>
      <trkpt lat="44.4981" lon="-0.19012">
        <ele>102.04</ele>
        <time>2016-10-11T08:11:58Z</time>
      </trkpt>
      <trkpt lat="44.49824" lon="-0.19012">
        <ele>102.04</ele>
        <time>2016-10-11T08:12:09Z</time>
      </trkpt>
      <trkpt lat="44.49827" lon="-0.19013">
        <ele>102.04</ele>
        <time>2016-10-11T08:12:12Z</time>
      </trkpt>
      <trkpt lat="44.4983" lon="-0.19023">
        <ele>102.04</ele>
        <time>2016-10-11T08:12:19Z</time>
      </trkpt>
      <trkpt lat="44.49832" lon="-0.19031">
        <ele>102.04</ele>
        <time>2016-10-11T08:12:24Z</time>
      </trkpt>
      <trkpt lat="44.49835" lon="-0.19047">
        <ele>101.56</ele>
        <time>2016-10-11T08:12:37Z</time>
      </trkpt>
      <trkpt lat="44.49836" lon="-0.19051">
        <ele>101.56</ele>
        <time>2016-10-11T08:12:40Z</time>
      </trkpt>
      <trkpt lat="44.49841" lon="-0.19078">
        <ele>101.08</ele>
        <time>2016-10-11T08:12:57Z</time>
      </trkpt>
      <trkpt lat="44.49845" lon="-0.19106">
        <ele>100.11</ele>
        <time>2016-10-11T08:13:13Z</time>
      </trkpt>
      <trkpt lat="44.49848" lon="-0.19123">
        <ele>99.63</ele>
        <time>2016-10-11T08:13:22Z</time>
      </trkpt>
      <trkpt lat="44.4985" lon="-0.19136">
        <ele>99.15</ele>
        <time>2016-10-11T08:13:29Z</time>
      </trkpt>
      <trkpt lat="44.49855" lon="-0.1916">
        <ele>98.19</ele>
        <time>2016-10-11T08:13:42Z</time>
      </trkpt>
      <trkpt lat="44.4986" lon="-0.19187">
        <ele>97.71</ele>
        <time>2016-10-11T08:13:59Z</time>
      </trkpt>
      <trkpt lat="44.49864" lon="-0.19216">
        <ele>97.23</ele>
        <time>2016-10-11T08:14:16Z</time>
      </trkpt>
      <trkpt lat="44.4987" lon="-0.19246">
        <ele>96.75</ele>
        <time>2016-10-11T08:14:34Z</time>
      </trkpt>
      <trkpt lat="44.49875" lon="-0.19277">
        <ele>96.75</ele>
        <time>2016-10-11T08:14:52Z</time>
      </trkpt>
      <trkpt lat="44.49876" lon="-0.19302">
        <ele>96.27</ele>
        <time>2016-10-11T08:15:06Z</time>
      </trkpt>
      <trkpt lat="44.49876" lon="-0.19315">
        <ele>95.79</ele>
        <time>2016-10-11T08:15:14Z</time>
      </trkpt>
      <trkpt lat="44.49875" lon="-0.19344">
        <ele>95.31</ele>
        <time>2016-10-11T08:15:31Z</time>
      </trkpt>
      <trkpt lat="44.49875" lon="-0.19369">
        <ele>94.35</ele>
        <time>2016-10-11T08:15:44Z</time>
      </trkpt>
      <trkpt lat="44.49875" lon="-0.19378">
        <ele>94.35</ele>
        <time>2016-10-11T08:15:50Z</time>
      </trkpt>
      <trkpt lat="44.49876" lon="-0.19402">
        <ele>93.87</ele>
        <time>2016-10-11T08:16:05Z</time>
      </trkpt>
      <trkpt lat="44.49882" lon="-0.1943">
        <ele>93.87</ele>
        <time>2016-10-11T08:16:24Z</time>
      </trkpt>
      <trkpt lat="44.49887" lon="-0.19455">
        <ele>92.9</ele>
        <time>2016-10-11T08:16:39Z</time>
      </trkpt>
      <trkpt lat="44.49892" lon="-0.19479">
        <ele>91.94</ele>
        <time>2016-10-11T08:16:55Z</time>
      </trkpt>
      <trkpt lat="44.49894" lon="-0.19487">
        <ele>91.94</ele>
        <time>2016-10-11T08:17:01Z</time>
      </trkpt>
      <trkpt lat="44.49896" lon="-0.19497">
        <ele>91.94</ele>
        <time>2016-10-11T08:17:07Z</time>
      </trkpt>
      <trkpt lat="44.499" lon="-0.1952">
        <ele>90.98</ele>
        <time>2016-10-11T08:17:24Z</time>
      </trkpt>
      <trkpt lat="44.49905" lon="-0.19544">
        <ele>90.02</ele>
        <time>2016-10-11T08:17:39Z</time>
      </trkpt>
      <trkpt lat="44.49912" lon="-0.19566">
        <ele>90.02</ele>
        <time>2016-10-11T08:17:54Z</time>
      </trkpt>
      <trkpt lat="44.49918" lon="-0.19588">
        <ele>89.06</ele>
        <time>2016-10-11T08:18:09Z</time>
      </trkpt>
      <trkpt lat="44.49924" lon="-0.19611">
        <ele>88.58</ele>
        <time>2016-10-11T08:18:23Z</time>
      </trkpt>
      <trkpt lat="44.49931" lon="-0.19636">
        <ele>88.1</ele>
        <time>2016-10-11T08:18:40Z</time>
      </trkpt>
      <trkpt lat="44.49933" lon="-0.19639">
        <ele>88.1</ele>
        <time>2016-10-11T08:18:42Z</time>
      </trkpt>
      <trkpt lat="44.49943" lon="-0.19662">
        <ele>88.1</ele>
        <time>2016-10-11T08:18:57Z</time>
      </trkpt>
      <trkpt lat="44.49953" lon="-0.19689">
        <ele>89.54</ele>
        <time>2016-10-11T08:19:12Z</time>
      </trkpt>
      <trkpt lat="44.49959" lon="-0.19708">
        <ele>90.02</ele>
        <time>2016-10-11T08:19:25Z</time>
      </trkpt>
      <trkpt lat="44.49963" lon="-0.19732">
        <ele>90.5</ele>
        <time>2016-10-11T08:19:35Z</time>
      </trkpt>
      <trkpt lat="44.49967" lon="-0.19754">
        <ele>90.5</ele>
        <time>2016-10-11T08:19:50Z</time>
      </trkpt>
      <trkpt lat="44.49969" lon="-0.19775">
        <ele>90.5</ele>
        <time>2016-10-11T08:20:05Z</time>
      </trkpt>
      <trkpt lat="44.49969" lon="-0.19777">
        <ele>90.5</ele>
        <time>2016-10-11T08:20:07Z</time>
      </trkpt>
      <trkpt lat="44.49971" lon="-0.19784">
        <ele>90.5</ele>
        <time>2016-10-11T08:20:15Z</time>
      </trkpt>
      <trkpt lat="44.49968" lon="-0.19793">
        <ele>89.06</ele>
        <time>2016-10-11T08:20:20Z</time>
      </trkpt>
      <trkpt lat="44.49957" lon="-0.19814">
        <ele>87.14</ele>
        <time>2016-10-11T08:20:36Z</time>
      </trkpt>
      <trkpt lat="44.49954" lon="-0.19818">
        <ele>87.14</ele>
        <time>2016-10-11T08:20:40Z</time>
      </trkpt>
      <trkpt lat="44.49948" lon="-0.19824">
        <ele>86.18</ele>
        <time>2016-10-11T08:20:46Z</time>
      </trkpt>
      <trkpt lat="44.49934" lon="-0.19838">
        <ele>85.21</ele>
        <time>2016-10-11T08:21:00Z</time>
      </trkpt>
      <trkpt lat="44.4993" lon="-0.19841">
        <ele>85.21</ele>
        <time>2016-10-11T08:21:16Z</time>
      </trkpt>
      <trkpt lat="44.4993" lon="-0.19843">
        <ele>85.69</ele>
        <time>2016-10-11T08:21:48Z</time>
      </trkpt>
      <trkpt lat="44.49928" lon="-0.19847">
        <ele>85.69</ele>
        <time>2016-10-11T08:22:09Z</time>
      </trkpt>
      <trkpt lat="44.49924" lon="-0.19851">
        <ele>85.21</ele>
        <time>2016-10-11T08:22:25Z</time>
      </trkpt>
      <trkpt lat="44.49924" lon="-0.19854">
        <ele>85.21</ele>
        <time>2016-10-11T08:22:58Z</time>
      </trkpt>
      <trkpt lat="44.49922" lon="-0.19852">
        <ele>85.21</ele>
        <time>2016-10-11T08:23:32Z</time>
      </trkpt>
      <trkpt lat="44.49925" lon="-0.1985">
        <ele>85.21</ele>
        <time>2016-10-11T08:23:51Z</time>
      </trkpt>
      <trkpt lat="44.49923" lon="-0.1985">
        <ele>85.21</ele>
        <time>2016-10-11T08:24:17Z</time>
      </trkpt>
      <trkpt lat="44.49924" lon="-0.19845">
        <ele>85.21</ele>
        <time>2016-10-11T08:24:43Z</time>
      </trkpt>
      <trkpt lat="44.49926" lon="-0.19843">
        <ele>85.21</ele>
        <time>2016-10-11T08:25:01Z</time>
      </trkpt>
      <trkpt lat="44.49926" lon="-0.19843">
        <ele>85.21</ele>
        <time>2016-10-11T08:25:24Z</time>
      </trkpt>
      <trkpt lat="44.49924" lon="-0.19842">
        <ele>85.21</ele>
        <time>2016-10-11T08:25:41Z</time>
      </trkpt>
      <trkpt lat="44.49924" lon="-0.19847">
        <ele>85.21</ele>
        <time>2016-10-11T08:25:56Z</time>
      </trkpt>
      <trkpt lat="44.49923" lon="-0.19847">
        <ele>85.21</ele>
        <time>2016-10-11T08:26:10Z</time>
      </trkpt>
      <trkpt lat="44.49922" lon="-0.19844">
        <ele>85.21</ele>
        <time>2016-10-11T08:26:26Z</time>
      </trkpt>
      <trkpt lat="44.49923" lon="-0.19849">
        <ele>85.21</ele>
        <time>2016-10-11T08:26:48Z</time>
      </trkpt>
      <trkpt lat="44.49916" lon="-0.19853">
        <ele>85.21</ele>
        <time>2016-10-11T08:27:02Z</time>
      </trkpt>
      <trkpt lat="44.49906" lon="-0.19858">
        <ele>84.73</ele>
        <time>2016-10-11T08:27:17Z</time>
      </trkpt>
      <trkpt lat="44.499" lon="-0.19863">
        <ele>84.73</ele>
        <time>2016-10-11T08:27:33Z</time>
      </trkpt>
      <trkpt lat="44.49888" lon="-0.19848">
        <ele>84.73</ele>
        <time>2016-10-11T08:27:55Z</time>
      </trkpt>
      <trkpt lat="44.4989" lon="-0.19875">
        <ele>84.73</ele>
        <time>2016-10-11T08:28:16Z</time>
      </trkpt>
      <trkpt lat="44.49861" lon="-0.19896">
        <ele>85.69</ele>
        <time>2016-10-11T08:28:37Z</time>
      </trkpt>
      <trkpt lat="44.49854" lon="-0.199">
        <ele>85.69</ele>
        <time>2016-10-11T08:28:43Z</time>
      </trkpt>
      <trkpt lat="44.49841" lon="-0.19909">
        <ele>87.14</ele>
        <time>2016-10-11T08:28:56Z</time>
      </trkpt>
      <trkpt lat="44.4983" lon="-0.19918">
        <ele>87.62</ele>
        <time>2016-10-11T08:29:08Z</time>
      </trkpt>
      <trkpt lat="44.49817" lon="-0.19927">
        <ele>87.62</ele>
        <time>2016-10-11T08:29:23Z</time>
      </trkpt>
      <trkpt lat="44.49801" lon="-0.1994">
        <ele>88.58</ele>
        <time>2016-10-11T08:29:39Z</time>
      </trkpt>
      <trkpt lat="44.49785" lon="-0.19957">
        <ele>89.06</ele>
        <time>2016-10-11T08:29:56Z</time>
      </trkpt>
      <trkpt lat="44.49771" lon="-0.19977">
        <ele>90.02</ele>
        <time>2016-10-11T08:30:14Z</time>
      </trkpt>
      <trkpt lat="44.49756" lon="-0.19996">
        <ele>90.5</ele>
        <time>2016-10-11T08:30:31Z</time>
      </trkpt>
      <trkpt lat="44.4974" lon="-0.20018">
        <ele>91.46</ele>
        <time>2016-10-11T08:30:50Z</time>
      </trkpt>
      <trkpt lat="44.49723" lon="-0.2003">
        <ele>91.94</ele>
        <time>2016-10-11T08:31:08Z</time>
      </trkpt>
      <trkpt lat="44.49708" lon="-0.20034">
        <ele>92.9</ele>
        <time>2016-10-11T08:31:24Z</time>
      </trkpt>
      <trkpt lat="44.49699" lon="-0.20034">
        <ele>93.39</ele>
        <time>2016-10-11T08:31:38Z</time>
      </trkpt>
      <trkpt lat="44.4968" lon="-0.20039">
        <ele>94.35</ele>
        <time>2016-10-11T08:31:56Z</time>
      </trkpt>
      <trkpt lat="44.49664" lon="-0.20043">
        <ele>95.31</ele>
        <time>2016-10-11T08:32:13Z</time>
      </trkpt>
      <trkpt lat="44.4965" lon="-0.20041">
        <ele>95.79</ele>
        <time>2016-10-11T08:32:27Z</time>
      </trkpt>
      <trkpt lat="44.49646" lon="-0.20041">
        <ele>96.27</ele>
        <time>2016-10-11T08:32:42Z</time>
      </trkpt>
      <trkpt lat="44.49634" lon="-0.20044">
        <ele>97.23</ele>
        <time>2016-10-11T08:32:57Z</time>
      </trkpt>
      <trkpt lat="44.49627" lon="-0.20049">
        <ele>97.71</ele>
        <time>2016-10-11T08:33:06Z</time>
      </trkpt>
      <trkpt lat="44.49607" lon="-0.20061">
        <ele>98.67</ele>
        <time>2016-10-11T08:33:21Z</time>
      </trkpt>
      <trkpt lat="44.4959" lon="-0.20082">
        <ele>99.63</ele>
        <time>2016-10-11T08:33:39Z</time>
      </trkpt>
      <trkpt lat="44.49582" lon="-0.20101">
        <ele>100.11</ele>
        <time>2016-10-11T08:33:54Z</time>
      </trkpt>
      <trkpt lat="44.49573" lon="-0.20123">
        <ele>100.6</ele>
        <time>2016-10-11T08:34:11Z</time>
      </trkpt>
      <trkpt lat="44.4957" lon="-0.20154">
        <ele>101.08</ele>
        <time>2016-10-11T08:34:28Z</time>
      </trkpt>
      <trkpt lat="44.49571" lon="-0.20178">
        <ele>101.08</ele>
        <time>2016-10-11T08:34:43Z</time>
      </trkpt>
      <trkpt lat="44.49576" lon="-0.20202">
        <ele>99.63</ele>
        <time>2016-10-11T08:34:57Z</time>
      </trkpt>
      <trkpt lat="44.4958" lon="-0.20228">
        <ele>99.15</ele>
        <time>2016-10-11T08:35:12Z</time>
      </trkpt>
      <trkpt lat="44.49586" lon="-0.20253">
        <ele>98.67</ele>
        <time>2016-10-11T08:35:26Z</time>
      </trkpt>
      <trkpt lat="44.4959" lon="-0.20274">
        <ele>98.19</ele>
        <time>2016-10-11T08:35:38Z</time>
      </trkpt>
      <trkpt lat="44.49596" lon="-0.20295">
        <ele>97.71</ele>
        <time>2016-10-11T08:35:53Z</time>
      </trkpt>
      <trkpt lat="44.49598" lon="-0.20303">
        <ele>97.23</ele>
        <time>2016-10-11T08:35:59Z</time>
      </trkpt>
      <trkpt lat="44.49601" lon="-0.20331">
        <ele>96.27</ele>
        <time>2016-10-11T08:36:14Z</time>
      </trkpt>
      <trkpt lat="44.49604" lon="-0.2035">
        <ele>95.79</ele>
        <time>2016-10-11T08:36:27Z</time>
      </trkpt>
      <trkpt lat="44.49604" lon="-0.20367">
        <ele>95.31</ele>
        <time>2016-10-11T08:36:39Z</time>
      </trkpt>
      <trkpt lat="44.49609" lon="-0.20387">
        <ele>94.83</ele>
        <time>2016-10-11T08:36:52Z</time>
      </trkpt>
      <trkpt lat="44.49613" lon="-0.2041">
        <ele>94.35</ele>
        <time>2016-10-11T08:37:06Z</time>
      </trkpt>
      <trkpt lat="44.49622" lon="-0.2044">
        <ele>94.35</ele>
        <time>2016-10-11T08:37:23Z</time>
      </trkpt>
      <trkpt lat="44.49626" lon="-0.20462">
        <ele>96.27</ele>
        <time>2016-10-11T08:37:37Z</time>
      </trkpt>
      <trkpt lat="44.49624" lon="-0.20491">
        <ele>97.71</ele>
        <time>2016-10-11T08:37:53Z</time>
      </trkpt>
      <trkpt lat="44.49615" lon="-0.20526">
        <ele>99.15</ele>
        <time>2016-10-11T08:38:11Z</time>
      </trkpt>
      <trkpt lat="44.49603" lon="-0.20551">
        <ele>100.11</ele>
        <time>2016-10-11T08:38:28Z</time>
      </trkpt>
      <trkpt lat="44.49591" lon="-0.20577">
        <ele>101.56</ele>
        <time>2016-10-11T08:38:46Z</time>
      </trkpt>
      <trkpt lat="44.4958" lon="-0.20597">
        <ele>102.52</ele>
        <time>2016-10-11T08:39:02Z</time>
      </trkpt>
      <trkpt lat="44.49569" lon="-0.2062">
        <ele>103.48</ele>
        <time>2016-10-11T08:39:20Z</time>
      </trkpt>
      <trkpt lat="44.49557" lon="-0.20646">
        <ele>104.92</ele>
        <time>2016-10-11T08:39:40Z</time>
      </trkpt>
      <trkpt lat="44.49555" lon="-0.20659">
        <ele>105.4</ele>
        <time>2016-10-11T08:39:50Z</time>
      </trkpt>
      <trkpt lat="44.49563" lon="-0.20678">
        <ele>105.88</ele>
        <time>2016-10-11T08:40:04Z</time>
      </trkpt>
      <trkpt lat="44.49572" lon="-0.20698">
        <ele>105.88</ele>
        <time>2016-10-11T08:40:19Z</time>
      </trkpt>
      <trkpt lat="44.49582" lon="-0.20721">
        <ele>105.88</ele>
        <time>2016-10-11T08:40:35Z</time>
      </trkpt>
      <trkpt lat="44.49589" lon="-0.2074">
        <ele>105.88</ele>
        <time>2016-10-11T08:40:49Z</time>
      </trkpt>
      <trkpt lat="44.49598" lon="-0.20758">
        <ele>104.92</ele>
        <time>2016-10-11T08:41:02Z</time>
      </trkpt>
      <trkpt lat="44.49599" lon="-0.2076">
        <ele>104.44</ele>
        <time>2016-10-11T08:41:04Z</time>
      </trkpt>
      <trkpt lat="44.49601" lon="-0.20765">
        <ele>104.44</ele>
        <time>2016-10-11T08:41:08Z</time>
      </trkpt>
      <trkpt lat="44.49611" lon="-0.2079">
        <ele>104.44</ele>
        <time>2016-10-11T08:41:22Z</time>
      </trkpt>
      <trkpt lat="44.49621" lon="-0.20811">
        <ele>103.96</ele>
        <time>2016-10-11T08:41:36Z</time>
      </trkpt>
      <trkpt lat="44.49625" lon="-0.20819">
        <ele>103.96</ele>
        <time>2016-10-11T08:41:41Z</time>
      </trkpt>
      <trkpt lat="44.49637" lon="-0.20833">
        <ele>103.96</ele>
        <time>2016-10-11T08:41:56Z</time>
      </trkpt>
      <trkpt lat="44.4965" lon="-0.20843">
        <ele>103.96</ele>
        <time>2016-10-11T08:42:11Z</time>
      </trkpt>
      <trkpt lat="44.49658" lon="-0.20851">
        <ele>103.48</ele>
        <time>2016-10-11T08:42:25Z</time>
      </trkpt>
      <trkpt lat="44.49657" lon="-0.20858">
        <ele>103.96</ele>
        <time>2016-10-11T08:42:38Z</time>
      </trkpt>
      <trkpt lat="44.49656" lon="-0.20861">
        <ele>103.96</ele>
        <time>2016-10-11T08:43:11Z</time>
      </trkpt>
      <trkpt lat="44.49659" lon="-0.2086">
        <ele>103.96</ele>
        <time>2016-10-11T08:43:39Z</time>
      </trkpt>
      <trkpt lat="44.49657" lon="-0.20859">
        <ele>103.96</ele>
        <time>2016-10-11T08:44:06Z</time>
      </trkpt>
      <trkpt lat="44.49657" lon="-0.20861">
        <ele>103.96</ele>
        <time>2016-10-11T08:44:31Z</time>
      </trkpt>
      <trkpt lat="44.49658" lon="-0.20858">
        <ele>103.96</ele>
        <time>2016-10-11T08:45:05Z</time>
      </trkpt>
      <trkpt lat="44.49655" lon="-0.20859">
        <ele>103.96</ele>
        <time>2016-10-11T08:45:36Z</time>
      </trkpt>
      <trkpt lat="44.49656" lon="-0.2086">
        <ele>103.96</ele>
        <time>2016-10-11T08:46:08Z</time>
      </trkpt>
      <trkpt lat="44.49658" lon="-0.20857">
        <ele>103.96</ele>
        <time>2016-10-11T08:46:35Z</time>
      </trkpt>
      <trkpt lat="44.49657" lon="-0.20855">
        <ele>103.96</ele>
        <time>2016-10-11T08:47:07Z</time>
      </trkpt>
      <trkpt lat="44.49657" lon="-0.2086">
        <ele>103.96</ele>
        <time>2016-10-11T08:47:43Z</time>
      </trkpt>
      <trkpt lat="44.49657" lon="-0.20861">
        <ele>103.96</ele>
        <time>2016-10-11T08:48:15Z</time>
      </trkpt>
      <trkpt lat="44.49654" lon="-0.20863">
        <ele>103.96</ele>
        <time>2016-10-11T08:48:44Z</time>
      </trkpt>
      <trkpt lat="44.49658" lon="-0.2086">
        <ele>103.96</ele>
        <time>2016-10-11T08:49:21Z</time>
      </trkpt>
      <trkpt lat="44.49656" lon="-0.20855">
        <ele>103.96</ele>
        <time>2016-10-11T08:49:56Z</time>
      </trkpt>
      <trkpt lat="44.49656" lon="-0.20855">
        <ele>104.44</ele>
        <time>2016-10-11T08:50:28Z</time>
      </trkpt>
      <trkpt lat="44.49653" lon="-0.2086">
        <ele>103.96</ele>
        <time>2016-10-11T08:50:55Z</time>
      </trkpt>
      <trkpt lat="44.49654" lon="-0.20859">
        <ele>103.96</ele>
        <time>2016-10-11T08:51:21Z</time>
      </trkpt>
      <trkpt lat="44.49656" lon="-0.20855">
        <ele>103.96</ele>
        <time>2016-10-11T08:51:48Z</time>
      </trkpt>
      <trkpt lat="44.49653" lon="-0.20859">
        <ele>103.96</ele>
        <time>2016-10-11T08:52:22Z</time>
      </trkpt>
      <trkpt lat="44.49651" lon="-0.20861">
        <ele>103.96</ele>
        <time>2016-10-11T08:52:48Z</time>
      </trkpt>
      <trkpt lat="44.49657" lon="-0.20862">
        <ele>104.44</ele>
        <time>2016-10-11T08:53:18Z</time>
      </trkpt>
      <trkpt lat="44.49658" lon="-0.20861">
        <ele>104.44</ele>
        <time>2016-10-11T08:53:57Z</time>
      </trkpt>
      <trkpt lat="44.49659" lon="-0.2086">
        <ele>104.44</ele>
        <time>2016-10-11T08:54:25Z</time>
      </trkpt>
      <trkpt lat="44.4966" lon="-0.2086">
        <ele>105.4</ele>
        <time>2016-10-11T08:54:32Z</time>
      </trkpt>
      <trkpt lat="44.4966" lon="-0.20858">
        <ele>105.4</ele>
        <time>2016-10-11T08:54:56Z</time>
      </trkpt>
      <trkpt lat="44.4966" lon="-0.20862">
        <ele>105.4</ele>
        <time>2016-10-11T08:55:14Z</time>
      </trkpt>
      <trkpt lat="44.49662" lon="-0.20868">
        <ele>105.4</ele>
        <time>2016-10-11T08:55:28Z</time>
      </trkpt>
      <trkpt lat="44.49664" lon="-0.20879">
        <ele>105.4</ele>
        <time>2016-10-11T08:55:44Z</time>
      </trkpt>
      <trkpt lat="44.49668" lon="-0.20899">
        <ele>105.4</ele>
        <time>2016-10-11T08:56:01Z</time>
      </trkpt>
      <trkpt lat="44.49669" lon="-0.20908">
        <ele>105.4</ele>
        <time>2016-10-11T08:56:13Z</time>
      </trkpt>
      <trkpt lat="44.49674" lon="-0.20907">
        <ele>105.4</ele>
        <time>2016-10-11T08:56:18Z</time>
      </trkpt>
      <trkpt lat="44.49686" lon="-0.20903">
        <ele>105.4</ele>
        <time>2016-10-11T08:56:32Z</time>
      </trkpt>
      <trkpt lat="44.49694" lon="-0.20898">
        <ele>105.4</ele>
        <time>2016-10-11T08:56:44Z</time>
      </trkpt>
      <trkpt lat="44.49698" lon="-0.20892">
        <ele>105.4</ele>
        <time>2016-10-11T08:56:57Z</time>
      </trkpt>
      <trkpt lat="44.49699" lon="-0.20876">
        <ele>105.4</ele>
        <time>2016-10-11T08:57:19Z</time>
      </trkpt>
      <trkpt lat="44.49698" lon="-0.20872">
        <ele>105.4</ele>
        <time>2016-10-11T08:57:45Z</time>
      </trkpt>
      <trkpt lat="44.49693" lon="-0.20861">
        <ele>105.4</ele>
        <time>2016-10-11T08:58:13Z</time>
      </trkpt>
      <trkpt lat="44.49691" lon="-0.20865">
        <ele>105.88</ele>
        <time>2016-10-11T08:58:40Z</time>
      </trkpt>
      <trkpt lat="44.49693" lon="-0.20864">
        <ele>105.88</ele>
        <time>2016-10-11T08:59:07Z</time>
      </trkpt>
      <trkpt lat="44.49693" lon="-0.20866">
        <ele>105.4</ele>
        <time>2016-10-11T08:59:35Z</time>
      </trkpt>
      <trkpt lat="44.49691" lon="-0.20865">
        <ele>105.4</ele>
        <time>2016-10-11T09:00:07Z</time>
      </trkpt>
      <trkpt lat="44.49691" lon="-0.2087">
        <ele>105.4</ele>
        <time>2016-10-11T09:00:29Z</time>
      </trkpt>
      <trkpt lat="44.49696" lon="-0.20877">
        <ele>105.4</ele>
        <time>2016-10-11T09:00:49Z</time>
      </trkpt>
      <trkpt lat="44.49699" lon="-0.2089">
        <ele>105.4</ele>
        <time>2016-10-11T09:01:07Z</time>
      </trkpt>
      <trkpt lat="44.49692" lon="-0.20901">
        <ele>105.4</ele>
        <time>2016-10-11T09:01:20Z</time>
      </trkpt>
      <trkpt lat="44.49684" lon="-0.20904">
        <ele>104.92</ele>
        <time>2016-10-11T09:01:33Z</time>
      </trkpt>
      <trkpt lat="44.49678" lon="-0.20907">
        <ele>104.92</ele>
        <time>2016-10-11T09:01:45Z</time>
      </trkpt>
      <trkpt lat="44.4967" lon="-0.2091">
        <ele>104.92</ele>
        <time>2016-10-11T09:01:59Z</time>
      </trkpt>
      <trkpt lat="44.49671" lon="-0.20916">
        <ele>104.92</ele>
        <time>2016-10-11T09:02:11Z</time>
      </trkpt>
      <trkpt lat="44.49672" lon="-0.20923">
        <ele>104.92</ele>
        <time>2016-10-11T09:02:21Z</time>
      </trkpt>
      <trkpt lat="44.4967" lon="-0.20952">
        <ele>104.92</ele>
        <time>2016-10-11T09:02:40Z</time>
      </trkpt>
      <trkpt lat="44.49663" lon="-0.20974">
        <ele>104.92</ele>
        <time>2016-10-11T09:02:57Z</time>
      </trkpt>
      <trkpt lat="44.49655" lon="-0.20981">
        <ele>104.92</ele>
        <time>2016-10-11T09:03:09Z</time>
      </trkpt>
      <trkpt lat="44.49652" lon="-0.20985">
        <ele>104.92</ele>
        <time>2016-10-11T09:03:27Z</time>
      </trkpt>
      <trkpt lat="44.49648" lon="-0.20988">
        <ele>104.92</ele>
        <time>2016-10-11T09:03:38Z</time>
      </trkpt>
      <trkpt lat="44.49635" lon="-0.20989">
        <ele>105.4</ele>
        <time>2016-10-11T09:03:56Z</time>
      </trkpt>
      <trkpt lat="44.49622" lon="-0.20992">
        <ele>105.88</ele>
        <time>2016-10-11T09:04:12Z</time>
      </trkpt>
      <trkpt lat="44.49605" lon="-0.20994">
        <ele>106.36</ele>
        <time>2016-10-11T09:04:26Z</time>
      </trkpt>
      <trkpt lat="44.49592" lon="-0.20996">
        <ele>106.84</ele>
        <time>2016-10-11T09:04:37Z</time>
      </trkpt>
      <trkpt lat="44.49584" lon="-0.21001">
        <ele>107.32</ele>
        <time>2016-10-11T09:04:53Z</time>
      </trkpt>
      <trkpt lat="44.49564" lon="-0.21011">
        <ele>107.81</ele>
        <time>2016-10-11T09:05:12Z</time>
      </trkpt>
      <trkpt lat="44.49551" lon="-0.21013">
        <ele>108.29</ele>
        <time>2016-10-11T09:05:24Z</time>
      </trkpt>
      <trkpt lat="44.49544" lon="-0.21014">
        <ele>108.29</ele>
        <time>2016-10-11T09:05:32Z</time>
      </trkpt>
      <trkpt lat="44.4954" lon="-0.21013">
        <ele>108.29</ele>
        <time>2016-10-11T09:05:34Z</time>
      </trkpt>
      <trkpt lat="44.49521" lon="-0.21014">
        <ele>109.25</ele>
        <time>2016-10-11T09:05:52Z</time>
      </trkpt>
      <trkpt lat="44.49501" lon="-0.21017">
        <ele>109.73</ele>
        <time>2016-10-11T09:06:09Z</time>
      </trkpt>
      <trkpt lat="44.49494" lon="-0.21019">
        <ele>110.21</ele>
        <time>2016-10-11T09:06:25Z</time>
      </trkpt>
      <trkpt lat="44.49492" lon="-0.21019">
        <ele>110.21</ele>
        <time>2016-10-11T09:06:28Z</time>
      </trkpt>
      <trkpt lat="44.49474" lon="-0.21028">
        <ele>111.17</ele>
        <time>2016-10-11T09:06:49Z</time>
      </trkpt>
      <trkpt lat="44.49458" lon="-0.21031">
        <ele>111.17</ele>
        <time>2016-10-11T09:07:04Z</time>
      </trkpt>
      <trkpt lat="44.49444" lon="-0.21033">
        <ele>112.13</ele>
        <time>2016-10-11T09:07:18Z</time>
      </trkpt>
      <trkpt lat="44.49423" lon="-0.21037">
        <ele>113.09</ele>
        <time>2016-10-11T09:07:36Z</time>
      </trkpt>
      <trkpt lat="44.4941" lon="-0.21039">
        <ele>114.05</ele>
        <time>2016-10-11T09:07:49Z</time>
      </trkpt>
      <trkpt lat="44.49394" lon="-0.21042">
        <ele>114.53</ele>
        <time>2016-10-11T09:08:06Z</time>
      </trkpt>
      <trkpt lat="44.49376" lon="-0.21043">
        <ele>115.5</ele>
        <time>2016-10-11T09:08:23Z</time>
      </trkpt>
      <trkpt lat="44.49354" lon="-0.21047">
        <ele>116.46</ele>
        <time>2016-10-11T09:08:42Z</time>
      </trkpt>
      <trkpt lat="44.49334" lon="-0.21056">
        <ele>117.42</ele>
        <time>2016-10-11T09:09:00Z</time>
      </trkpt>
      <trkpt lat="44.49313" lon="-0.21066">
        <ele>117.9</ele>
        <time>2016-10-11T09:09:19Z</time>
      </trkpt>
      <trkpt lat="44.49294" lon="-0.21076">
        <ele>118.86</ele>
        <time>2016-10-11T09:09:37Z</time>
      </trkpt>
      <trkpt lat="44.49273" lon="-0.21089">
        <ele>120.3</ele>
        <time>2016-10-11T09:09:57Z</time>
      </trkpt>
      <trkpt lat="44.49257" lon="-0.21099">
        <ele>120.78</ele>
        <time>2016-10-11T09:10:12Z</time>
      </trkpt>
      <trkpt lat="44.49243" lon="-0.21107">
        <ele>121.74</ele>
        <time>2016-10-11T09:10:26Z</time>
      </trkpt>
      <trkpt lat="44.49239" lon="-0.21112">
        <ele>122.22</ele>
        <time>2016-10-11T09:10:38Z</time>
      </trkpt>
      <trkpt lat="44.49239" lon="-0.21112">
        <ele>122.22</ele>
        <time>2016-10-11T09:10:40Z</time>
      </trkpt>
      <trkpt lat="44.49233" lon="-0.21114">
        <ele>122.22</ele>
        <time>2016-10-11T09:10:46Z</time>
      </trkpt>
      <trkpt lat="44.49208" lon="-0.21123">
        <ele>122.71</ele>
        <time>2016-10-11T09:11:05Z</time>
      </trkpt>
      <trkpt lat="44.4919" lon="-0.2113">
        <ele>123.19</ele>
        <time>2016-10-11T09:11:22Z</time>
      </trkpt>
      <trkpt lat="44.49171" lon="-0.21136">
        <ele>124.15</ele>
        <time>2016-10-11T09:11:39Z</time>
      </trkpt>
      <trkpt lat="44.49149" lon="-0.21143">
        <ele>124.15</ele>
        <time>2016-10-11T09:11:58Z</time>
      </trkpt>
      <trkpt lat="44.49147" lon="-0.21144">
        <ele>124.15</ele>
        <time>2016-10-11T09:12:00Z</time>
      </trkpt>
      <trkpt lat="44.49142" lon="-0.21145">
        <ele>124.15</ele>
        <time>2016-10-11T09:12:04Z</time>
      </trkpt>
      <trkpt lat="44.49121" lon="-0.21151">
        <ele>124.15</ele>
        <time>2016-10-11T09:12:22Z</time>
      </trkpt>
      <trkpt lat="44.49101" lon="-0.21158">
        <ele>124.15</ele>
        <time>2016-10-11T09:12:40Z</time>
      </trkpt>
      <trkpt lat="44.49077" lon="-0.21166">
        <ele>124.15</ele>
        <time>2016-10-11T09:13:00Z</time>
      </trkpt>
      <trkpt lat="44.49056" lon="-0.21173">
        <ele>124.15</ele>
        <time>2016-10-11T09:13:18Z</time>
      </trkpt>
      <trkpt lat="44.49033" lon="-0.21181">
        <ele>124.15</ele>
        <time>2016-10-11T09:13:38Z</time>
      </trkpt>
      <trkpt lat="44.49009" lon="-0.21184">
        <ele>123.67</ele>
        <time>2016-10-11T09:13:58Z</time>
      </trkpt>
      <trkpt lat="44.48986" lon="-0.21183">
        <ele>123.67</ele>
        <time>2016-10-11T09:14:19Z</time>
      </trkpt>
      <trkpt lat="44.48983" lon="-0.21184">
        <ele>123.67</ele>
        <time>2016-10-11T09:14:23Z</time>
      </trkpt>
      <trkpt lat="44.48975" lon="-0.21183">
        <ele>123.67</ele>
        <time>2016-10-11T09:14:30Z</time>
      </trkpt>
      <trkpt lat="44.4895" lon="-0.21176">
        <ele>124.15</ele>
        <time>2016-10-11T09:14:51Z</time>
      </trkpt>
      <trkpt lat="44.4893" lon="-0.21171">
        <ele>124.15</ele>
        <time>2016-10-11T09:15:09Z</time>
      </trkpt>
      <trkpt lat="44.48914" lon="-0.21167">
        <ele>123.67</ele>
        <time>2016-10-11T09:15:25Z</time>
      </trkpt>
      <trkpt lat="44.48894" lon="-0.21166">
        <ele>123.67</ele>
        <time>2016-10-11T09:15:42Z</time>
      </trkpt>
      <trkpt lat="44.48873" lon="-0.21164">
        <ele>123.67</ele>
        <time>2016-10-11T09:16:00Z</time>
      </trkpt>
      <trkpt lat="44.48869" lon="-0.21165">
        <ele>123.67</ele>
        <time>2016-10-11T09:16:04Z</time>
      </trkpt>
      <trkpt lat="44.48858" lon="-0.21157">
        <ele>123.67</ele>
        <time>2016-10-11T09:16:16Z</time>
      </trkpt>
      <trkpt lat="44.48851" lon="-0.2115">
        <ele>124.15</ele>
        <time>2016-10-11T09:16:25Z</time>
      </trkpt>
      <trkpt lat="44.48849" lon="-0.21149">
        <ele>124.15</ele>
        <time>2016-10-11T09:16:27Z</time>
      </trkpt>
      <trkpt lat="44.48833" lon="-0.21133">
        <ele>124.15</ele>
        <time>2016-10-11T09:16:44Z</time>
      </trkpt>
      <trkpt lat="44.48818" lon="-0.21118">
        <ele>124.63</ele>
        <time>2016-10-11T09:17:01Z</time>
      </trkpt>
      <trkpt lat="44.48815" lon="-0.21114">
        <ele>124.63</ele>
        <time>2016-10-11T09:17:05Z</time>
      </trkpt>
      <trkpt lat="44.48802" lon="-0.21099">
        <ele>124.63</ele>
        <time>2016-10-11T09:17:20Z</time>
      </trkpt>
      <trkpt lat="44.48787" lon="-0.21081">
        <ele>124.63</ele>
        <time>2016-10-11T09:17:37Z</time>
      </trkpt>
      <trkpt lat="44.48773" lon="-0.21063">
        <ele>124.63</ele>
        <time>2016-10-11T09:17:54Z</time>
      </trkpt>
      <trkpt lat="44.48758" lon="-0.21046">
        <ele>123.19</ele>
        <time>2016-10-11T09:18:12Z</time>
      </trkpt>
      <trkpt lat="44.48744" lon="-0.21029">
        <ele>122.71</ele>
        <time>2016-10-11T09:18:31Z</time>
      </trkpt>
      <trkpt lat="44.48725" lon="-0.21016">
        <ele>122.71</ele>
        <time>2016-10-11T09:18:48Z</time>
      </trkpt>
      <trkpt lat="44.48696" lon="-0.21004">
        <ele>122.22</ele>
        <time>2016-10-11T09:19:06Z</time>
      </trkpt>
      <trkpt lat="44.48676" lon="-0.2099">
        <ele>121.74</ele>
        <time>2016-10-11T09:19:25Z</time>
      </trkpt>
      <trkpt lat="44.48661" lon="-0.2097">
        <ele>121.26</ele>
        <time>2016-10-11T09:19:45Z</time>
      </trkpt>
      <trkpt lat="44.48645" lon="-0.20949">
        <ele>119.82</ele>
        <time>2016-10-11T09:20:05Z</time>
      </trkpt>
      <trkpt lat="44.48626" lon="-0.20928">
        <ele>119.34</ele>
        <time>2016-10-11T09:20:24Z</time>
      </trkpt>
      <trkpt lat="44.48609" lon="-0.20912">
        <ele>117.9</ele>
        <time>2016-10-11T09:20:41Z</time>
      </trkpt>
      <trkpt lat="44.48594" lon="-0.2089">
        <ele>116.94</ele>
        <time>2016-10-11T09:20:58Z</time>
      </trkpt>
      <trkpt lat="44.48587" lon="-0.20883">
        <ele>116.46</ele>
        <time>2016-10-11T09:21:04Z</time>
      </trkpt>
      <trkpt lat="44.4857" lon="-0.20865">
        <ele>115.98</ele>
        <time>2016-10-11T09:21:21Z</time>
      </trkpt>
      <trkpt lat="44.48555" lon="-0.20846">
        <ele>115.5</ele>
        <time>2016-10-11T09:21:37Z</time>
      </trkpt>
      <trkpt lat="44.48541" lon="-0.20825">
        <ele>115.01</ele>
        <time>2016-10-11T09:21:54Z</time>
      </trkpt>
      <trkpt lat="44.48526" lon="-0.20805">
        <ele>114.53</ele>
        <time>2016-10-11T09:22:11Z</time>
      </trkpt>
      <trkpt lat="44.4851" lon="-0.20787">
        <ele>113.57</ele>
        <time>2016-10-11T09:22:29Z</time>
      </trkpt>
      <trkpt lat="44.48497" lon="-0.20767">
        <ele>113.09</ele>
        <time>2016-10-11T09:22:45Z</time>
      </trkpt>
      <trkpt lat="44.48496" lon="-0.20766">
        <ele>113.09</ele>
        <time>2016-10-11T09:22:46Z</time>
      </trkpt>
      <trkpt lat="44.48483" lon="-0.20748">
        <ele>112.13</ele>
        <time>2016-10-11T09:23:02Z</time>
      </trkpt>
      <trkpt lat="44.48481" lon="-0.20746">
        <ele>112.13</ele>
        <time>2016-10-11T09:23:04Z</time>
      </trkpt>
      <trkpt lat="44.48464" lon="-0.2072">
        <ele>111.17</ele>
        <time>2016-10-11T09:23:25Z</time>
      </trkpt>
      <trkpt lat="44.48446" lon="-0.20698">
        <ele>110.69</ele>
        <time>2016-10-11T09:23:45Z</time>
      </trkpt>
      <trkpt lat="44.4843" lon="-0.20679">
        <ele>110.69</ele>
        <time>2016-10-11T09:24:03Z</time>
      </trkpt>
      <trkpt lat="44.48418" lon="-0.20662">
        <ele>110.21</ele>
        <time>2016-10-11T09:24:19Z</time>
      </trkpt>
      <trkpt lat="44.48407" lon="-0.2065">
        <ele>110.21</ele>
        <time>2016-10-11T09:24:33Z</time>
      </trkpt>
      <trkpt lat="44.48403" lon="-0.20649">
        <ele>109.73</ele>
        <time>2016-10-11T09:24:36Z</time>
      </trkpt>
      <trkpt lat="44.48385" lon="-0.20664">
        <ele>109.73</ele>
        <time>2016-10-11T09:24:53Z</time>
      </trkpt>
      <trkpt lat="44.48376" lon="-0.20678">
        <ele>111.17</ele>
        <time>2016-10-11T09:25:07Z</time>
      </trkpt>
      <trkpt lat="44.48366" lon="-0.20698">
        <ele>111.17</ele>
        <time>2016-10-11T09:25:23Z</time>
      </trkpt>
      <trkpt lat="44.48354" lon="-0.20717">
        <ele>111.17</ele>
        <time>2016-10-11T09:25:39Z</time>
      </trkpt>
      <trkpt lat="44.48347" lon="-0.20729">
        <ele>111.17</ele>
        <time>2016-10-11T09:25:50Z</time>
      </trkpt>
      <trkpt lat="44.48345" lon="-0.20731">
        <ele>111.17</ele>
        <time>2016-10-11T09:25:52Z</time>
      </trkpt>
      <trkpt lat="44.48335" lon="-0.20754">
        <ele>111.17</ele>
        <time>2016-10-11T09:26:10Z</time>
      </trkpt>
      <trkpt lat="44.48324" lon="-0.20776">
        <ele>111.17</ele>
        <time>2016-10-11T09:26:28Z</time>
      </trkpt>
      <trkpt lat="44.48315" lon="-0.20796">
        <ele>111.17</ele>
        <time>2016-10-11T09:26:43Z</time>
      </trkpt>
      <trkpt lat="44.48304" lon="-0.20816">
        <ele>111.17</ele>
        <time>2016-10-11T09:26:59Z</time>
      </trkpt>
      <trkpt lat="44.48289" lon="-0.2084">
        <ele>111.17</ele>
        <time>2016-10-11T09:27:18Z</time>
      </trkpt>
      <trkpt lat="44.48272" lon="-0.20862">
        <ele>110.21</ele>
        <time>2016-10-11T09:27:36Z</time>
      </trkpt>
      <trkpt lat="44.48256" lon="-0.20886">
        <ele>109.73</ele>
        <time>2016-10-11T09:27:54Z</time>
      </trkpt>
      <trkpt lat="44.48238" lon="-0.20904">
        <ele>109.25</ele>
        <time>2016-10-11T09:28:12Z</time>
      </trkpt>
      <trkpt lat="44.48218" lon="-0.20916">
        <ele>108.77</ele>
        <time>2016-10-11T09:28:30Z</time>
      </trkpt>
      <trkpt lat="44.48199" lon="-0.2092">
        <ele>108.29</ele>
        <time>2016-10-11T09:28:47Z</time>
      </trkpt>
      <trkpt lat="44.48178" lon="-0.20922">
        <ele>107.81</ele>
        <time>2016-10-11T09:29:05Z</time>
      </trkpt>
      <trkpt lat="44.4816" lon="-0.20924">
        <ele>107.81</ele>
        <time>2016-10-11T09:29:20Z</time>
      </trkpt>
      <trkpt lat="44.48142" lon="-0.20926">
        <ele>107.32</ele>
        <time>2016-10-11T09:29:35Z</time>
      </trkpt>
      <trkpt lat="44.48124" lon="-0.20928">
        <ele>106.84</ele>
        <time>2016-10-11T09:29:51Z</time>
      </trkpt>
      <trkpt lat="44.48108" lon="-0.20929">
        <ele>106.36</ele>
        <time>2016-10-11T09:30:05Z</time>
      </trkpt>
      <trkpt lat="44.48087" lon="-0.20931">
        <ele>105.88</ele>
        <time>2016-10-11T09:30:22Z</time>
      </trkpt>
      <trkpt lat="44.48069" lon="-0.2093">
        <ele>104.92</ele>
        <time>2016-10-11T09:30:37Z</time>
      </trkpt>
      <trkpt lat="44.48052" lon="-0.20932">
        <ele>104.92</ele>
        <time>2016-10-11T09:30:52Z</time>
      </trkpt>
      <trkpt lat="44.48036" lon="-0.20934">
        <ele>104.44</ele>
        <time>2016-10-11T09:31:06Z</time>
      </trkpt>
      <trkpt lat="44.48017" lon="-0.20936">
        <ele>103.96</ele>
        <time>2016-10-11T09:31:23Z</time>
      </trkpt>
      <trkpt lat="44.47997" lon="-0.20937">
        <ele>103.96</ele>
        <time>2016-10-11T09:31:40Z</time>
      </trkpt>
      <trkpt lat="44.47977" lon="-0.20939">
        <ele>103.48</ele>
        <time>2016-10-11T09:31:58Z</time>
      </trkpt>
      <trkpt lat="44.47958" lon="-0.20939">
        <ele>103</ele>
        <time>2016-10-11T09:32:15Z</time>
      </trkpt>
      <trkpt lat="44.47938" lon="-0.20942">
        <ele>101.56</ele>
        <time>2016-10-11T09:32:33Z</time>
      </trkpt>
      <trkpt lat="44.47916" lon="-0.20943">
        <ele>101.08</ele>
        <time>2016-10-11T09:32:53Z</time>
      </trkpt>
      <trkpt lat="44.47895" lon="-0.20945">
        <ele>100.6</ele>
        <time>2016-10-11T09:33:10Z</time>
      </trkpt>
      <trkpt lat="44.47873" lon="-0.20947">
        <ele>99.15</ele>
        <time>2016-10-11T09:33:28Z</time>
      </trkpt>
      <trkpt lat="44.47851" lon="-0.20949">
        <ele>97.71</ele>
        <time>2016-10-11T09:33:46Z</time>
      </trkpt>
      <trkpt lat="44.47827" lon="-0.20951">
        <ele>96.27</ele>
        <time>2016-10-11T09:34:06Z</time>
      </trkpt>
      <trkpt lat="44.47806" lon="-0.20948">
        <ele>95.79</ele>
        <time>2016-10-11T09:34:24Z</time>
      </trkpt>
      <trkpt lat="44.47791" lon="-0.20938">
        <ele>95.79</ele>
        <time>2016-10-11T09:34:41Z</time>
      </trkpt>
      <trkpt lat="44.47789" lon="-0.20933">
        <ele>95.79</ele>
        <time>2016-10-11T09:34:45Z</time>
      </trkpt>
      <trkpt lat="44.47775" lon="-0.20912">
        <ele>95.79</ele>
        <time>2016-10-11T09:35:04Z</time>
      </trkpt>
      <trkpt lat="44.47774" lon="-0.20909">
        <ele>95.79</ele>
        <time>2016-10-11T09:35:06Z</time>
      </trkpt>
      <trkpt lat="44.47766" lon="-0.20887">
        <ele>97.23</ele>
        <time>2016-10-11T09:35:23Z</time>
      </trkpt>
      <trkpt lat="44.47751" lon="-0.20868">
        <ele>97.23</ele>
        <time>2016-10-11T09:35:38Z</time>
      </trkpt>
      <trkpt lat="44.47738" lon="-0.20849">
        <ele>97.71</ele>
        <time>2016-10-11T09:35:53Z</time>
      </trkpt>
      <trkpt lat="44.47731" lon="-0.20831">
        <ele>98.19</ele>
        <time>2016-10-11T09:36:06Z</time>
      </trkpt>
      <trkpt lat="44.47728" lon="-0.20825">
        <ele>98.19</ele>
        <time>2016-10-11T09:36:11Z</time>
      </trkpt>
      <trkpt lat="44.47717" lon="-0.20804">
        <ele>98.19</ele>
        <time>2016-10-11T09:36:27Z</time>
      </trkpt>
      <trkpt lat="44.47707" lon="-0.20786">
        <ele>98.19</ele>
        <time>2016-10-11T09:36:42Z</time>
      </trkpt>
      <trkpt lat="44.47701" lon="-0.20764">
        <ele>98.19</ele>
        <time>2016-10-11T09:36:58Z</time>
      </trkpt>
      <trkpt lat="44.47701" lon="-0.20763">
        <ele>98.19</ele>
        <time>2016-10-11T09:36:59Z</time>
      </trkpt>
      <trkpt lat="44.47697" lon="-0.20759">
        <ele>98.19</ele>
        <time>2016-10-11T09:37:02Z</time>
      </trkpt>
      <trkpt lat="44.47689" lon="-0.20739">
        <ele>98.19</ele>
        <time>2016-10-11T09:37:17Z</time>
      </trkpt>
      <trkpt lat="44.47688" lon="-0.20735">
        <ele>98.19</ele>
        <time>2016-10-11T09:37:21Z</time>
      </trkpt>
      <trkpt lat="44.4768" lon="-0.20708">
        <ele>98.19</ele>
        <time>2016-10-11T09:37:40Z</time>
      </trkpt>
      <trkpt lat="44.47664" lon="-0.20695">
        <ele>98.67</ele>
        <time>2016-10-11T09:37:54Z</time>
      </trkpt>
      <trkpt lat="44.47635" lon="-0.20691">
        <ele>99.15</ele>
        <time>2016-10-11T09:38:08Z</time>
      </trkpt>
      <trkpt lat="44.47625" lon="-0.20689">
        <ele>99.63</ele>
        <time>2016-10-11T09:38:22Z</time>
      </trkpt>
      <trkpt lat="44.47623" lon="-0.20689">
        <ele>99.63</ele>
        <time>2016-10-11T09:38:23Z</time>
      </trkpt>
      <trkpt lat="44.47615" lon="-0.20687">
        <ele>100.11</ele>
        <time>2016-10-11T09:38:25Z</time>
      </trkpt>
      <trkpt lat="44.47574" lon="-0.20687">
        <ele>100.6</ele>
        <time>2016-10-11T09:38:43Z</time>
      </trkpt>
      <trkpt lat="44.47548" lon="-0.20686">
        <ele>101.56</ele>
        <time>2016-10-11T09:39:02Z</time>
      </trkpt>
      <trkpt lat="44.47525" lon="-0.20686">
        <ele>101.56</ele>
        <time>2016-10-11T09:39:19Z</time>
      </trkpt>
      <trkpt lat="44.47502" lon="-0.20685">
        <ele>102.04</ele>
        <time>2016-10-11T09:39:38Z</time>
      </trkpt>
      <trkpt lat="44.47478" lon="-0.20683">
        <ele>102.04</ele>
        <time>2016-10-11T09:39:57Z</time>
      </trkpt>
      <trkpt lat="44.47459" lon="-0.20679">
        <ele>101.56</ele>
        <time>2016-10-11T09:40:14Z</time>
      </trkpt>
      <trkpt lat="44.47435" lon="-0.20677">
        <ele>101.56</ele>
        <time>2016-10-11T09:40:32Z</time>
      </trkpt>
      <trkpt lat="44.47421" lon="-0.20675">
        <ele>101.56</ele>
        <time>2016-10-11T09:40:45Z</time>
      </trkpt>
      <trkpt lat="44.47404" lon="-0.20674">
        <ele>101.56</ele>
        <time>2016-10-11T09:41:00Z</time>
      </trkpt>
      <trkpt lat="44.47384" lon="-0.20671">
        <ele>101.56</ele>
        <time>2016-10-11T09:41:17Z</time>
      </trkpt>
      <trkpt lat="44.47365" lon="-0.20669">
        <ele>102.04</ele>
        <time>2016-10-11T09:41:33Z</time>
      </trkpt>
      <trkpt lat="44.47347" lon="-0.20664">
        <ele>103.48</ele>
        <time>2016-10-11T09:41:48Z</time>
      </trkpt>
      <trkpt lat="44.47334" lon="-0.20661">
        <ele>103.48</ele>
        <time>2016-10-11T09:42:00Z</time>
      </trkpt>
      <trkpt lat="44.47314" lon="-0.20657">
        <ele>104.44</ele>
        <time>2016-10-11T09:42:17Z</time>
      </trkpt>
      <trkpt lat="44.47295" lon="-0.20652">
        <ele>105.4</ele>
        <time>2016-10-11T09:42:33Z</time>
      </trkpt>
      <trkpt lat="44.47275" lon="-0.20646">
        <ele>106.84</ele>
        <time>2016-10-11T09:42:50Z</time>
      </trkpt>
      <trkpt lat="44.47252" lon="-0.2064">
        <ele>107.81</ele>
        <time>2016-10-11T09:43:09Z</time>
      </trkpt>
      <trkpt lat="44.47233" lon="-0.20635">
        <ele>108.77</ele>
        <time>2016-10-11T09:43:25Z</time>
      </trkpt>
      <trkpt lat="44.47212" lon="-0.2063">
        <ele>109.73</ele>
        <time>2016-10-11T09:43:42Z</time>
      </trkpt>
      <trkpt lat="44.47191" lon="-0.20628">
        <ele>109.73</ele>
        <time>2016-10-11T09:43:59Z</time>
      </trkpt>
      <trkpt lat="44.47174" lon="-0.20624">
        <ele>109.73</ele>
        <time>2016-10-11T09:44:15Z</time>
      </trkpt>
      <trkpt lat="44.47156" lon="-0.20625">
        <ele>109.25</ele>
        <time>2016-10-11T09:44:31Z</time>
      </trkpt>
      <trkpt lat="44.47146" lon="-0.20628">
        <ele>109.25</ele>
        <time>2016-10-11T09:44:43Z</time>
      </trkpt>
      <trkpt lat="44.47141" lon="-0.20626">
        <ele>108.29</ele>
        <time>2016-10-11T09:44:58Z</time>
      </trkpt>
      <trkpt lat="44.47138" lon="-0.20626">
        <ele>108.29</ele>
        <time>2016-10-11T09:45:12Z</time>
      </trkpt>
      <trkpt lat="44.47139" lon="-0.20625">
        <ele>108.29</ele>
        <time>2016-10-11T09:45:42Z</time>
      </trkpt>
      <trkpt lat="44.47137" lon="-0.20625">
        <ele>108.29</ele>
        <time>2016-10-11T09:45:45Z</time>
      </trkpt>
      <trkpt lat="44.47131" lon="-0.20624">
        <ele>107.81</ele>
        <time>2016-10-11T09:45:52Z</time>
      </trkpt>
      <trkpt lat="44.47118" lon="-0.20625">
        <ele>107.32</ele>
        <time>2016-10-11T09:46:10Z</time>
      </trkpt>
      <trkpt lat="44.47106" lon="-0.20626">
        <ele>106.84</ele>
        <time>2016-10-11T09:46:28Z</time>
      </trkpt>
      <trkpt lat="44.47085" lon="-0.2063">
        <ele>106.36</ele>
        <time>2016-10-11T09:46:45Z</time>
      </trkpt>
      <trkpt lat="44.47066" lon="-0.20633">
        <ele>105.88</ele>
        <time>2016-10-11T09:47:01Z</time>
      </trkpt>
      <trkpt lat="44.47049" lon="-0.20641">
        <ele>105.88</ele>
        <time>2016-10-11T09:47:18Z</time>
      </trkpt>
      <trkpt lat="44.47032" lon="-0.2065">
        <ele>105.88</ele>
        <time>2016-10-11T09:47:34Z</time>
      </trkpt>
      <trkpt lat="44.4702" lon="-0.20651">
        <ele>105.4</ele>
        <time>2016-10-11T09:47:50Z</time>
      </trkpt>
      <trkpt lat="44.47018" lon="-0.2065">
        <ele>105.4</ele>
        <time>2016-10-11T09:48:07Z</time>
      </trkpt>
      <trkpt lat="44.47017" lon="-0.20649">
        <ele>105.4</ele>
        <time>2016-10-11T09:48:31Z</time>
      </trkpt>
      <trkpt lat="44.47016" lon="-0.20649">
        <ele>105.4</ele>
        <time>2016-10-11T09:48:54Z</time>
      </trkpt>
      <trkpt lat="44.47016" lon="-0.20649">
        <ele>105.4</ele>
        <time>2016-10-11T09:49:18Z</time>
      </trkpt>
      <trkpt lat="44.47016" lon="-0.20649">
        <ele>105.4</ele>
        <time>2016-10-11T09:49:40Z</time>
      </trkpt>
      <trkpt lat="44.47016" lon="-0.20648">
        <ele>105.4</ele>
        <time>2016-10-11T09:50:10Z</time>
      </trkpt>
      <trkpt lat="44.47016" lon="-0.20647">
        <ele>105.4</ele>
        <time>2016-10-11T09:50:40Z</time>
      </trkpt>
      <trkpt lat="44.47019" lon="-0.20655">
        <ele>105.4</ele>
        <time>2016-10-11T09:50:57Z</time>
      </trkpt>
      <trkpt lat="44.47019" lon="-0.20663">
        <ele>105.4</ele>
        <time>2016-10-11T09:51:04Z</time>
      </trkpt>
      <trkpt lat="44.4702" lon="-0.20675">
        <ele>105.4</ele>
        <time>2016-10-11T09:51:12Z</time>
      </trkpt>
      <trkpt lat="44.47015" lon="-0.20686">
        <ele>105.4</ele>
        <time>2016-10-11T09:51:21Z</time>
      </trkpt>
      <trkpt lat="44.47006" lon="-0.20694">
        <ele>104.92</ele>
        <time>2016-10-11T09:51:37Z</time>
      </trkpt>
      <trkpt lat="44.47001" lon="-0.20693">
        <ele>104.92</ele>
        <time>2016-10-11T09:51:54Z</time>
      </trkpt>
      <trkpt lat="44.46993" lon="-0.20691">
        <ele>103.96</ele>
        <time>2016-10-11T09:52:08Z</time>
      </trkpt>
      <trkpt lat="44.46983" lon="-0.20688">
        <ele>102.52</ele>
        <time>2016-10-11T09:52:20Z</time>
      </trkpt>
      <trkpt lat="44.46976" lon="-0.20688">
        <ele>102.04</ele>
        <time>2016-10-11T09:52:31Z</time>
      </trkpt>
      <trkpt lat="44.46972" lon="-0.20687">
        <ele>102.04</ele>
        <time>2016-10-11T09:52:48Z</time>
      </trkpt>
      <trkpt lat="44.4697" lon="-0.20685">
        <ele>102.04</ele>
        <time>2016-10-11T09:53:06Z</time>
      </trkpt>
      <trkpt lat="44.46967" lon="-0.20684">
        <ele>102.04</ele>
        <time>2016-10-11T09:53:12Z</time>
      </trkpt>
      <trkpt lat="44.46962" lon="-0.20671">
        <ele>101.56</ele>
        <time>2016-10-11T09:53:27Z</time>
      </trkpt>
      <trkpt lat="44.46959" lon="-0.20653">
        <ele>99.15</ele>
        <time>2016-10-11T09:53:44Z</time>
      </trkpt>
      <trkpt lat="44.46955" lon="-0.20654">
        <ele>98.67</ele>
        <time>2016-10-11T09:53:48Z</time>
      </trkpt>
      <trkpt lat="44.46949" lon="-0.20657">
        <ele>98.67</ele>
        <time>2016-10-11T09:53:57Z</time>
      </trkpt>
      <trkpt lat="44.46944" lon="-0.2066">
        <ele>98.19</ele>
        <time>2016-10-11T09:54:03Z</time>
      </trkpt>
      <trkpt lat="44.46924" lon="-0.2067">
        <ele>96.27</ele>
        <time>2016-10-11T09:54:23Z</time>
      </trkpt>
      <trkpt lat="44.46906" lon="-0.20679">
        <ele>94.83</ele>
        <time>2016-10-11T09:54:40Z</time>
      </trkpt>
      <trkpt lat="44.46891" lon="-0.20687">
        <ele>93.39</ele>
        <time>2016-10-11T09:54:56Z</time>
      </trkpt>
      <trkpt lat="44.46874" lon="-0.20694">
        <ele>92.42</ele>
        <time>2016-10-11T09:55:13Z</time>
      </trkpt>
      <trkpt lat="44.46857" lon="-0.20703">
        <ele>90.98</ele>
        <time>2016-10-11T09:55:31Z</time>
      </trkpt>
      <trkpt lat="44.46842" lon="-0.20711">
        <ele>90.02</ele>
        <time>2016-10-11T09:55:47Z</time>
      </trkpt>
      <trkpt lat="44.4684" lon="-0.20712">
        <ele>89.54</ele>
        <time>2016-10-11T09:55:49Z</time>
      </trkpt>
      <trkpt lat="44.46836" lon="-0.20713">
        <ele>89.54</ele>
        <time>2016-10-11T09:55:52Z</time>
      </trkpt>
      <trkpt lat="44.46826" lon="-0.20719">
        <ele>89.06</ele>
        <time>2016-10-11T09:56:01Z</time>
      </trkpt>
      <trkpt lat="44.46824" lon="-0.20721">
        <ele>89.06</ele>
        <time>2016-10-11T09:56:03Z</time>
      </trkpt>
      <trkpt lat="44.46805" lon="-0.20733">
        <ele>88.1</ele>
        <time>2016-10-11T09:56:19Z</time>
      </trkpt>
      <trkpt lat="44.4679" lon="-0.2074">
        <ele>87.62</ele>
        <time>2016-10-11T09:56:34Z</time>
      </trkpt>
      <trkpt lat="44.46768" lon="-0.20747">
        <ele>86.66</ele>
        <time>2016-10-11T09:56:53Z</time>
      </trkpt>
      <trkpt lat="44.46755" lon="-0.20749">
        <ele>86.18</ele>
        <time>2016-10-11T09:57:09Z</time>
      </trkpt>
      <trkpt lat="44.4674" lon="-0.20751">
        <ele>85.21</ele>
        <time>2016-10-11T09:57:26Z</time>
      </trkpt>
      <trkpt lat="44.46722" lon="-0.20751">
        <ele>84.73</ele>
        <time>2016-10-11T09:57:46Z</time>
      </trkpt>
      <trkpt lat="44.46708" lon="-0.2075">
        <ele>84.25</ele>
        <time>2016-10-11T09:58:03Z</time>
      </trkpt>
      <trkpt lat="44.46693" lon="-0.20748">
        <ele>84.25</ele>
        <time>2016-10-11T09:58:20Z</time>
      </trkpt>
      <trkpt lat="44.46667" lon="-0.20752">
        <ele>84.25</ele>
        <time>2016-10-11T09:58:38Z</time>
      </trkpt>
      <trkpt lat="44.46649" lon="-0.20754">
        <ele>84.25</ele>
        <time>2016-10-11T09:58:54Z</time>
      </trkpt>
      <trkpt lat="44.46633" lon="-0.20754">
        <ele>84.73</ele>
        <time>2016-10-11T09:59:05Z</time>
      </trkpt>
      <trkpt lat="44.46613" lon="-0.20749">
        <ele>85.21</ele>
        <time>2016-10-11T09:59:19Z</time>
      </trkpt>
      <trkpt lat="44.46608" lon="-0.2075">
        <ele>85.69</ele>
        <time>2016-10-11T09:59:31Z</time>
      </trkpt>
      <trkpt lat="44.46611" lon="-0.20746">
        <ele>86.18</ele>
        <time>2016-10-11T09:59:39Z</time>
      </trkpt>
      <trkpt lat="44.46612" lon="-0.20745">
        <ele>86.18</ele>
        <time>2016-10-11T09:59:42Z</time>
      </trkpt>
      <trkpt lat="44.46622" lon="-0.20737">
        <ele>86.66</ele>
        <time>2016-10-11T09:59:54Z</time>
      </trkpt>
      <trkpt lat="44.46624" lon="-0.20735">
        <ele>86.66</ele>
        <time>2016-10-11T09:59:56Z</time>
      </trkpt>
      <trkpt lat="44.46642" lon="-0.20725">
        <ele>87.14</ele>
        <time>2016-10-11T10:00:13Z</time>
      </trkpt>
      <trkpt lat="44.46656" lon="-0.20713">
        <ele>87.62</ele>
        <time>2016-10-11T10:00:27Z</time>
      </trkpt>
      <trkpt lat="44.46666" lon="-0.20701">
        <ele>88.1</ele>
        <time>2016-10-11T10:00:38Z</time>
      </trkpt>
      <trkpt lat="44.46673" lon="-0.20689">
        <ele>88.58</ele>
        <time>2016-10-11T10:00:53Z</time>
      </trkpt>
      <trkpt lat="44.46681" lon="-0.20673">
        <ele>90.02</ele>
        <time>2016-10-11T10:01:06Z</time>
      </trkpt>
      <trkpt lat="44.46688" lon="-0.2065">
        <ele>91.46</ele>
        <time>2016-10-11T10:01:21Z</time>
      </trkpt>
      <trkpt lat="44.46693" lon="-0.20631">
        <ele>92.42</ele>
        <time>2016-10-11T10:01:35Z</time>
      </trkpt>
      <trkpt lat="44.46702" lon="-0.20603">
        <ele>93.39</ele>
        <time>2016-10-11T10:01:50Z</time>
      </trkpt>
      <trkpt lat="44.46709" lon="-0.20585">
        <ele>93.87</ele>
        <time>2016-10-11T10:02:01Z</time>
      </trkpt>
      <trkpt lat="44.46714" lon="-0.20569">
        <ele>93.87</ele>
        <time>2016-10-11T10:02:16Z</time>
      </trkpt>
      <trkpt lat="44.46722" lon="-0.20543">
        <ele>94.35</ele>
        <time>2016-10-11T10:02:35Z</time>
      </trkpt>
      <trkpt lat="44.46725" lon="-0.20519">
        <ele>95.31</ele>
        <time>2016-10-11T10:02:51Z</time>
      </trkpt>
      <trkpt lat="44.46725" lon="-0.20495">
        <ele>96.75</ele>
        <time>2016-10-11T10:03:10Z</time>
      </trkpt>
      <trkpt lat="44.46727" lon="-0.20468">
        <ele>98.19</ele>
        <time>2016-10-11T10:03:28Z</time>
      </trkpt>
      <trkpt lat="44.46732" lon="-0.20446">
        <ele>98.67</ele>
        <time>2016-10-11T10:03:40Z</time>
      </trkpt>
      <trkpt lat="44.46734" lon="-0.20426">
        <ele>99.63</ele>
        <time>2016-10-11T10:03:53Z</time>
      </trkpt>
      <trkpt lat="44.46732" lon="-0.2041">
        <ele>100.6</ele>
        <time>2016-10-11T10:04:05Z</time>
      </trkpt>
      <trkpt lat="44.46736" lon="-0.20387">
        <ele>101.56</ele>
        <time>2016-10-11T10:04:19Z</time>
      </trkpt>
      <trkpt lat="44.46737" lon="-0.20366">
        <ele>101.56</ele>
        <time>2016-10-11T10:04:38Z</time>
      </trkpt>
      <trkpt lat="44.46746" lon="-0.2033">
        <ele>102.04</ele>
        <time>2016-10-11T10:04:57Z</time>
      </trkpt>
      <trkpt lat="44.46752" lon="-0.20314">
        <ele>102.52</ele>
        <time>2016-10-11T10:05:14Z</time>
      </trkpt>
      <trkpt lat="44.46764" lon="-0.20288">
        <ele>103</ele>
        <time>2016-10-11T10:05:31Z</time>
      </trkpt>
      <trkpt lat="44.46772" lon="-0.2026">
        <ele>103.48</ele>
        <time>2016-10-11T10:05:45Z</time>
      </trkpt>
      <trkpt lat="44.46779" lon="-0.20229">
        <ele>102.04</ele>
        <time>2016-10-11T10:06:03Z</time>
      </trkpt>
      <trkpt lat="44.46782" lon="-0.20223">
        <ele>101.56</ele>
        <time>2016-10-11T10:06:06Z</time>
      </trkpt>
      <trkpt lat="44.46782" lon="-0.20204">
        <ele>101.08</ele>
        <time>2016-10-11T10:06:23Z</time>
      </trkpt>
      <trkpt lat="44.46781" lon="-0.20182">
        <ele>101.08</ele>
        <time>2016-10-11T10:06:38Z</time>
      </trkpt>
      <trkpt lat="44.46781" lon="-0.20169">
        <ele>101.08</ele>
        <time>2016-10-11T10:06:49Z</time>
      </trkpt>
      <trkpt lat="44.46779" lon="-0.20147">
        <ele>101.56</ele>
        <time>2016-10-11T10:07:05Z</time>
      </trkpt>
      <trkpt lat="44.4678" lon="-0.20135">
        <ele>102.52</ele>
        <time>2016-10-11T10:07:14Z</time>
      </trkpt>
      <trkpt lat="44.46776" lon="-0.20106">
        <ele>104.44</ele>
        <time>2016-10-11T10:07:31Z</time>
      </trkpt>
      <trkpt lat="44.46771" lon="-0.20077">
        <ele>104.92</ele>
        <time>2016-10-11T10:07:47Z</time>
      </trkpt>
      <trkpt lat="44.46763" lon="-0.20052">
        <ele>106.36</ele>
        <time>2016-10-11T10:08:03Z</time>
      </trkpt>
      <trkpt lat="44.46758" lon="-0.2002">
        <ele>107.32</ele>
        <time>2016-10-11T10:08:20Z</time>
      </trkpt>
      <trkpt lat="44.46759" lon="-0.20011">
        <ele>107.32</ele>
        <time>2016-10-11T10:08:24Z</time>
      </trkpt>
      <trkpt lat="44.46754" lon="-0.20001">
        <ele>107.32</ele>
        <time>2016-10-11T10:08:30Z</time>
      </trkpt>
      <trkpt lat="44.46747" lon="-0.19991">
        <ele>107.32</ele>
        <time>2016-10-11T10:08:37Z</time>
      </trkpt>
      <trkpt lat="44.46732" lon="-0.19968">
        <ele>107.81</ele>
        <time>2016-10-11T10:08:55Z</time>
      </trkpt>
      <trkpt lat="44.4672" lon="-0.19947">
        <ele>106.84</ele>
        <time>2016-10-11T10:09:11Z</time>
      </trkpt>
      <trkpt lat="44.46703" lon="-0.19935">
        <ele>106.84</ele>
        <time>2016-10-11T10:09:26Z</time>
      </trkpt>
      <trkpt lat="44.46688" lon="-0.19905">
        <ele>107.32</ele>
        <time>2016-10-11T10:09:43Z</time>
      </trkpt>
      <trkpt lat="44.46675" lon="-0.19886">
        <ele>107.32</ele>
        <time>2016-10-11T10:09:58Z</time>
      </trkpt>
      <trkpt lat="44.46686" lon="-0.19863">
        <ele>107.81</ele>
        <time>2016-10-11T10:10:06Z</time>
      </trkpt>
      <trkpt lat="44.46696" lon="-0.19858">
        <ele>107.81</ele>
        <time>2016-10-11T10:10:12Z</time>
      </trkpt>
      <trkpt lat="44.4671" lon="-0.19856">
        <ele>107.32</ele>
        <time>2016-10-11T10:10:27Z</time>
      </trkpt>
      <trkpt lat="44.46725" lon="-0.19864">
        <ele>105.88</ele>
        <time>2016-10-11T10:10:45Z</time>
      </trkpt>
      <trkpt lat="44.46727" lon="-0.19865">
        <ele>105.4</ele>
        <time>2016-10-11T10:10:47Z</time>
      </trkpt>
      <trkpt lat="44.46744" lon="-0.19877">
        <ele>104.44</ele>
        <time>2016-10-11T10:11:03Z</time>
      </trkpt>
      <trkpt lat="44.46748" lon="-0.19879">
        <ele>103.96</ele>
        <time>2016-10-11T10:11:06Z</time>
      </trkpt>
      <trkpt lat="44.46767" lon="-0.19883">
        <ele>103</ele>
        <time>2016-10-11T10:11:22Z</time>
      </trkpt>
      <trkpt lat="44.46783" lon="-0.19873">
        <ele>102.52</ele>
        <time>2016-10-11T10:11:40Z</time>
      </trkpt>
      <trkpt lat="44.46793" lon="-0.19869">
        <ele>101.56</ele>
        <time>2016-10-11T10:11:55Z</time>
      </trkpt>
      <trkpt lat="44.46813" lon="-0.19849">
        <ele>101.56</ele>
        <time>2016-10-11T10:12:12Z</time>
      </trkpt>
      <trkpt lat="44.46825" lon="-0.19839">
        <ele>100.6</ele>
        <time>2016-10-11T10:12:23Z</time>
      </trkpt>
      <trkpt lat="44.46839" lon="-0.19825">
        <ele>100.6</ele>
        <time>2016-10-11T10:12:33Z</time>
      </trkpt>
      <trkpt lat="44.46859" lon="-0.19806">
        <ele>99.63</ele>
        <time>2016-10-11T10:12:50Z</time>
      </trkpt>
      <trkpt lat="44.46873" lon="-0.19789">
        <ele>99.15</ele>
        <time>2016-10-11T10:13:05Z</time>
      </trkpt>
      <trkpt lat="44.46883" lon="-0.19774">
        <ele>98.19</ele>
        <time>2016-10-11T10:13:23Z</time>
      </trkpt>
      <trkpt lat="44.46898" lon="-0.19752">
        <ele>96.75</ele>
        <time>2016-10-11T10:13:40Z</time>
      </trkpt>
      <trkpt lat="44.46909" lon="-0.19734">
        <ele>96.27</ele>
        <time>2016-10-11T10:14:00Z</time>
      </trkpt>
      <trkpt lat="44.46923" lon="-0.19721">
        <ele>95.79</ele>
        <time>2016-10-11T10:14:17Z</time>
      </trkpt>
      <trkpt lat="44.46935" lon="-0.19708">
        <ele>94.83</ele>
        <time>2016-10-11T10:14:33Z</time>
      </trkpt>
      <trkpt lat="44.46947" lon="-0.19697">
        <ele>94.35</ele>
        <time>2016-10-11T10:14:50Z</time>
      </trkpt>
      <trkpt lat="44.46956" lon="-0.19688">
        <ele>93.39</ele>
        <time>2016-10-11T10:15:07Z</time>
      </trkpt>
      <trkpt lat="44.46966" lon="-0.19672">
        <ele>92.9</ele>
        <time>2016-10-11T10:15:24Z</time>
      </trkpt>
      <trkpt lat="44.46981" lon="-0.19654">
        <ele>91.94</ele>
        <time>2016-10-11T10:15:40Z</time>
      </trkpt>
      <trkpt lat="44.46991" lon="-0.19643">
        <ele>91.94</ele>
        <time>2016-10-11T10:15:57Z</time>
      </trkpt>
      <trkpt lat="44.47015" lon="-0.1962">
        <ele>90.98</ele>
        <time>2016-10-11T10:16:13Z</time>
      </trkpt>
      <trkpt lat="44.47035" lon="-0.19597">
        <ele>90.5</ele>
        <time>2016-10-11T10:16:29Z</time>
      </trkpt>
      <trkpt lat="44.47053" lon="-0.1958">
        <ele>90.5</ele>
        <time>2016-10-11T10:16:45Z</time>
      </trkpt>
      <trkpt lat="44.47075" lon="-0.19558">
        <ele>89.54</ele>
        <time>2016-10-11T10:17:03Z</time>
      </trkpt>
      <trkpt lat="44.47087" lon="-0.19542">
        <ele>89.06</ele>
        <time>2016-10-11T10:17:17Z</time>
      </trkpt>
      <trkpt lat="44.47101" lon="-0.19523">
        <ele>88.1</ele>
        <time>2016-10-11T10:17:33Z</time>
      </trkpt>
      <trkpt lat="44.47114" lon="-0.19507">
        <ele>86.66</ele>
        <time>2016-10-11T10:17:48Z</time>
      </trkpt>
      <trkpt lat="44.47124" lon="-0.19495">
        <ele>86.18</ele>
        <time>2016-10-11T10:18:07Z</time>
      </trkpt>
      <trkpt lat="44.47138" lon="-0.19464">
        <ele>85.69</ele>
        <time>2016-10-11T10:18:23Z</time>
      </trkpt>
      <trkpt lat="44.47156" lon="-0.19439">
        <ele>84.73</ele>
        <time>2016-10-11T10:18:40Z</time>
      </trkpt>
      <trkpt lat="44.47165" lon="-0.19418">
        <ele>84.73</ele>
        <time>2016-10-11T10:18:55Z</time>
      </trkpt>
      <trkpt lat="44.47172" lon="-0.19406">
        <ele>84.73</ele>
        <time>2016-10-11T10:19:06Z</time>
      </trkpt>
      <trkpt lat="44.47173" lon="-0.19404">
        <ele>84.73</ele>
        <time>2016-10-11T10:19:07Z</time>
      </trkpt>
      <trkpt lat="44.47189" lon="-0.19378">
        <ele>84.73</ele>
        <time>2016-10-11T10:19:26Z</time>
      </trkpt>
      <trkpt lat="44.47203" lon="-0.19356">
        <ele>84.73</ele>
        <time>2016-10-11T10:19:43Z</time>
      </trkpt>
      <trkpt lat="44.47217" lon="-0.19331">
        <ele>84.73</ele>
        <time>2016-10-11T10:19:59Z</time>
      </trkpt>
      <trkpt lat="44.4723" lon="-0.19309">
        <ele>84.73</ele>
        <time>2016-10-11T10:20:16Z</time>
      </trkpt>
      <trkpt lat="44.47244" lon="-0.19288">
        <ele>84.73</ele>
        <time>2016-10-11T10:20:30Z</time>
      </trkpt>
      <trkpt lat="44.47261" lon="-0.19263">
        <ele>86.18</ele>
        <time>2016-10-11T10:20:48Z</time>
      </trkpt>
      <trkpt lat="44.47279" lon="-0.19242">
        <ele>87.14</ele>
        <time>2016-10-11T10:21:07Z</time>
      </trkpt>
      <trkpt lat="44.473" lon="-0.19237">
        <ele>88.1</ele>
        <time>2016-10-11T10:21:24Z</time>
      </trkpt>
      <trkpt lat="44.47329" lon="-0.19222">
        <ele>89.06</ele>
        <time>2016-10-11T10:21:39Z</time>
      </trkpt>
      <trkpt lat="44.47351" lon="-0.19224">
        <ele>90.98</ele>
        <time>2016-10-11T10:21:55Z</time>
      </trkpt>
      <trkpt lat="44.47362" lon="-0.19222">
        <ele>92.9</ele>
        <time>2016-10-11T10:22:07Z</time>
      </trkpt>
      <trkpt lat="44.47369" lon="-0.19226">
        <ele>93.87</ele>
        <time>2016-10-11T10:22:20Z</time>
      </trkpt>
      <trkpt lat="44.47377" lon="-0.19259">
        <ele>95.79</ele>
        <time>2016-10-11T10:22:35Z</time>
      </trkpt>
      <trkpt lat="44.47374" lon="-0.19269">
        <ele>96.27</ele>
        <time>2016-10-11T10:22:49Z</time>
      </trkpt>
      <trkpt lat="44.47371" lon="-0.19278">
        <ele>97.23</ele>
        <time>2016-10-11T10:22:58Z</time>
      </trkpt>
      <trkpt lat="44.47371" lon="-0.19281">
        <ele>97.23</ele>
        <time>2016-10-11T10:23:00Z</time>
      </trkpt>
      <trkpt lat="44.4737" lon="-0.19303">
        <ele>98.67</ele>
        <time>2016-10-11T10:23:14Z</time>
      </trkpt>
      <trkpt lat="44.47364" lon="-0.19318">
        <ele>99.15</ele>
        <time>2016-10-11T10:23:27Z</time>
      </trkpt>
      <trkpt lat="44.47361" lon="-0.19339">
        <ele>100.6</ele>
        <time>2016-10-11T10:23:43Z</time>
      </trkpt>
      <trkpt lat="44.47369" lon="-0.19368">
        <ele>102.04</ele>
        <time>2016-10-11T10:23:58Z</time>
      </trkpt>
      <trkpt lat="44.47373" lon="-0.19391">
        <ele>103.48</ele>
        <time>2016-10-11T10:24:13Z</time>
      </trkpt>
      <trkpt lat="44.47382" lon="-0.19413">
        <ele>104.44</ele>
        <time>2016-10-11T10:24:27Z</time>
      </trkpt>
      <trkpt lat="44.47385" lon="-0.19437">
        <ele>105.88</ele>
        <time>2016-10-11T10:24:44Z</time>
      </trkpt>
      <trkpt lat="44.47383" lon="-0.19456">
        <ele>106.84</ele>
        <time>2016-10-11T10:25:00Z</time>
      </trkpt>
      <trkpt lat="44.47383" lon="-0.19474">
        <ele>107.81</ele>
        <time>2016-10-11T10:25:13Z</time>
      </trkpt>
      <trkpt lat="44.47383" lon="-0.19494">
        <ele>108.77</ele>
        <time>2016-10-11T10:25:30Z</time>
      </trkpt>
      <trkpt lat="44.47382" lon="-0.19501">
        <ele>109.25</ele>
        <time>2016-10-11T10:25:41Z</time>
      </trkpt>
      <trkpt lat="44.47383" lon="-0.19504">
        <ele>109.25</ele>
        <time>2016-10-11T10:25:44Z</time>
      </trkpt>
      <trkpt lat="44.47386" lon="-0.19524">
        <ele>110.21</ele>
        <time>2016-10-11T10:25:59Z</time>
      </trkpt>
      <trkpt lat="44.47386" lon="-0.19533">
        <ele>111.17</ele>
        <time>2016-10-11T10:26:13Z</time>
      </trkpt>
      <trkpt lat="44.47387" lon="-0.19535">
        <ele>111.17</ele>
        <time>2016-10-11T10:26:16Z</time>
      </trkpt>
      <trkpt lat="44.47393" lon="-0.19546">
        <ele>111.65</ele>
        <time>2016-10-11T10:26:23Z</time>
      </trkpt>
      <trkpt lat="44.47414" lon="-0.19581">
        <ele>114.05</ele>
        <time>2016-10-11T10:26:38Z</time>
      </trkpt>
      <trkpt lat="44.47421" lon="-0.19585">
        <ele>114.53</ele>
        <time>2016-10-11T10:26:43Z</time>
      </trkpt>
      <trkpt lat="44.47432" lon="-0.19595">
        <ele>115.5</ele>
        <time>2016-10-11T10:26:48Z</time>
      </trkpt>
      <trkpt lat="44.47455" lon="-0.19625">
        <ele>116.94</ele>
        <time>2016-10-11T10:27:03Z</time>
      </trkpt>
      <trkpt lat="44.47458" lon="-0.19601">
        <ele>117.42</ele>
        <time>2016-10-11T10:27:20Z</time>
      </trkpt>
      <trkpt lat="44.4746" lon="-0.19571">
        <ele>118.38</ele>
        <time>2016-10-11T10:27:37Z</time>
      </trkpt>
      <trkpt lat="44.47454" lon="-0.19543">
        <ele>119.34</ele>
        <time>2016-10-11T10:27:53Z</time>
      </trkpt>
      <trkpt lat="44.47454" lon="-0.19517">
        <ele>120.3</ele>
        <time>2016-10-11T10:28:11Z</time>
      </trkpt>
      <trkpt lat="44.47453" lon="-0.19499">
        <ele>120.78</ele>
        <time>2016-10-11T10:28:25Z</time>
      </trkpt>
      <trkpt lat="44.47453" lon="-0.19477">
        <ele>122.22</ele>
        <time>2016-10-11T10:28:40Z</time>
      </trkpt>
      <trkpt lat="44.47452" lon="-0.19461">
        <ele>123.67</ele>
        <time>2016-10-11T10:28:56Z</time>
      </trkpt>
      <trkpt lat="44.47449" lon="-0.19444">
        <ele>125.11</ele>
        <time>2016-10-11T10:29:12Z</time>
      </trkpt>
      <trkpt lat="44.47448" lon="-0.19427">
        <ele>126.07</ele>
        <time>2016-10-11T10:29:28Z</time>
      </trkpt>
      <trkpt lat="44.4745" lon="-0.19413">
        <ele>127.99</ele>
        <time>2016-10-11T10:29:41Z</time>
      </trkpt>
      <trkpt lat="44.47465" lon="-0.19399">
        <ele>129.43</ele>
        <time>2016-10-11T10:29:55Z</time>
      </trkpt>
      <trkpt lat="44.47492" lon="-0.19392">
        <ele>130.88</ele>
        <time>2016-10-11T10:30:14Z</time>
      </trkpt>
      <trkpt lat="44.47524" lon="-0.19367">
        <ele>132.32</ele>
        <time>2016-10-11T10:30:29Z</time>
      </trkpt>
      <trkpt lat="44.4755" lon="-0.19352">
        <ele>133.28</ele>
        <time>2016-10-11T10:30:44Z</time>
      </trkpt>
      <trkpt lat="44.47576" lon="-0.19349">
        <ele>134.72</ele>
        <time>2016-10-11T10:31:01Z</time>
      </trkpt>
      <trkpt lat="44.47607" lon="-0.19344">
        <ele>136.64</ele>
        <time>2016-10-11T10:31:20Z</time>
      </trkpt>
      <trkpt lat="44.47625" lon="-0.1934">
        <ele>137.13</ele>
        <time>2016-10-11T10:31:34Z</time>
      </trkpt>
      <trkpt lat="44.47649" lon="-0.19337">
        <ele>138.57</ele>
        <time>2016-10-11T10:31:53Z</time>
      </trkpt>
      <trkpt lat="44.47673" lon="-0.19335">
        <ele>139.53</ele>
        <time>2016-10-11T10:32:11Z</time>
      </trkpt>
      <trkpt lat="44.47698" lon="-0.19337">
        <ele>140.49</ele>
        <time>2016-10-11T10:32:31Z</time>
      </trkpt>
      <trkpt lat="44.4772" lon="-0.1934">
        <ele>140.49</ele>
        <time>2016-10-11T10:32:50Z</time>
      </trkpt>
      <trkpt lat="44.47739" lon="-0.19341">
        <ele>140.49</ele>
        <time>2016-10-11T10:33:06Z</time>
      </trkpt>
      <trkpt lat="44.4776" lon="-0.19343">
        <ele>140.49</ele>
        <time>2016-10-11T10:33:23Z</time>
      </trkpt>
      <trkpt lat="44.47784" lon="-0.19346">
        <ele>140.01</ele>
        <time>2016-10-11T10:33:42Z</time>
      </trkpt>
      <trkpt lat="44.47803" lon="-0.19339">
        <ele>139.53</ele>
        <time>2016-10-11T10:34:00Z</time>
      </trkpt>
      <trkpt lat="44.478" lon="-0.19316">
        <ele>139.53</ele>
        <time>2016-10-11T10:34:17Z</time>
      </trkpt>
      <trkpt lat="44.478" lon="-0.19315">
        <ele>137.61</ele>
        <time>2016-10-11T10:34:57Z</time>
      </trkpt>
      <trkpt lat="44.478" lon="-0.19315">
        <ele>137.61</ele>
        <time>2016-10-11T10:35:16Z</time>
      </trkpt>
      <trkpt lat="44.47797" lon="-0.19315">
        <ele>137.13</ele>
        <time>2016-10-11T10:35:22Z</time>
      </trkpt>
      <trkpt lat="44.47793" lon="-0.19318">
        <ele>137.13</ele>
        <time>2016-10-11T10:35:39Z</time>
      </trkpt>
      <trkpt lat="44.47796" lon="-0.19326">
        <ele>136.64</ele>
        <time>2016-10-11T10:35:54Z</time>
      </trkpt>
      <trkpt lat="44.47797" lon="-0.19331">
        <ele>136.16</ele>
        <time>2016-10-11T10:36:18Z</time>
      </trkpt>
      <trkpt lat="44.47801" lon="-0.19342">
        <ele>136.16</ele>
        <time>2016-10-11T10:36:32Z</time>
      </trkpt>
      <trkpt lat="44.47803" lon="-0.19344">
        <ele>135.68</ele>
        <time>2016-10-11T10:36:56Z</time>
      </trkpt>
      <trkpt lat="44.47803" lon="-0.19344">
        <ele>135.68</ele>
        <time>2016-10-11T10:37:11Z</time>
      </trkpt>
      <trkpt lat="44.47804" lon="-0.1934">
        <ele>135.2</ele>
        <time>2016-10-11T10:37:25Z</time>
      </trkpt>
      <trkpt lat="44.47802" lon="-0.19328">
        <ele>135.2</ele>
        <time>2016-10-11T10:37:35Z</time>
      </trkpt>
      <trkpt lat="44.47795" lon="-0.19299">
        <ele>134.72</ele>
        <time>2016-10-11T10:37:54Z</time>
      </trkpt>
      <trkpt lat="44.47789" lon="-0.19274">
        <ele>134.72</ele>
        <time>2016-10-11T10:38:11Z</time>
      </trkpt>
      <trkpt lat="44.47782" lon="-0.19248">
        <ele>134.24</ele>
        <time>2016-10-11T10:38:29Z</time>
      </trkpt>
      <trkpt lat="44.47776" lon="-0.19226">
        <ele>134.24</ele>
        <time>2016-10-11T10:38:43Z</time>
      </trkpt>
      <trkpt lat="44.47773" lon="-0.19215">
        <ele>134.24</ele>
        <time>2016-10-11T10:38:50Z</time>
      </trkpt>
      <trkpt lat="44.47765" lon="-0.19182">
        <ele>133.76</ele>
        <time>2016-10-11T10:39:10Z</time>
      </trkpt>
      <trkpt lat="44.47758" lon="-0.19149">
        <ele>133.76</ele>
        <time>2016-10-11T10:39:31Z</time>
      </trkpt>
      <trkpt lat="44.47756" lon="-0.19119">
        <ele>133.28</ele>
        <time>2016-10-11T10:39:49Z</time>
      </trkpt>
      <trkpt lat="44.47756" lon="-0.1911">
        <ele>133.28</ele>
        <time>2016-10-11T10:39:55Z</time>
      </trkpt>
      <trkpt lat="44.47757" lon="-0.19082">
        <ele>132.8</ele>
        <time>2016-10-11T10:40:11Z</time>
      </trkpt>
      <trkpt lat="44.4776" lon="-0.19055">
        <ele>132.32</ele>
        <time>2016-10-11T10:40:28Z</time>
      </trkpt>
      <trkpt lat="44.47761" lon="-0.1902">
        <ele>131.84</ele>
        <time>2016-10-11T10:40:48Z</time>
      </trkpt>
      <trkpt lat="44.47764" lon="-0.18988">
        <ele>131.36</ele>
        <time>2016-10-11T10:41:07Z</time>
      </trkpt>
      <trkpt lat="44.47766" lon="-0.18959">
        <ele>130.4</ele>
        <time>2016-10-11T10:41:24Z</time>
      </trkpt>
      <trkpt lat="44.47764" lon="-0.1893">
        <ele>128.95</ele>
        <time>2016-10-11T10:41:41Z</time>
      </trkpt>
      <trkpt lat="44.47761" lon="-0.18901">
        <ele>127.99</ele>
        <time>2016-10-11T10:41:58Z</time>
      </trkpt>
      <trkpt lat="44.47758" lon="-0.18868">
        <ele>127.51</ele>
        <time>2016-10-11T10:42:18Z</time>
      </trkpt>
      <trkpt lat="44.47751" lon="-0.18837">
        <ele>127.03</ele>
        <time>2016-10-11T10:42:36Z</time>
      </trkpt>
      <trkpt lat="44.47747" lon="-0.18806">
        <ele>126.55</ele>
        <time>2016-10-11T10:42:54Z</time>
      </trkpt>
      <trkpt lat="44.47746" lon="-0.18778">
        <ele>126.07</ele>
        <time>2016-10-11T10:43:10Z</time>
      </trkpt>
      <trkpt lat="44.47744" lon="-0.18748">
        <ele>124.63</ele>
        <time>2016-10-11T10:43:28Z</time>
      </trkpt>
      <trkpt lat="44.47743" lon="-0.18723">
        <ele>124.15</ele>
        <time>2016-10-11T10:43:43Z</time>
      </trkpt>
      <trkpt lat="44.47741" lon="-0.187">
        <ele>123.19</ele>
        <time>2016-10-11T10:43:57Z</time>
      </trkpt>
      <trkpt lat="44.47741" lon="-0.18691">
        <ele>123.19</ele>
        <time>2016-10-11T10:44:02Z</time>
      </trkpt>
      <trkpt lat="44.47739" lon="-0.18665">
        <ele>122.22</ele>
        <time>2016-10-11T10:44:19Z</time>
      </trkpt>
      <trkpt lat="44.47735" lon="-0.18631">
        <ele>121.74</ele>
        <time>2016-10-11T10:44:38Z</time>
      </trkpt>
      <trkpt lat="44.47731" lon="-0.18605">
        <ele>120.78</ele>
        <time>2016-10-11T10:44:53Z</time>
      </trkpt>
      <trkpt lat="44.47724" lon="-0.18574">
        <ele>120.3</ele>
        <time>2016-10-11T10:45:12Z</time>
      </trkpt>
      <trkpt lat="44.47717" lon="-0.18547">
        <ele>119.34</ele>
        <time>2016-10-11T10:45:28Z</time>
      </trkpt>
      <trkpt lat="44.47712" lon="-0.1852">
        <ele>118.38</ele>
        <time>2016-10-11T10:45:45Z</time>
      </trkpt>
      <trkpt lat="44.47703" lon="-0.18488">
        <ele>117.9</ele>
        <time>2016-10-11T10:46:04Z</time>
      </trkpt>
      <trkpt lat="44.47695" lon="-0.18463">
        <ele>116.94</ele>
        <time>2016-10-11T10:46:22Z</time>
      </trkpt>
      <trkpt lat="44.47685" lon="-0.18436">
        <ele>115.98</ele>
        <time>2016-10-11T10:46:41Z</time>
      </trkpt>
      <trkpt lat="44.47674" lon="-0.18412">
        <ele>115.01</ele>
        <time>2016-10-11T10:46:58Z</time>
      </trkpt>
      <trkpt lat="44.47664" lon="-0.18383">
        <ele>113.57</ele>
        <time>2016-10-11T10:47:17Z</time>
      </trkpt>
      <trkpt lat="44.47655" lon="-0.18352">
        <ele>112.13</ele>
        <time>2016-10-11T10:47:37Z</time>
      </trkpt>
      <trkpt lat="44.47649" lon="-0.18324">
        <ele>112.13</ele>
        <time>2016-10-11T10:47:53Z</time>
      </trkpt>
      <trkpt lat="44.47643" lon="-0.18296">
        <ele>111.65</ele>
        <time>2016-10-11T10:48:10Z</time>
      </trkpt>
      <trkpt lat="44.4764" lon="-0.18274">
        <ele>111.17</ele>
        <time>2016-10-11T10:48:26Z</time>
      </trkpt>
      <trkpt lat="44.47638" lon="-0.18251">
        <ele>109.25</ele>
        <time>2016-10-11T10:48:44Z</time>
      </trkpt>
      <trkpt lat="44.47635" lon="-0.18232">
        <ele>108.29</ele>
        <time>2016-10-11T10:49:00Z</time>
      </trkpt>
      <trkpt lat="44.47633" lon="-0.18208">
        <ele>107.81</ele>
        <time>2016-10-11T10:49:16Z</time>
      </trkpt>
      <trkpt lat="44.47632" lon="-0.18189">
        <ele>107.32</ele>
        <time>2016-10-11T10:49:32Z</time>
      </trkpt>
      <trkpt lat="44.4763" lon="-0.18179">
        <ele>106.84</ele>
        <time>2016-10-11T10:49:54Z</time>
      </trkpt>
      <trkpt lat="44.47629" lon="-0.18172">
        <ele>106.84</ele>
        <time>2016-10-11T10:50:24Z</time>
      </trkpt>
      <trkpt lat="44.47628" lon="-0.1817">
        <ele>106.36</ele>
        <time>2016-10-11T10:50:54Z</time>
      </trkpt>
      <trkpt lat="44.47625" lon="-0.18169">
        <ele>106.36</ele>
        <time>2016-10-11T10:51:32Z</time>
      </trkpt>
      <trkpt lat="44.47624" lon="-0.18175">
        <ele>105.88</ele>
        <time>2016-10-11T10:51:49Z</time>
      </trkpt>
      <trkpt lat="44.47629" lon="-0.18161">
        <ele>105.4</ele>
        <time>2016-10-11T10:52:07Z</time>
      </trkpt>
      <trkpt lat="44.47623" lon="-0.18145">
        <ele>104.92</ele>
        <time>2016-10-11T10:52:24Z</time>
      </trkpt>
      <trkpt lat="44.47626" lon="-0.18125">
        <ele>104.44</ele>
        <time>2016-10-11T10:52:40Z</time>
      </trkpt>
      <trkpt lat="44.47624" lon="-0.18109">
        <ele>103</ele>
        <time>2016-10-11T10:52:56Z</time>
      </trkpt>
      <trkpt lat="44.4762" lon="-0.18083">
        <ele>102.04</ele>
        <time>2016-10-11T10:53:14Z</time>
      </trkpt>
      <trkpt lat="44.47615" lon="-0.18065">
        <ele>100.6</ele>
        <time>2016-10-11T10:53:33Z</time>
      </trkpt>
      <trkpt lat="44.47612" lon="-0.18054">
        <ele>99.63</ele>
        <time>2016-10-11T10:53:51Z</time>
      </trkpt>
      <trkpt lat="44.4761" lon="-0.18052">
        <ele>99.63</ele>
        <time>2016-10-11T10:54:25Z</time>
      </trkpt>
      <trkpt lat="44.47614" lon="-0.18049">
        <ele>99.15</ele>
        <time>2016-10-11T10:54:51Z</time>
      </trkpt>
      <trkpt lat="44.47617" lon="-0.18047">
        <ele>99.15</ele>
        <time>2016-10-11T10:55:04Z</time>
      </trkpt>
      <trkpt lat="44.47615" lon="-0.18031">
        <ele>97.71</ele>
        <time>2016-10-11T10:55:21Z</time>
      </trkpt>
      <trkpt lat="44.47617" lon="-0.18013">
        <ele>96.75</ele>
        <time>2016-10-11T10:55:37Z</time>
      </trkpt>
      <trkpt lat="44.47613" lon="-0.17998">
        <ele>95.79</ele>
        <time>2016-10-11T10:55:52Z</time>
      </trkpt>
      <trkpt lat="44.47611" lon="-0.17979">
        <ele>95.31</ele>
        <time>2016-10-11T10:56:06Z</time>
      </trkpt>
      <trkpt lat="44.47612" lon="-0.17958">
        <ele>94.83</ele>
        <time>2016-10-11T10:56:18Z</time>
      </trkpt>
      <trkpt lat="44.4761" lon="-0.17941">
        <ele>94.35</ele>
        <time>2016-10-11T10:56:33Z</time>
      </trkpt>
      <trkpt lat="44.47608" lon="-0.17939">
        <ele>94.35</ele>
        <time>2016-10-11T10:56:34Z</time>
      </trkpt>
      <trkpt lat="44.47609" lon="-0.1792">
        <ele>93.87</ele>
        <time>2016-10-11T10:56:49Z</time>
      </trkpt>
      <trkpt lat="44.47604" lon="-0.17909">
        <ele>93.87</ele>
        <time>2016-10-11T10:57:05Z</time>
      </trkpt>
      <trkpt lat="44.47602" lon="-0.17904">
        <ele>93.87</ele>
        <time>2016-10-11T10:57:25Z</time>
      </trkpt>
      <trkpt lat="44.47606" lon="-0.17896">
        <ele>93.87</ele>
        <time>2016-10-11T10:57:38Z</time>
      </trkpt>
      <trkpt lat="44.47611" lon="-0.17878">
        <ele>92.42</ele>
        <time>2016-10-11T10:57:55Z</time>
      </trkpt>
      <trkpt lat="44.47613" lon="-0.17861">
        <ele>91.94</ele>
        <time>2016-10-11T10:58:12Z</time>
      </trkpt>
      <trkpt lat="44.47614" lon="-0.1785">
        <ele>91.46</ele>
        <time>2016-10-11T10:58:20Z</time>
      </trkpt>
      <trkpt lat="44.4761" lon="-0.17814">
        <ele>90.02</ele>
        <time>2016-10-11T10:58:38Z</time>
      </trkpt>
      <trkpt lat="44.47604" lon="-0.17788">
        <ele>88.58</ele>
        <time>2016-10-11T10:58:55Z</time>
      </trkpt>
      <trkpt lat="44.47605" lon="-0.17769">
        <ele>88.1</ele>
        <time>2016-10-11T10:59:10Z</time>
      </trkpt>
      <trkpt lat="44.47601" lon="-0.17753">
        <ele>87.62</ele>
        <time>2016-10-11T10:59:22Z</time>
      </trkpt>
      <trkpt lat="44.47599" lon="-0.17735">
        <ele>86.66</ele>
        <time>2016-10-11T10:59:36Z</time>
      </trkpt>
      <trkpt lat="44.47589" lon="-0.1772">
        <ele>86.66</ele>
        <time>2016-10-11T10:59:52Z</time>
      </trkpt>
      <trkpt lat="44.47581" lon="-0.17704">
        <ele>86.18</ele>
        <time>2016-10-11T11:00:05Z</time>
      </trkpt>
      <trkpt lat="44.47573" lon="-0.17691">
        <ele>85.69</ele>
        <time>2016-10-11T11:00:19Z</time>
      </trkpt>
      <trkpt lat="44.47573" lon="-0.17666">
        <ele>84.73</ele>
        <time>2016-10-11T11:00:35Z</time>
      </trkpt>
      <trkpt lat="44.47573" lon="-0.17665">
        <ele>84.73</ele>
        <time>2016-10-11T11:00:36Z</time>
      </trkpt>
      <trkpt lat="44.47575" lon="-0.17648">
        <ele>84.73</ele>
        <time>2016-10-11T11:00:48Z</time>
      </trkpt>
      <trkpt lat="44.47575" lon="-0.17626">
        <ele>82.81</ele>
        <time>2016-10-11T11:01:03Z</time>
      </trkpt>
      <trkpt lat="44.47589" lon="-0.17596">
        <ele>82.81</ele>
        <time>2016-10-11T11:01:19Z</time>
      </trkpt>
      <trkpt lat="44.47589" lon="-0.17583">
        <ele>80.89</ele>
        <time>2016-10-11T11:01:34Z</time>
      </trkpt>
      <trkpt lat="44.4759" lon="-0.17572">
        <ele>77.52</ele>
        <time>2016-10-11T11:01:45Z</time>
      </trkpt>
      <trkpt lat="44.47589" lon="-0.17571">
        <ele>77.04</ele>
        <time>2016-10-11T11:01:47Z</time>
      </trkpt>
      <trkpt lat="44.47594" lon="-0.17559">
        <ele>73.68</ele>
        <time>2016-10-11T11:01:58Z</time>
      </trkpt>
      <trkpt lat="44.47601" lon="-0.17548">
        <ele>72.24</ele>
        <time>2016-10-11T11:02:09Z</time>
      </trkpt>
      <trkpt lat="44.47613" lon="-0.17552">
        <ele>72.24</ele>
        <time>2016-10-11T11:02:23Z</time>
      </trkpt>
      <trkpt lat="44.4763" lon="-0.17565">
        <ele>72.24</ele>
        <time>2016-10-11T11:02:40Z</time>
      </trkpt>
      <trkpt lat="44.47633" lon="-0.17567">
        <ele>72.24</ele>
        <time>2016-10-11T11:02:43Z</time>
      </trkpt>
      <trkpt lat="44.4765" lon="-0.17569">
        <ele>70.31</ele>
        <time>2016-10-11T11:02:59Z</time>
      </trkpt>
      <trkpt lat="44.47661" lon="-0.17569">
        <ele>68.39</ele>
        <time>2016-10-11T11:03:14Z</time>
      </trkpt>
      <trkpt lat="44.47681" lon="-0.17564">
        <ele>66.95</ele>
        <time>2016-10-11T11:03:28Z</time>
      </trkpt>
      <trkpt lat="44.47684" lon="-0.17567">
        <ele>66.95</ele>
        <time>2016-10-11T11:03:45Z</time>
      </trkpt>
      <trkpt lat="44.47681" lon="-0.17569">
        <ele>66.95</ele>
        <time>2016-10-11T11:03:56Z</time>
      </trkpt>
      <trkpt lat="44.4769" lon="-0.17575">
        <ele>66.95</ele>
        <time>2016-10-11T11:04:11Z</time>
      </trkpt>
      <trkpt lat="44.47702" lon="-0.17587">
        <ele>66.47</ele>
        <time>2016-10-11T11:04:26Z</time>
      </trkpt>
      <trkpt lat="44.47718" lon="-0.17595">
        <ele>65.99</ele>
        <time>2016-10-11T11:04:42Z</time>
      </trkpt>
      <trkpt lat="44.47734" lon="-0.17596">
        <ele>65.99</ele>
        <time>2016-10-11T11:04:57Z</time>
      </trkpt>
      <trkpt lat="44.47751" lon="-0.17593">
        <ele>65.99</ele>
        <time>2016-10-11T11:05:11Z</time>
      </trkpt>
      <trkpt lat="44.47756" lon="-0.17585">
        <ele>66.95</ele>
        <time>2016-10-11T11:05:18Z</time>
      </trkpt>
      <trkpt lat="44.47751" lon="-0.17565">
        <ele>67.43</ele>
        <time>2016-10-11T11:05:32Z</time>
      </trkpt>
      <trkpt lat="44.47746" lon="-0.1755">
        <ele>66.95</ele>
        <time>2016-10-11T11:05:43Z</time>
      </trkpt>
      <trkpt lat="44.47739" lon="-0.17525">
        <ele>67.91</ele>
        <time>2016-10-11T11:05:59Z</time>
      </trkpt>
      <trkpt lat="44.47733" lon="-0.17502">
        <ele>67.43</ele>
        <time>2016-10-11T11:06:14Z</time>
      </trkpt>
      <trkpt lat="44.47724" lon="-0.17478">
        <ele>66.47</ele>
        <time>2016-10-11T11:06:32Z</time>
      </trkpt>
      <trkpt lat="44.47717" lon="-0.17459">
        <ele>65.99</ele>
        <time>2016-10-11T11:06:45Z</time>
      </trkpt>
      <trkpt lat="44.47714" lon="-0.17447">
        <ele>65.99</ele>
        <time>2016-10-11T11:06:55Z</time>
      </trkpt>
      <trkpt lat="44.47712" lon="-0.17445">
        <ele>65.99</ele>
        <time>2016-10-11T11:06:57Z</time>
      </trkpt>
      <trkpt lat="44.47709" lon="-0.17441">
        <ele>67.43</ele>
        <time>2016-10-11T11:07:05Z</time>
      </trkpt>
      <trkpt lat="44.47711" lon="-0.17437">
        <ele>68.39</ele>
        <time>2016-10-11T11:07:09Z</time>
      </trkpt>
      <trkpt lat="44.4771" lon="-0.17431">
        <ele>67.91</ele>
        <time>2016-10-11T11:07:23Z</time>
      </trkpt>
      <trkpt lat="44.47709" lon="-0.17428">
        <ele>67.91</ele>
        <time>2016-10-11T11:07:46Z</time>
      </trkpt>
      <trkpt lat="44.47701" lon="-0.17409">
        <ele>67.91</ele>
        <time>2016-10-11T11:08:02Z</time>
      </trkpt>
      <trkpt lat="44.47692" lon="-0.17391">
        <ele>67.91</ele>
        <time>2016-10-11T11:08:17Z</time>
      </trkpt>
      <trkpt lat="44.47682" lon="-0.17371">
        <ele>67.91</ele>
        <time>2016-10-11T11:08:32Z</time>
      </trkpt>
      <trkpt lat="44.47675" lon="-0.17343">
        <ele>67.43</ele>
        <time>2016-10-11T11:08:49Z</time>
      </trkpt>
      <trkpt lat="44.47674" lon="-0.17312">
        <ele>67.43</ele>
        <time>2016-10-11T11:09:07Z</time>
      </trkpt>
      <trkpt lat="44.47672" lon="-0.17284">
        <ele>67.43</ele>
        <time>2016-10-11T11:09:24Z</time>
      </trkpt>
      <trkpt lat="44.47672" lon="-0.17254">
        <ele>67.91</ele>
        <time>2016-10-11T11:09:42Z</time>
      </trkpt>
      <trkpt lat="44.47671" lon="-0.17222">
        <ele>67.43</ele>
        <time>2016-10-11T11:10:01Z</time>
      </trkpt>
      <trkpt lat="44.47675" lon="-0.17201">
        <ele>67.43</ele>
        <time>2016-10-11T11:10:16Z</time>
      </trkpt>
      <trkpt lat="44.47681" lon="-0.17198">
        <ele>67.91</ele>
        <time>2016-10-11T11:10:29Z</time>
      </trkpt>
      <trkpt lat="44.47682" lon="-0.17203">
        <ele>67.43</ele>
        <time>2016-10-11T11:10:44Z</time>
      </trkpt>
      <trkpt lat="44.47681" lon="-0.17203">
        <ele>67.43</ele>
        <time>2016-10-11T11:11:10Z</time>
      </trkpt>
      <trkpt lat="44.4768" lon="-0.17204">
        <ele>67.91</ele>
        <time>2016-10-11T11:11:25Z</time>
      </trkpt>
      <trkpt lat="44.47683" lon="-0.17204">
        <ele>66.47</ele>
        <time>2016-10-11T11:11:47Z</time>
      </trkpt>
      <trkpt lat="44.47684" lon="-0.17204">
        <ele>65.51</ele>
        <time>2016-10-11T11:12:16Z</time>
      </trkpt>
      <trkpt lat="44.47681" lon="-0.17205">
        <ele>65.51</ele>
        <time>2016-10-11T11:12:47Z</time>
      </trkpt>
      <trkpt lat="44.47682" lon="-0.17207">
        <ele>65.51</ele>
        <time>2016-10-11T11:12:49Z</time>
      </trkpt>
      <trkpt lat="44.47684" lon="-0.1721">
        <ele>65.51</ele>
        <time>2016-10-11T11:12:53Z</time>
      </trkpt>
      <trkpt lat="44.47687" lon="-0.17213">
        <ele>66.47</ele>
        <time>2016-10-11T11:13:12Z</time>
      </trkpt>
      <trkpt lat="44.47687" lon="-0.17212">
        <ele>65.99</ele>
        <time>2016-10-11T11:13:43Z</time>
      </trkpt>
      <trkpt lat="44.47684" lon="-0.17211">
        <ele>65.99</ele>
        <time>2016-10-11T11:14:16Z</time>
      </trkpt>
      <trkpt lat="44.47687" lon="-0.17212">
        <ele>65.99</ele>
        <time>2016-10-11T11:14:47Z</time>
      </trkpt>
      <trkpt lat="44.47686" lon="-0.17213">
        <ele>65.51</ele>
        <time>2016-10-11T11:15:21Z</time>
      </trkpt>
      <trkpt lat="44.47686" lon="-0.17213">
        <ele>65.51</ele>
        <time>2016-10-11T11:15:53Z</time>
      </trkpt>
      <trkpt lat="44.47687" lon="-0.17212">
        <ele>65.51</ele>
        <time>2016-10-11T11:16:44Z</time>
      </trkpt>
      <trkpt lat="44.47687" lon="-0.17212">
        <ele>65.03</ele>
        <time>2016-10-11T11:17:34Z</time>
      </trkpt>
      <trkpt lat="44.47687" lon="-0.17214">
        <ele>64.55</ele>
        <time>2016-10-11T11:18:09Z</time>
      </trkpt>
      <trkpt lat="44.47689" lon="-0.17213">
        <ele>64.07</ele>
        <time>2016-10-11T11:18:57Z</time>
      </trkpt>
      <trkpt lat="44.47685" lon="-0.17213">
        <ele>63.58</ele>
        <time>2016-10-11T11:19:34Z</time>
      </trkpt>
      <trkpt lat="44.47684" lon="-0.17214">
        <ele>63.58</ele>
        <time>2016-10-11T11:20:18Z</time>
      </trkpt>
      <trkpt lat="44.47683" lon="-0.17213">
        <ele>63.1</ele>
        <time>2016-10-11T11:20:53Z</time>
      </trkpt>
      <trkpt lat="44.47686" lon="-0.17215">
        <ele>63.1</ele>
        <time>2016-10-11T11:21:35Z</time>
      </trkpt>
      <trkpt lat="44.47687" lon="-0.17215">
        <ele>62.62</ele>
        <time>2016-10-11T11:22:03Z</time>
      </trkpt>
      <trkpt lat="44.47687" lon="-0.17212">
        <ele>62.62</ele>
        <time>2016-10-11T11:22:39Z</time>
      </trkpt>
      <trkpt lat="44.47686" lon="-0.17213">
        <ele>62.62</ele>
        <time>2016-10-11T11:23:06Z</time>
      </trkpt>
      <trkpt lat="44.47688" lon="-0.17211">
        <ele>62.62</ele>
        <time>2016-10-11T11:23:44Z</time>
      </trkpt>
      <trkpt lat="44.47686" lon="-0.17213">
        <ele>62.62</ele>
        <time>2016-10-11T11:24:19Z</time>
      </trkpt>
      <trkpt lat="44.47689" lon="-0.1721">
        <ele>62.14</ele>
        <time>2016-10-11T11:24:47Z</time>
      </trkpt>
      <trkpt lat="44.47684" lon="-0.17218">
        <ele>62.62</ele>
        <time>2016-10-11T11:25:27Z</time>
      </trkpt>
      <trkpt lat="44.47684" lon="-0.17217">
        <ele>62.14</ele>
        <time>2016-10-11T11:25:53Z</time>
      </trkpt>
      <trkpt lat="44.47683" lon="-0.17213">
        <ele>62.14</ele>
        <time>2016-10-11T11:26:31Z</time>
      </trkpt>
      <trkpt lat="44.47686" lon="-0.17212">
        <ele>61.66</ele>
        <time>2016-10-11T11:27:08Z</time>
      </trkpt>
      <trkpt lat="44.47688" lon="-0.1721">
        <ele>61.66</ele>
        <time>2016-10-11T11:27:40Z</time>
      </trkpt>
      <trkpt lat="44.47685" lon="-0.17213">
        <ele>62.14</ele>
        <time>2016-10-11T11:28:14Z</time>
      </trkpt>
      <trkpt lat="44.47686" lon="-0.1721">
        <ele>61.66</ele>
        <time>2016-10-11T11:28:44Z</time>
      </trkpt>
      <trkpt lat="44.47686" lon="-0.17211">
        <ele>60.7</ele>
        <time>2016-10-11T11:28:59Z</time>
      </trkpt>
      <trkpt lat="44.47685" lon="-0.17213">
        <ele>62.14</ele>
        <time>2016-10-11T11:29:32Z</time>
      </trkpt>
      <trkpt lat="44.47684" lon="-0.17211">
        <ele>61.66</ele>
        <time>2016-10-11T11:30:08Z</time>
      </trkpt>
      <trkpt lat="44.47683" lon="-0.17212">
        <ele>61.66</ele>
        <time>2016-10-11T11:30:53Z</time>
      </trkpt>
      <trkpt lat="44.47685" lon="-0.17211">
        <ele>61.66</ele>
        <time>2016-10-11T11:31:28Z</time>
      </trkpt>
      <trkpt lat="44.47687" lon="-0.17208">
        <ele>61.66</ele>
        <time>2016-10-11T11:32:04Z</time>
      </trkpt>
      <trkpt lat="44.47686" lon="-0.17208">
        <ele>61.66</ele>
        <time>2016-10-11T11:32:21Z</time>
      </trkpt>
      <trkpt lat="44.47685" lon="-0.17208">
        <ele>61.18</ele>
        <time>2016-10-11T11:33:09Z</time>
      </trkpt>
      <trkpt lat="44.47685" lon="-0.17208">
        <ele>61.18</ele>
        <time>2016-10-11T11:33:54Z</time>
      </trkpt>
      <trkpt lat="44.47682" lon="-0.17216">
        <ele>61.18</ele>
        <time>2016-10-11T11:34:24Z</time>
      </trkpt>
      <trkpt lat="44.47685" lon="-0.17212">
        <ele>62.14</ele>
        <time>2016-10-11T11:35:01Z</time>
      </trkpt>
      <trkpt lat="44.47686" lon="-0.1721">
        <ele>62.62</ele>
        <time>2016-10-11T11:35:31Z</time>
      </trkpt>
      <trkpt lat="44.47687" lon="-0.1721">
        <ele>62.62</ele>
        <time>2016-10-11T11:36:04Z</time>
      </trkpt>
      <trkpt lat="44.47687" lon="-0.1721">
        <ele>62.14</ele>
        <time>2016-10-11T11:36:43Z</time>
      </trkpt>
      <trkpt lat="44.47684" lon="-0.17213">
        <ele>62.14</ele>
        <time>2016-10-11T11:37:21Z</time>
      </trkpt>
      <trkpt lat="44.47682" lon="-0.17212">
        <ele>62.14</ele>
        <time>2016-10-11T11:38:02Z</time>
      </trkpt>
      <trkpt lat="44.47682" lon="-0.17214">
        <ele>62.14</ele>
        <time>2016-10-11T11:38:38Z</time>
      </trkpt>
      <trkpt lat="44.47682" lon="-0.17214">
        <ele>61.66</ele>
        <time>2016-10-11T11:39:25Z</time>
      </trkpt>
      <trkpt lat="44.47684" lon="-0.17216">
        <ele>63.1</ele>
        <time>2016-10-11T11:39:43Z</time>
      </trkpt>
      <trkpt lat="44.47686" lon="-0.17215">
        <ele>61.66</ele>
        <time>2016-10-11T11:39:45Z</time>
      </trkpt>
      <trkpt lat="44.47685" lon="-0.17212">
        <ele>61.18</ele>
        <time>2016-10-11T11:40:26Z</time>
      </trkpt>
      <trkpt lat="44.47684" lon="-0.17216">
        <ele>61.18</ele>
        <time>2016-10-11T11:40:45Z</time>
      </trkpt>
      <trkpt lat="44.47682" lon="-0.17215">
        <ele>61.18</ele>
        <time>2016-10-11T11:41:08Z</time>
      </trkpt>
      <trkpt lat="44.47685" lon="-0.17209">
        <ele>60.7</ele>
        <time>2016-10-11T11:41:25Z</time>
      </trkpt>
      <trkpt lat="44.47686" lon="-0.1721">
        <ele>60.7</ele>
        <time>2016-10-11T11:42:06Z</time>
      </trkpt>
      <trkpt lat="44.47686" lon="-0.17211">
        <ele>60.22</ele>
        <time>2016-10-11T11:42:41Z</time>
      </trkpt>
      <trkpt lat="44.47687" lon="-0.17208">
        <ele>60.22</ele>
        <time>2016-10-11T11:43:14Z</time>
      </trkpt>
      <trkpt lat="44.47689" lon="-0.1721">
        <ele>60.7</ele>
        <time>2016-10-11T11:43:49Z</time>
      </trkpt>
      <trkpt lat="44.47688" lon="-0.17212">
        <ele>60.7</ele>
        <time>2016-10-11T11:44:28Z</time>
      </trkpt>
      <trkpt lat="44.47687" lon="-0.17211">
        <ele>60.22</ele>
        <time>2016-10-11T11:45:06Z</time>
      </trkpt>
      <trkpt lat="44.47686" lon="-0.17213">
        <ele>60.22</ele>
        <time>2016-10-11T11:45:45Z</time>
      </trkpt>
      <trkpt lat="44.47687" lon="-0.17213">
        <ele>60.22</ele>
        <time>2016-10-11T11:46:25Z</time>
      </trkpt>
      <trkpt lat="44.47689" lon="-0.1721">
        <ele>60.22</ele>
        <time>2016-10-11T11:47:12Z</time>
      </trkpt>
      <trkpt lat="44.47688" lon="-0.1721">
        <ele>60.22</ele>
        <time>2016-10-11T11:47:53Z</time>
      </trkpt>
      <trkpt lat="44.47687" lon="-0.17211">
        <ele>59.74</ele>
        <time>2016-10-11T11:48:28Z</time>
      </trkpt>
      <trkpt lat="44.47686" lon="-0.1721">
        <ele>59.74</ele>
        <time>2016-10-11T11:49:06Z</time>
      </trkpt>
      <trkpt lat="44.47686" lon="-0.17209">
        <ele>59.74</ele>
        <time>2016-10-11T11:49:41Z</time>
      </trkpt>
      <trkpt lat="44.47685" lon="-0.17209">
        <ele>59.26</ele>
        <time>2016-10-11T11:50:19Z</time>
      </trkpt>
      <trkpt lat="44.47686" lon="-0.17209">
        <ele>58.78</ele>
        <time>2016-10-11T11:50:51Z</time>
      </trkpt>
      <trkpt lat="44.47686" lon="-0.17211">
        <ele>59.26</ele>
        <time>2016-10-11T11:51:30Z</time>
      </trkpt>
      <trkpt lat="44.47684" lon="-0.17213">
        <ele>58.78</ele>
        <time>2016-10-11T11:52:03Z</time>
      </trkpt>
      <trkpt lat="44.47685" lon="-0.17212">
        <ele>58.78</ele>
        <time>2016-10-11T11:52:44Z</time>
      </trkpt>
      <trkpt lat="44.47684" lon="-0.17212">
        <ele>58.3</ele>
        <time>2016-10-11T11:53:19Z</time>
      </trkpt>
      <trkpt lat="44.47686" lon="-0.17213">
        <ele>58.3</ele>
        <time>2016-10-11T11:53:55Z</time>
      </trkpt>
      <trkpt lat="44.47686" lon="-0.17212">
        <ele>58.3</ele>
        <time>2016-10-11T11:54:47Z</time>
      </trkpt>
      <trkpt lat="44.47686" lon="-0.1721">
        <ele>57.82</ele>
        <time>2016-10-11T11:55:26Z</time>
      </trkpt>
      <trkpt lat="44.47686" lon="-0.17211">
        <ele>58.3</ele>
        <time>2016-10-11T11:56:04Z</time>
      </trkpt>
      <trkpt lat="44.47687" lon="-0.1721">
        <ele>57.82</ele>
        <time>2016-10-11T11:56:47Z</time>
      </trkpt>
      <trkpt lat="44.47687" lon="-0.17209">
        <ele>57.82</ele>
        <time>2016-10-11T11:57:22Z</time>
      </trkpt>
      <trkpt lat="44.47686" lon="-0.17211">
        <ele>57.34</ele>
        <time>2016-10-11T11:58:03Z</time>
      </trkpt>
      <trkpt lat="44.47686" lon="-0.17212">
        <ele>57.34</ele>
        <time>2016-10-11T11:58:38Z</time>
      </trkpt>
      <trkpt lat="44.47685" lon="-0.17211">
        <ele>57.34</ele>
        <time>2016-10-11T11:59:16Z</time>
      </trkpt>
      <trkpt lat="44.47686" lon="-0.17211">
        <ele>56.86</ele>
        <time>2016-10-11T12:00:03Z</time>
      </trkpt>
      <trkpt lat="44.47685" lon="-0.17212">
        <ele>56.86</ele>
        <time>2016-10-11T12:00:43Z</time>
      </trkpt>
      <trkpt lat="44.47686" lon="-0.17214">
        <ele>56.86</ele>
        <time>2016-10-11T12:01:16Z</time>
      </trkpt>
      <trkpt lat="44.47691" lon="-0.17216">
        <ele>56.86</ele>
        <time>2016-10-11T12:01:55Z</time>
      </trkpt>
      <trkpt lat="44.47687" lon="-0.17213">
        <ele>56.86</ele>
        <time>2016-10-11T12:02:33Z</time>
      </trkpt>
      <trkpt lat="44.47685" lon="-0.1721">
        <ele>56.86</ele>
        <time>2016-10-11T12:03:06Z</time>
      </trkpt>
      <trkpt lat="44.47683" lon="-0.17208">
        <ele>56.37</ele>
        <time>2016-10-11T12:03:46Z</time>
      </trkpt>
      <trkpt lat="44.47685" lon="-0.17212">
        <ele>56.37</ele>
        <time>2016-10-11T12:04:26Z</time>
      </trkpt>
      <trkpt lat="44.47686" lon="-0.17214">
        <ele>55.89</ele>
        <time>2016-10-11T12:05:12Z</time>
      </trkpt>
      <trkpt lat="44.47686" lon="-0.17216">
        <ele>55.89</ele>
        <time>2016-10-11T12:05:56Z</time>
      </trkpt>
      <trkpt lat="44.47686" lon="-0.17212">
        <ele>55.41</ele>
        <time>2016-10-11T12:06:35Z</time>
      </trkpt>
      <trkpt lat="44.47686" lon="-0.17212">
        <ele>55.89</ele>
        <time>2016-10-11T12:07:04Z</time>
      </trkpt>
      <trkpt lat="44.47685" lon="-0.17212">
        <ele>55.89</ele>
        <time>2016-10-11T12:07:07Z</time>
      </trkpt>
      <trkpt lat="44.47683" lon="-0.17209">
        <ele>55.89</ele>
        <time>2016-10-11T12:07:10Z</time>
      </trkpt>
      <trkpt lat="44.47681" lon="-0.17209">
        <ele>55.89</ele>
        <time>2016-10-11T12:07:13Z</time>
      </trkpt>
      <trkpt lat="44.47678" lon="-0.1721">
        <ele>54.45</ele>
        <time>2016-10-11T12:07:23Z</time>
      </trkpt>
      <trkpt lat="44.47678" lon="-0.1721">
        <ele>54.45</ele>
        <time>2016-10-11T12:07:37Z</time>
      </trkpt>
      <trkpt lat="44.47678" lon="-0.17211">
        <ele>54.45</ele>
        <time>2016-10-11T12:07:49Z</time>
      </trkpt>
      <trkpt lat="44.47678" lon="-0.17211">
        <ele>54.45</ele>
        <time>2016-10-11T12:08:03Z</time>
      </trkpt>
      <trkpt lat="44.47675" lon="-0.17207">
        <ele>53.97</ele>
        <time>2016-10-11T12:08:17Z</time>
      </trkpt>
      <trkpt lat="44.47675" lon="-0.17201">
        <ele>53.97</ele>
        <time>2016-10-11T12:08:30Z</time>
      </trkpt>
      <trkpt lat="44.47678" lon="-0.17195">
        <ele>53.97</ele>
        <time>2016-10-11T12:08:42Z</time>
      </trkpt>
      <trkpt lat="44.47688" lon="-0.1719">
        <ele>55.41</ele>
        <time>2016-10-11T12:08:57Z</time>
      </trkpt>
      <trkpt lat="44.47696" lon="-0.17183">
        <ele>55.89</ele>
        <time>2016-10-11T12:09:11Z</time>
      </trkpt>
      <trkpt lat="44.47704" lon="-0.17172">
        <ele>56.37</ele>
        <time>2016-10-11T12:09:26Z</time>
      </trkpt>
      <trkpt lat="44.47713" lon="-0.17161">
        <ele>57.34</ele>
        <time>2016-10-11T12:09:42Z</time>
      </trkpt>
      <trkpt lat="44.47721" lon="-0.17139">
        <ele>58.78</ele>
        <time>2016-10-11T12:10:00Z</time>
      </trkpt>
      <trkpt lat="44.47727" lon="-0.17121">
        <ele>59.74</ele>
        <time>2016-10-11T12:10:16Z</time>
      </trkpt>
      <trkpt lat="44.47736" lon="-0.17099">
        <ele>60.22</ele>
        <time>2016-10-11T12:10:32Z</time>
      </trkpt>
      <trkpt lat="44.47739" lon="-0.17092">
        <ele>60.22</ele>
        <time>2016-10-11T12:10:38Z</time>
      </trkpt>
      <trkpt lat="44.47745" lon="-0.17072">
        <ele>61.18</ele>
        <time>2016-10-11T12:10:53Z</time>
      </trkpt>
      <trkpt lat="44.47752" lon="-0.17052">
        <ele>62.14</ele>
        <time>2016-10-11T12:11:10Z</time>
      </trkpt>
      <trkpt lat="44.47759" lon="-0.17031">
        <ele>62.62</ele>
        <time>2016-10-11T12:11:26Z</time>
      </trkpt>
      <trkpt lat="44.47766" lon="-0.17011">
        <ele>64.07</ele>
        <time>2016-10-11T12:11:44Z</time>
      </trkpt>
      <trkpt lat="44.47776" lon="-0.1699">
        <ele>65.99</ele>
        <time>2016-10-11T12:12:02Z</time>
      </trkpt>
      <trkpt lat="44.47788" lon="-0.16974">
        <ele>68.87</ele>
        <time>2016-10-11T12:12:20Z</time>
      </trkpt>
      <trkpt lat="44.47796" lon="-0.16966">
        <ele>70.31</ele>
        <time>2016-10-11T12:12:31Z</time>
      </trkpt>
      <trkpt lat="44.47815" lon="-0.16959">
        <ele>73.68</ele>
        <time>2016-10-11T12:12:49Z</time>
      </trkpt>
      <trkpt lat="44.47833" lon="-0.16961">
        <ele>75.12</ele>
        <time>2016-10-11T12:13:07Z</time>
      </trkpt>
      <trkpt lat="44.47847" lon="-0.16964">
        <ele>76.56</ele>
        <time>2016-10-11T12:13:24Z</time>
      </trkpt>
      <trkpt lat="44.47856" lon="-0.16968">
        <ele>77.52</ele>
        <time>2016-10-11T12:13:37Z</time>
      </trkpt>
      <trkpt lat="44.47858" lon="-0.16969">
        <ele>78</ele>
        <time>2016-10-11T12:13:39Z</time>
      </trkpt>
      <trkpt lat="44.47866" lon="-0.1697">
        <ele>79.45</ele>
        <time>2016-10-11T12:13:54Z</time>
      </trkpt>
      <trkpt lat="44.47882" lon="-0.16971">
        <ele>80.89</ele>
        <time>2016-10-11T12:14:10Z</time>
      </trkpt>
      <trkpt lat="44.479" lon="-0.16966">
        <ele>81.85</ele>
        <time>2016-10-11T12:14:26Z</time>
      </trkpt>
      <trkpt lat="44.47914" lon="-0.16958">
        <ele>83.77</ele>
        <time>2016-10-11T12:14:40Z</time>
      </trkpt>
      <trkpt lat="44.47931" lon="-0.16946">
        <ele>84.73</ele>
        <time>2016-10-11T12:14:56Z</time>
      </trkpt>
      <trkpt lat="44.47946" lon="-0.16935">
        <ele>86.18</ele>
        <time>2016-10-11T12:15:12Z</time>
      </trkpt>
      <trkpt lat="44.47964" lon="-0.16924">
        <ele>88.58</ele>
        <time>2016-10-11T12:15:30Z</time>
      </trkpt>
      <trkpt lat="44.4798" lon="-0.16914">
        <ele>89.06</ele>
        <time>2016-10-11T12:15:45Z</time>
      </trkpt>
      <trkpt lat="44.47999" lon="-0.16903">
        <ele>90.02</ele>
        <time>2016-10-11T12:16:03Z</time>
      </trkpt>
      <trkpt lat="44.48017" lon="-0.1689">
        <ele>90.02</ele>
        <time>2016-10-11T12:16:20Z</time>
      </trkpt>
      <trkpt lat="44.48034" lon="-0.16878">
        <ele>90.02</ele>
        <time>2016-10-11T12:16:39Z</time>
      </trkpt>
      <trkpt lat="44.48047" lon="-0.16873">
        <ele>90.5</ele>
        <time>2016-10-11T12:16:52Z</time>
      </trkpt>
      <trkpt lat="44.48051" lon="-0.16872">
        <ele>90.5</ele>
        <time>2016-10-11T12:17:06Z</time>
      </trkpt>
      <trkpt lat="44.48053" lon="-0.16872">
        <ele>90.5</ele>
        <time>2016-10-11T12:17:18Z</time>
      </trkpt>
      <trkpt lat="44.48056" lon="-0.1687">
        <ele>90.5</ele>
        <time>2016-10-11T12:17:34Z</time>
      </trkpt>
      <trkpt lat="44.48058" lon="-0.16873">
        <ele>90.5</ele>
        <time>2016-10-11T12:17:47Z</time>
      </trkpt>
      <trkpt lat="44.48058" lon="-0.16876">
        <ele>90.5</ele>
        <time>2016-10-11T12:17:49Z</time>
      </trkpt>
      <trkpt lat="44.48062" lon="-0.16886">
        <ele>91.46</ele>
        <time>2016-10-11T12:18:03Z</time>
      </trkpt>
      <trkpt lat="44.48071" lon="-0.16904">
        <ele>92.42</ele>
        <time>2016-10-11T12:18:19Z</time>
      </trkpt>
      <trkpt lat="44.48079" lon="-0.16924">
        <ele>94.35</ele>
        <time>2016-10-11T12:18:35Z</time>
      </trkpt>
      <trkpt lat="44.48089" lon="-0.16948">
        <ele>95.79</ele>
        <time>2016-10-11T12:18:52Z</time>
      </trkpt>
      <trkpt lat="44.48098" lon="-0.16972">
        <ele>97.23</ele>
        <time>2016-10-11T12:19:09Z</time>
      </trkpt>
      <trkpt lat="44.48106" lon="-0.16989">
        <ele>97.71</ele>
        <time>2016-10-11T12:19:22Z</time>
      </trkpt>
      <trkpt lat="44.48116" lon="-0.17009">
        <ele>98.67</ele>
        <time>2016-10-11T12:19:38Z</time>
      </trkpt>
      <trkpt lat="44.48126" lon="-0.17029">
        <ele>100.11</ele>
        <time>2016-10-11T12:19:56Z</time>
      </trkpt>
      <trkpt lat="44.48128" lon="-0.17036">
        <ele>100.11</ele>
        <time>2016-10-11T12:20:12Z</time>
      </trkpt>
      <trkpt lat="44.48132" lon="-0.17045">
        <ele>100.6</ele>
        <time>2016-10-11T12:20:27Z</time>
      </trkpt>
      <trkpt lat="44.48135" lon="-0.17048">
        <ele>100.6</ele>
        <time>2016-10-11T12:20:34Z</time>
      </trkpt>
      <trkpt lat="44.48137" lon="-0.17049">
        <ele>101.08</ele>
        <time>2016-10-11T12:20:36Z</time>
      </trkpt>
      <trkpt lat="44.48147" lon="-0.1707">
        <ele>101.56</ele>
        <time>2016-10-11T12:20:54Z</time>
      </trkpt>
      <trkpt lat="44.48154" lon="-0.17083">
        <ele>102.04</ele>
        <time>2016-10-11T12:21:10Z</time>
      </trkpt>
      <trkpt lat="44.48158" lon="-0.1709">
        <ele>102.04</ele>
        <time>2016-10-11T12:21:22Z</time>
      </trkpt>
      <trkpt lat="44.48158" lon="-0.17091">
        <ele>102.04</ele>
        <time>2016-10-11T12:21:23Z</time>
      </trkpt>
      <trkpt lat="44.48165" lon="-0.17101">
        <ele>102.04</ele>
        <time>2016-10-11T12:21:34Z</time>
      </trkpt>
      <trkpt lat="44.48178" lon="-0.17125">
        <ele>102.52</ele>
        <time>2016-10-11T12:21:54Z</time>
      </trkpt>
      <trkpt lat="44.48185" lon="-0.17144">
        <ele>102.52</ele>
        <time>2016-10-11T12:22:10Z</time>
      </trkpt>
      <trkpt lat="44.4819" lon="-0.17159">
        <ele>103.48</ele>
        <time>2016-10-11T12:22:21Z</time>
      </trkpt>
      <trkpt lat="44.48198" lon="-0.17183">
        <ele>103.48</ele>
        <time>2016-10-11T12:22:38Z</time>
      </trkpt>
      <trkpt lat="44.48204" lon="-0.172">
        <ele>104.44</ele>
        <time>2016-10-11T12:22:55Z</time>
      </trkpt>
      <trkpt lat="44.48207" lon="-0.17216">
        <ele>104.92</ele>
        <time>2016-10-11T12:23:11Z</time>
      </trkpt>
      <trkpt lat="44.48213" lon="-0.17244">
        <ele>105.4</ele>
        <time>2016-10-11T12:23:29Z</time>
      </trkpt>
      <trkpt lat="44.48214" lon="-0.17255">
        <ele>105.88</ele>
        <time>2016-10-11T12:23:36Z</time>
      </trkpt>
      <trkpt lat="44.48209" lon="-0.17257">
        <ele>106.84</ele>
        <time>2016-10-11T12:23:49Z</time>
      </trkpt>
      <trkpt lat="44.48205" lon="-0.17252">
        <ele>107.32</ele>
        <time>2016-10-11T12:23:57Z</time>
      </trkpt>
      <trkpt lat="44.48193" lon="-0.17235">
        <ele>107.32</ele>
        <time>2016-10-11T12:24:14Z</time>
      </trkpt>
      <trkpt lat="44.48176" lon="-0.17222">
        <ele>107.81</ele>
        <time>2016-10-11T12:24:31Z</time>
      </trkpt>
      <trkpt lat="44.48157" lon="-0.17222">
        <ele>108.29</ele>
        <time>2016-10-11T12:24:47Z</time>
      </trkpt>
      <trkpt lat="44.4814" lon="-0.17231">
        <ele>108.77</ele>
        <time>2016-10-11T12:25:03Z</time>
      </trkpt>
      <trkpt lat="44.48125" lon="-0.17239">
        <ele>108.29</ele>
        <time>2016-10-11T12:25:18Z</time>
      </trkpt>
      <trkpt lat="44.48105" lon="-0.1725">
        <ele>108.29</ele>
        <time>2016-10-11T12:25:37Z</time>
      </trkpt>
      <trkpt lat="44.48102" lon="-0.17252">
        <ele>108.29</ele>
        <time>2016-10-11T12:25:40Z</time>
      </trkpt>
      <trkpt lat="44.48097" lon="-0.17256">
        <ele>108.29</ele>
        <time>2016-10-11T12:25:45Z</time>
      </trkpt>
      <trkpt lat="44.48088" lon="-0.17265">
        <ele>107.81</ele>
        <time>2016-10-11T12:25:58Z</time>
      </trkpt>
      <trkpt lat="44.48077" lon="-0.17278">
        <ele>106.84</ele>
        <time>2016-10-11T12:26:11Z</time>
      </trkpt>
      <trkpt lat="44.48074" lon="-0.17285">
        <ele>108.29</ele>
        <time>2016-10-11T12:26:17Z</time>
      </trkpt>
      <trkpt lat="44.48073" lon="-0.17288">
        <ele>106.84</ele>
        <time>2016-10-11T12:26:21Z</time>
      </trkpt>
      <trkpt lat="44.48071" lon="-0.17292">
        <ele>106.84</ele>
        <time>2016-10-11T12:26:25Z</time>
      </trkpt>
      <trkpt lat="44.48067" lon="-0.1731">
        <ele>106.84</ele>
        <time>2016-10-11T12:26:40Z</time>
      </trkpt>
      <trkpt lat="44.48067" lon="-0.17305">
        <ele>107.81</ele>
        <time>2016-10-11T12:26:50Z</time>
      </trkpt>
      <trkpt lat="44.48064" lon="-0.17305">
        <ele>107.81</ele>
        <time>2016-10-11T12:27:03Z</time>
      </trkpt>
      <trkpt lat="44.48066" lon="-0.17311">
        <ele>107.81</ele>
        <time>2016-10-11T12:27:26Z</time>
      </trkpt>
      <trkpt lat="44.48065" lon="-0.17327">
        <ele>107.81</ele>
        <time>2016-10-11T12:27:40Z</time>
      </trkpt>
      <trkpt lat="44.4807" lon="-0.17341">
        <ele>107.81</ele>
        <time>2016-10-11T12:27:54Z</time>
      </trkpt>
      <trkpt lat="44.48074" lon="-0.17351">
        <ele>108.29</ele>
        <time>2016-10-11T12:28:09Z</time>
      </trkpt>
      <trkpt lat="44.48074" lon="-0.17352">
        <ele>108.29</ele>
        <time>2016-10-11T12:28:25Z</time>
      </trkpt>
      <trkpt lat="44.48076" lon="-0.17353">
        <ele>108.29</ele>
        <time>2016-10-11T12:28:45Z</time>
      </trkpt>
      <trkpt lat="44.48073" lon="-0.17353">
        <ele>108.29</ele>
        <time>2016-10-11T12:29:02Z</time>
      </trkpt>
      <trkpt lat="44.48075" lon="-0.17354">
        <ele>108.29</ele>
        <time>2016-10-11T12:29:05Z</time>
      </trkpt>
      <trkpt lat="44.4808" lon="-0.17366">
        <ele>108.29</ele>
        <time>2016-10-11T12:29:20Z</time>
      </trkpt>
      <trkpt lat="44.48078" lon="-0.17365">
        <ele>108.29</ele>
        <time>2016-10-11T12:29:44Z</time>
      </trkpt>
      <trkpt lat="44.48078" lon="-0.17363">
        <ele>108.29</ele>
        <time>2016-10-11T12:30:08Z</time>
      </trkpt>
      <trkpt lat="44.4808" lon="-0.17366">
        <ele>108.29</ele>
        <time>2016-10-11T12:30:37Z</time>
      </trkpt>
      <trkpt lat="44.48081" lon="-0.17369">
        <ele>108.29</ele>
        <time>2016-10-11T12:30:53Z</time>
      </trkpt>
      <trkpt lat="44.48081" lon="-0.17368">
        <ele>108.29</ele>
        <time>2016-10-11T12:31:16Z</time>
      </trkpt>
      <trkpt lat="44.4808" lon="-0.17368">
        <ele>108.29</ele>
        <time>2016-10-11T12:31:37Z</time>
      </trkpt>
      <trkpt lat="44.48081" lon="-0.17366">
        <ele>107.81</ele>
        <time>2016-10-11T12:32:04Z</time>
      </trkpt>
      <trkpt lat="44.4808" lon="-0.17366">
        <ele>107.81</ele>
        <time>2016-10-11T12:32:31Z</time>
      </trkpt>
      <trkpt lat="44.48081" lon="-0.17367">
        <ele>107.81</ele>
        <time>2016-10-11T12:32:52Z</time>
      </trkpt>
      <trkpt lat="44.48081" lon="-0.17369">
        <ele>107.81</ele>
        <time>2016-10-11T12:33:23Z</time>
      </trkpt>
      <trkpt lat="44.4808" lon="-0.17368">
        <ele>107.81</ele>
        <time>2016-10-11T12:33:41Z</time>
      </trkpt>
      <trkpt lat="44.48081" lon="-0.17368">
        <ele>107.81</ele>
        <time>2016-10-11T12:33:59Z</time>
      </trkpt>
      <trkpt lat="44.48081" lon="-0.17366">
        <ele>107.81</ele>
        <time>2016-10-11T12:34:27Z</time>
      </trkpt>
      <trkpt lat="44.48082" lon="-0.17367">
        <ele>107.32</ele>
        <time>2016-10-11T12:34:58Z</time>
      </trkpt>
      <trkpt lat="44.4808" lon="-0.17368">
        <ele>107.32</ele>
        <time>2016-10-11T12:35:28Z</time>
      </trkpt>
      <trkpt lat="44.48083" lon="-0.1737">
        <ele>107.32</ele>
        <time>2016-10-11T12:35:54Z</time>
      </trkpt>
      <trkpt lat="44.48091" lon="-0.17378">
        <ele>107.32</ele>
        <time>2016-10-11T12:36:10Z</time>
      </trkpt>
      <trkpt lat="44.48094" lon="-0.17382">
        <ele>107.32</ele>
        <time>2016-10-11T12:36:23Z</time>
      </trkpt>
      <trkpt lat="44.48102" lon="-0.17386">
        <ele>107.32</ele>
        <time>2016-10-11T12:36:36Z</time>
      </trkpt>
      <trkpt lat="44.48105" lon="-0.1739">
        <ele>107.32</ele>
        <time>2016-10-11T12:36:49Z</time>
      </trkpt>
      <trkpt lat="44.4811" lon="-0.17395">
        <ele>107.32</ele>
        <time>2016-10-11T12:37:04Z</time>
      </trkpt>
      <trkpt lat="44.48115" lon="-0.17395">
        <ele>107.32</ele>
        <time>2016-10-11T12:37:22Z</time>
      </trkpt>
      <trkpt lat="44.48118" lon="-0.17391">
        <ele>106.84</ele>
        <time>2016-10-11T12:37:48Z</time>
      </trkpt>
      <trkpt lat="44.48121" lon="-0.1739">
        <ele>106.84</ele>
        <time>2016-10-11T12:38:11Z</time>
      </trkpt>
      <trkpt lat="44.4812" lon="-0.17387">
        <ele>106.84</ele>
        <time>2016-10-11T12:38:33Z</time>
      </trkpt>
      <trkpt lat="44.48119" lon="-0.17387">
        <ele>106.84</ele>
        <time>2016-10-11T12:39:03Z</time>
      </trkpt>
      <trkpt lat="44.4812" lon="-0.17391">
        <ele>106.84</ele>
        <time>2016-10-11T12:39:34Z</time>
      </trkpt>
      <trkpt lat="44.48121" lon="-0.17394">
        <ele>106.84</ele>
        <time>2016-10-11T12:39:58Z</time>
      </trkpt>
      <trkpt lat="44.48119" lon="-0.17386">
        <ele>106.84</ele>
        <time>2016-10-11T12:40:25Z</time>
      </trkpt>
      <trkpt lat="44.48124" lon="-0.17393">
        <ele>107.32</ele>
        <time>2016-10-11T12:40:52Z</time>
      </trkpt>
      <trkpt lat="44.48123" lon="-0.17393">
        <ele>107.32</ele>
        <time>2016-10-11T12:41:24Z</time>
      </trkpt>
      <trkpt lat="44.48122" lon="-0.17397">
        <ele>107.32</ele>
        <time>2016-10-11T12:41:47Z</time>
      </trkpt>
      <trkpt lat="44.48127" lon="-0.17401">
        <ele>107.81</ele>
        <time>2016-10-11T12:42:04Z</time>
      </trkpt>
      <trkpt lat="44.48121" lon="-0.17398">
        <ele>107.81</ele>
        <time>2016-10-11T12:42:33Z</time>
      </trkpt>
      <trkpt lat="44.48126" lon="-0.17396">
        <ele>107.81</ele>
        <time>2016-10-11T12:43:01Z</time>
      </trkpt>
      <trkpt lat="44.48123" lon="-0.17395">
        <ele>107.81</ele>
        <time>2016-10-11T12:43:33Z</time>
      </trkpt>
      <trkpt lat="44.4812" lon="-0.17382">
        <ele>107.81</ele>
        <time>2016-10-11T12:43:53Z</time>
      </trkpt>
      <trkpt lat="44.48115" lon="-0.1739">
        <ele>107.81</ele>
        <time>2016-10-11T12:44:17Z</time>
      </trkpt>
      <trkpt lat="44.48113" lon="-0.17391">
        <ele>107.81</ele>
        <time>2016-10-11T12:44:43Z</time>
      </trkpt>
      <trkpt lat="44.48119" lon="-0.17394">
        <ele>108.29</ele>
        <time>2016-10-11T12:45:06Z</time>
      </trkpt>
      <trkpt lat="44.48115" lon="-0.17391">
        <ele>108.29</ele>
        <time>2016-10-11T12:45:34Z</time>
      </trkpt>
      <trkpt lat="44.48117" lon="-0.17396">
        <ele>108.29</ele>
        <time>2016-10-11T12:45:57Z</time>
      </trkpt>
      <trkpt lat="44.48113" lon="-0.17399">
        <ele>108.29</ele>
        <time>2016-10-11T12:46:23Z</time>
      </trkpt>
      <trkpt lat="44.48116" lon="-0.17396">
        <ele>107.81</ele>
        <time>2016-10-11T12:46:43Z</time>
      </trkpt>
      <trkpt lat="44.48117" lon="-0.17394">
        <ele>107.81</ele>
        <time>2016-10-11T12:47:06Z</time>
      </trkpt>
      <trkpt lat="44.48117" lon="-0.17393">
        <ele>107.81</ele>
        <time>2016-10-11T12:47:31Z</time>
      </trkpt>
      <trkpt lat="44.48112" lon="-0.17397">
        <ele>107.81</ele>
        <time>2016-10-11T12:47:56Z</time>
      </trkpt>
      <trkpt lat="44.48111" lon="-0.17396">
        <ele>107.81</ele>
        <time>2016-10-11T12:48:16Z</time>
      </trkpt>
      <trkpt lat="44.48107" lon="-0.17394">
        <ele>107.81</ele>
        <time>2016-10-11T12:48:38Z</time>
      </trkpt>
      <trkpt lat="44.48107" lon="-0.17395">
        <ele>107.81</ele>
        <time>2016-10-11T12:49:06Z</time>
      </trkpt>
      <trkpt lat="44.48106" lon="-0.17399">
        <ele>107.81</ele>
        <time>2016-10-11T12:49:19Z</time>
      </trkpt>
      <trkpt lat="44.48105" lon="-0.17404">
        <ele>109.25</ele>
        <time>2016-10-11T12:58:32Z</time>
      </trkpt>
      <trkpt lat="44.48111" lon="-0.17399">
        <ele>109.25</ele>
        <time>2016-10-11T12:58:46Z</time>
      </trkpt>
      <trkpt lat="44.48109" lon="-0.17396">
        <ele>109.25</ele>
        <time>2016-10-11T12:59:10Z</time>
      </trkpt>
      <trkpt lat="44.48116" lon="-0.17395">
        <ele>109.25</ele>
        <time>2016-10-11T12:59:30Z</time>
      </trkpt>
      <trkpt lat="44.48119" lon="-0.17389">
        <ele>109.25</ele>
        <time>2016-10-11T12:59:51Z</time>
      </trkpt>
      <trkpt lat="44.48125" lon="-0.17389">
        <ele>109.25</ele>
        <time>2016-10-11T13:00:09Z</time>
      </trkpt>
      <trkpt lat="44.48129" lon="-0.17385">
        <ele>109.25</ele>
        <time>2016-10-11T13:00:22Z</time>
      </trkpt>
      <trkpt lat="44.48128" lon="-0.17381">
        <ele>109.25</ele>
        <time>2016-10-11T13:00:34Z</time>
      </trkpt>
      <trkpt lat="44.48128" lon="-0.17386">
        <ele>108.77</ele>
        <time>2016-10-11T13:00:46Z</time>
      </trkpt>
      <trkpt lat="44.48129" lon="-0.17386">
        <ele>108.77</ele>
        <time>2016-10-11T13:01:07Z</time>
      </trkpt>
      <trkpt lat="44.4813" lon="-0.17384">
        <ele>108.77</ele>
        <time>2016-10-11T13:01:23Z</time>
      </trkpt>
      <trkpt lat="44.48129" lon="-0.17384">
        <ele>108.77</ele>
        <time>2016-10-11T13:01:35Z</time>
      </trkpt>
      <trkpt lat="44.4813" lon="-0.17383">
        <ele>108.77</ele>
        <time>2016-10-11T13:01:55Z</time>
      </trkpt>
      <trkpt lat="44.48139" lon="-0.17375">
        <ele>108.77</ele>
        <time>2016-10-11T13:02:12Z</time>
      </trkpt>
      <trkpt lat="44.48145" lon="-0.1738">
        <ele>108.77</ele>
        <time>2016-10-11T13:02:22Z</time>
      </trkpt>
      <trkpt lat="44.48157" lon="-0.17389">
        <ele>108.77</ele>
        <time>2016-10-11T13:02:36Z</time>
      </trkpt>
      <trkpt lat="44.48171" lon="-0.17398">
        <ele>108.77</ele>
        <time>2016-10-11T13:02:52Z</time>
      </trkpt>
      <trkpt lat="44.48186" lon="-0.17408">
        <ele>108.77</ele>
        <time>2016-10-11T13:03:10Z</time>
      </trkpt>
      <trkpt lat="44.48197" lon="-0.17414">
        <ele>108.77</ele>
        <time>2016-10-11T13:03:24Z</time>
      </trkpt>
      <trkpt lat="44.48201" lon="-0.17418">
        <ele>108.77</ele>
        <time>2016-10-11T13:03:29Z</time>
      </trkpt>
      <trkpt lat="44.48203" lon="-0.17418">
        <ele>108.77</ele>
        <time>2016-10-11T13:03:31Z</time>
      </trkpt>
      <trkpt lat="44.48205" lon="-0.1742">
        <ele>108.77</ele>
        <time>2016-10-11T13:03:33Z</time>
      </trkpt>
      <trkpt lat="44.48215" lon="-0.17432">
        <ele>109.25</ele>
        <time>2016-10-11T13:03:45Z</time>
      </trkpt>
      <trkpt lat="44.4822" lon="-0.1744">
        <ele>109.25</ele>
        <time>2016-10-11T13:03:52Z</time>
      </trkpt>
      <trkpt lat="44.4823" lon="-0.17463">
        <ele>109.25</ele>
        <time>2016-10-11T13:04:10Z</time>
      </trkpt>
      <trkpt lat="44.48239" lon="-0.17484">
        <ele>109.25</ele>
        <time>2016-10-11T13:04:27Z</time>
      </trkpt>
      <trkpt lat="44.48245" lon="-0.175">
        <ele>109.25</ele>
        <time>2016-10-11T13:04:42Z</time>
      </trkpt>
      <trkpt lat="44.48249" lon="-0.17511">
        <ele>109.25</ele>
        <time>2016-10-11T13:04:54Z</time>
      </trkpt>
      <trkpt lat="44.48254" lon="-0.17518">
        <ele>109.25</ele>
        <time>2016-10-11T13:05:03Z</time>
      </trkpt>
      <trkpt lat="44.48257" lon="-0.17526">
        <ele>109.25</ele>
        <time>2016-10-11T13:05:16Z</time>
      </trkpt>
      <trkpt lat="44.4826" lon="-0.17531">
        <ele>109.25</ele>
        <time>2016-10-11T13:05:29Z</time>
      </trkpt>
      <trkpt lat="44.48262" lon="-0.17541">
        <ele>109.25</ele>
        <time>2016-10-11T13:05:40Z</time>
      </trkpt>
      <trkpt lat="44.48271" lon="-0.1755">
        <ele>109.25</ele>
        <time>2016-10-11T13:05:56Z</time>
      </trkpt>
      <trkpt lat="44.48279" lon="-0.17563">
        <ele>109.25</ele>
        <time>2016-10-11T13:06:07Z</time>
      </trkpt>
      <trkpt lat="44.48284" lon="-0.1758">
        <ele>109.25</ele>
        <time>2016-10-11T13:06:22Z</time>
      </trkpt>
      <trkpt lat="44.48281" lon="-0.17581">
        <ele>109.25</ele>
        <time>2016-10-11T13:06:34Z</time>
      </trkpt>
      <trkpt lat="44.48282" lon="-0.1758">
        <ele>109.73</ele>
        <time>2016-10-11T13:07:01Z</time>
      </trkpt>
      <trkpt lat="44.48279" lon="-0.17576">
        <ele>109.73</ele>
        <time>2016-10-11T13:07:22Z</time>
      </trkpt>
      <trkpt lat="44.48275" lon="-0.17565">
        <ele>109.73</ele>
        <time>2016-10-11T13:07:44Z</time>
      </trkpt>
      <trkpt lat="44.48273" lon="-0.17571">
        <ele>109.73</ele>
        <time>2016-10-11T13:08:06Z</time>
      </trkpt>
      <trkpt lat="44.48278" lon="-0.17578">
        <ele>109.73</ele>
        <time>2016-10-11T13:08:27Z</time>
      </trkpt>
      <trkpt lat="44.48278" lon="-0.17582">
        <ele>109.73</ele>
        <time>2016-10-11T13:08:35Z</time>
      </trkpt>
      <trkpt lat="44.48281" lon="-0.1759">
        <ele>109.73</ele>
        <time>2016-10-11T13:08:48Z</time>
      </trkpt>
      <trkpt lat="44.48279" lon="-0.17588">
        <ele>109.25</ele>
        <time>2016-10-11T13:09:02Z</time>
      </trkpt>
      <trkpt lat="44.48277" lon="-0.17585">
        <ele>109.25</ele>
        <time>2016-10-11T13:09:16Z</time>
      </trkpt>
      <trkpt lat="44.48277" lon="-0.17583">
        <ele>109.25</ele>
        <time>2016-10-11T13:09:31Z</time>
      </trkpt>
      <trkpt lat="44.48276" lon="-0.17587">
        <ele>109.25</ele>
        <time>2016-10-11T13:09:58Z</time>
      </trkpt>
      <trkpt lat="44.48278" lon="-0.17585">
        <ele>109.25</ele>
        <time>2016-10-11T13:10:20Z</time>
      </trkpt>
      <trkpt lat="44.48279" lon="-0.17585">
        <ele>109.25</ele>
        <time>2016-10-11T13:10:41Z</time>
      </trkpt>
      <trkpt lat="44.48282" lon="-0.17589">
        <ele>109.25</ele>
        <time>2016-10-11T13:10:49Z</time>
      </trkpt>
      <trkpt lat="44.48294" lon="-0.17591">
        <ele>109.25</ele>
        <time>2016-10-11T13:11:04Z</time>
      </trkpt>
      <trkpt lat="44.48305" lon="-0.17591">
        <ele>109.25</ele>
        <time>2016-10-11T13:11:14Z</time>
      </trkpt>
      <trkpt lat="44.48315" lon="-0.17588">
        <ele>109.25</ele>
        <time>2016-10-11T13:11:26Z</time>
      </trkpt>
      <trkpt lat="44.48331" lon="-0.17583">
        <ele>109.73</ele>
        <time>2016-10-11T13:11:41Z</time>
      </trkpt>
      <trkpt lat="44.48343" lon="-0.17579">
        <ele>109.73</ele>
        <time>2016-10-11T13:11:55Z</time>
      </trkpt>
      <trkpt lat="44.48355" lon="-0.17574">
        <ele>109.73</ele>
        <time>2016-10-11T13:12:10Z</time>
      </trkpt>
      <trkpt lat="44.48369" lon="-0.17568">
        <ele>109.73</ele>
        <time>2016-10-11T13:12:27Z</time>
      </trkpt>
      <trkpt lat="44.48372" lon="-0.17562">
        <ele>109.73</ele>
        <time>2016-10-11T13:12:42Z</time>
      </trkpt>
      <trkpt lat="44.48374" lon="-0.1756">
        <ele>109.25</ele>
        <time>2016-10-11T13:12:54Z</time>
      </trkpt>
      <trkpt lat="44.48373" lon="-0.17553">
        <ele>109.25</ele>
        <time>2016-10-11T13:13:08Z</time>
      </trkpt>
      <trkpt lat="44.48371" lon="-0.17544">
        <ele>109.25</ele>
        <time>2016-10-11T13:13:21Z</time>
      </trkpt>
      <trkpt lat="44.48365" lon="-0.17528">
        <ele>109.25</ele>
        <time>2016-10-11T13:13:37Z</time>
      </trkpt>
      <trkpt lat="44.4836" lon="-0.17507">
        <ele>109.25</ele>
        <time>2016-10-11T13:13:54Z</time>
      </trkpt>
      <trkpt lat="44.48354" lon="-0.17491">
        <ele>109.25</ele>
        <time>2016-10-11T13:14:07Z</time>
      </trkpt>
      <trkpt lat="44.48358" lon="-0.17465">
        <ele>106.84</ele>
        <time>2016-10-11T13:14:26Z</time>
      </trkpt>
      <trkpt lat="44.4837" lon="-0.17445">
        <ele>105.4</ele>
        <time>2016-10-11T13:14:43Z</time>
      </trkpt>
      <trkpt lat="44.48383" lon="-0.17421">
        <ele>104.44</ele>
        <time>2016-10-11T13:15:02Z</time>
      </trkpt>
      <trkpt lat="44.48397" lon="-0.17399">
        <ele>103</ele>
        <time>2016-10-11T13:15:20Z</time>
      </trkpt>
      <trkpt lat="44.4841" lon="-0.17377">
        <ele>101.56</ele>
        <time>2016-10-11T13:15:39Z</time>
      </trkpt>
      <trkpt lat="44.48422" lon="-0.17357">
        <ele>99.63</ele>
        <time>2016-10-11T13:15:56Z</time>
      </trkpt>
      <trkpt lat="44.48435" lon="-0.17335">
        <ele>97.71</ele>
        <time>2016-10-11T13:16:15Z</time>
      </trkpt>
      <trkpt lat="44.48447" lon="-0.17315">
        <ele>95.79</ele>
        <time>2016-10-11T13:16:32Z</time>
      </trkpt>
      <trkpt lat="44.48459" lon="-0.17297">
        <ele>94.35</ele>
        <time>2016-10-11T13:16:47Z</time>
      </trkpt>
      <trkpt lat="44.48472" lon="-0.17279">
        <ele>92.9</ele>
        <time>2016-10-11T13:17:03Z</time>
      </trkpt>
      <trkpt lat="44.48488" lon="-0.17258">
        <ele>91.46</ele>
        <time>2016-10-11T13:17:22Z</time>
      </trkpt>
      <trkpt lat="44.48503" lon="-0.1724">
        <ele>90.5</ele>
        <time>2016-10-11T13:17:40Z</time>
      </trkpt>
      <trkpt lat="44.48519" lon="-0.17226">
        <ele>89.06</ele>
        <time>2016-10-11T13:17:56Z</time>
      </trkpt>
      <trkpt lat="44.48533" lon="-0.17211">
        <ele>87.14</ele>
        <time>2016-10-11T13:18:12Z</time>
      </trkpt>
      <trkpt lat="44.48546" lon="-0.17194">
        <ele>84.73</ele>
        <time>2016-10-11T13:18:28Z</time>
      </trkpt>
      <trkpt lat="44.48557" lon="-0.17174">
        <ele>83.77</ele>
        <time>2016-10-11T13:18:44Z</time>
      </trkpt>
      <trkpt lat="44.48568" lon="-0.17153">
        <ele>82.33</ele>
        <time>2016-10-11T13:19:00Z</time>
      </trkpt>
      <trkpt lat="44.48577" lon="-0.17129">
        <ele>79.93</ele>
        <time>2016-10-11T13:19:17Z</time>
      </trkpt>
      <trkpt lat="44.48581" lon="-0.17116">
        <ele>78.97</ele>
        <time>2016-10-11T13:19:26Z</time>
      </trkpt>
      <trkpt lat="44.48591" lon="-0.17087">
        <ele>77.52</ele>
        <time>2016-10-11T13:19:46Z</time>
      </trkpt>
      <trkpt lat="44.48598" lon="-0.17057">
        <ele>76.08</ele>
        <time>2016-10-11T13:20:05Z</time>
      </trkpt>
      <trkpt lat="44.48599" lon="-0.17028">
        <ele>74.64</ele>
        <time>2016-10-11T13:20:21Z</time>
      </trkpt>
      <trkpt lat="44.48599" lon="-0.17002">
        <ele>72.72</ele>
        <time>2016-10-11T13:20:38Z</time>
      </trkpt>
      <trkpt lat="44.48598" lon="-0.16973">
        <ele>71.27</ele>
        <time>2016-10-11T13:20:57Z</time>
      </trkpt>
      <trkpt lat="44.48597" lon="-0.16948">
        <ele>69.83</ele>
        <time>2016-10-11T13:21:13Z</time>
      </trkpt>
      <trkpt lat="44.48593" lon="-0.1692">
        <ele>69.35</ele>
        <time>2016-10-11T13:21:31Z</time>
      </trkpt>
      <trkpt lat="44.48588" lon="-0.16903">
        <ele>68.87</ele>
        <time>2016-10-11T13:21:45Z</time>
      </trkpt>
      <trkpt lat="44.48586" lon="-0.1688">
        <ele>67.91</ele>
        <time>2016-10-11T13:22:00Z</time>
      </trkpt>
      <trkpt lat="44.48581" lon="-0.16856">
        <ele>67.91</ele>
        <time>2016-10-11T13:22:16Z</time>
      </trkpt>
      <trkpt lat="44.48578" lon="-0.16831">
        <ele>67.91</ele>
        <time>2016-10-11T13:22:32Z</time>
      </trkpt>
      <trkpt lat="44.48577" lon="-0.16809">
        <ele>67.43</ele>
        <time>2016-10-11T13:22:49Z</time>
      </trkpt>
      <trkpt lat="44.48575" lon="-0.1679">
        <ele>66.47</ele>
        <time>2016-10-11T13:23:05Z</time>
      </trkpt>
      <trkpt lat="44.48579" lon="-0.16771">
        <ele>66.47</ele>
        <time>2016-10-11T13:23:20Z</time>
      </trkpt>
      <trkpt lat="44.48583" lon="-0.16753">
        <ele>65.99</ele>
        <time>2016-10-11T13:23:34Z</time>
      </trkpt>
      <trkpt lat="44.48584" lon="-0.16732">
        <ele>66.47</ele>
        <time>2016-10-11T13:23:47Z</time>
      </trkpt>
      <trkpt lat="44.48588" lon="-0.16708">
        <ele>65.99</ele>
        <time>2016-10-11T13:24:02Z</time>
      </trkpt>
      <trkpt lat="44.48588" lon="-0.16685">
        <ele>65.51</ele>
        <time>2016-10-11T13:24:16Z</time>
      </trkpt>
      <trkpt lat="44.48585" lon="-0.16664">
        <ele>65.51</ele>
        <time>2016-10-11T13:24:29Z</time>
      </trkpt>
      <trkpt lat="44.48589" lon="-0.16649">
        <ele>65.51</ele>
        <time>2016-10-11T13:24:41Z</time>
      </trkpt>
      <trkpt lat="44.48598" lon="-0.16629">
        <ele>65.99</ele>
        <time>2016-10-11T13:24:56Z</time>
      </trkpt>
      <trkpt lat="44.48601" lon="-0.1662">
        <ele>65.99</ele>
        <time>2016-10-11T13:25:03Z</time>
      </trkpt>
      <trkpt lat="44.48605" lon="-0.16603">
        <ele>66.95</ele>
        <time>2016-10-11T13:25:18Z</time>
      </trkpt>
      <trkpt lat="44.48599" lon="-0.1657">
        <ele>66.95</ele>
        <time>2016-10-11T13:25:33Z</time>
      </trkpt>
      <trkpt lat="44.48568" lon="-0.16533">
        <ele>66.95</ele>
        <time>2016-10-11T13:25:47Z</time>
      </trkpt>
      <trkpt lat="44.48555" lon="-0.16503">
        <ele>65.51</ele>
        <time>2016-10-11T13:26:01Z</time>
      </trkpt>
      <trkpt lat="44.48541" lon="-0.16478">
        <ele>65.03</ele>
        <time>2016-10-11T13:26:19Z</time>
      </trkpt>
      <trkpt lat="44.48524" lon="-0.16466">
        <ele>64.07</ele>
        <time>2016-10-11T13:26:32Z</time>
      </trkpt>
      <trkpt lat="44.48515" lon="-0.16454">
        <ele>64.07</ele>
        <time>2016-10-11T13:26:43Z</time>
      </trkpt>
      <trkpt lat="44.4851" lon="-0.16433">
        <ele>63.1</ele>
        <time>2016-10-11T13:26:59Z</time>
      </trkpt>
      <trkpt lat="44.48506" lon="-0.16422">
        <ele>63.58</ele>
        <time>2016-10-11T13:27:07Z</time>
      </trkpt>
      <trkpt lat="44.48496" lon="-0.16402">
        <ele>64.07</ele>
        <time>2016-10-11T13:27:21Z</time>
      </trkpt>
      <trkpt lat="44.48495" lon="-0.164">
        <ele>62.62</ele>
        <time>2016-10-11T13:27:22Z</time>
      </trkpt>
      <trkpt lat="44.48492" lon="-0.16375">
        <ele>62.14</ele>
        <time>2016-10-11T13:27:39Z</time>
      </trkpt>
      <trkpt lat="44.48497" lon="-0.16354">
        <ele>62.14</ele>
        <time>2016-10-11T13:27:52Z</time>
      </trkpt>
      <trkpt lat="44.48498" lon="-0.16349">
        <ele>61.66</ele>
        <time>2016-10-11T13:27:56Z</time>
      </trkpt>
      <trkpt lat="44.48494" lon="-0.16317">
        <ele>60.7</ele>
        <time>2016-10-11T13:28:16Z</time>
      </trkpt>
      <trkpt lat="44.48493" lon="-0.16311">
        <ele>60.22</ele>
        <time>2016-10-11T13:28:20Z</time>
      </trkpt>
      <trkpt lat="44.48494" lon="-0.16304">
        <ele>60.22</ele>
        <time>2016-10-11T13:28:24Z</time>
      </trkpt>
      <trkpt lat="44.48498" lon="-0.16274">
        <ele>58.78</ele>
        <time>2016-10-11T13:28:42Z</time>
      </trkpt>
      <trkpt lat="44.48498" lon="-0.16256">
        <ele>57.82</ele>
        <time>2016-10-11T13:28:59Z</time>
      </trkpt>
      <trkpt lat="44.48497" lon="-0.16255">
        <ele>57.82</ele>
        <time>2016-10-11T13:29:04Z</time>
      </trkpt>
      <trkpt lat="44.48495" lon="-0.16216">
        <ele>56.37</ele>
        <time>2016-10-11T13:29:25Z</time>
      </trkpt>
      <trkpt lat="44.48489" lon="-0.1619">
        <ele>55.41</ele>
        <time>2016-10-11T13:29:41Z</time>
      </trkpt>
      <trkpt lat="44.48481" lon="-0.16162">
        <ele>54.93</ele>
        <time>2016-10-11T13:29:59Z</time>
      </trkpt>
      <trkpt lat="44.48476" lon="-0.16133">
        <ele>53.97</ele>
        <time>2016-10-11T13:30:16Z</time>
      </trkpt>
      <trkpt lat="44.48472" lon="-0.161">
        <ele>53.49</ele>
        <time>2016-10-11T13:30:35Z</time>
      </trkpt>
      <trkpt lat="44.48466" lon="-0.16067">
        <ele>53.01</ele>
        <time>2016-10-11T13:30:54Z</time>
      </trkpt>
      <trkpt lat="44.4846" lon="-0.16035">
        <ele>52.53</ele>
        <time>2016-10-11T13:31:13Z</time>
      </trkpt>
      <trkpt lat="44.48455" lon="-0.16007">
        <ele>52.05</ele>
        <time>2016-10-11T13:31:30Z</time>
      </trkpt>
      <trkpt lat="44.4845" lon="-0.15981">
        <ele>51.09</ele>
        <time>2016-10-11T13:31:46Z</time>
      </trkpt>
      <trkpt lat="44.48443" lon="-0.15953">
        <ele>50.61</ele>
        <time>2016-10-11T13:32:04Z</time>
      </trkpt>
      <trkpt lat="44.48432" lon="-0.15924">
        <ele>49.65</ele>
        <time>2016-10-11T13:32:23Z</time>
      </trkpt>
      <trkpt lat="44.4842" lon="-0.15903">
        <ele>49.65</ele>
        <time>2016-10-11T13:32:39Z</time>
      </trkpt>
      <trkpt lat="44.48403" lon="-0.15882">
        <ele>49.65</ele>
        <time>2016-10-11T13:32:58Z</time>
      </trkpt>
      <trkpt lat="44.48386" lon="-0.15864">
        <ele>48.68</ele>
        <time>2016-10-11T13:33:16Z</time>
      </trkpt>
      <trkpt lat="44.48367" lon="-0.15845">
        <ele>47.72</ele>
        <time>2016-10-11T13:33:35Z</time>
      </trkpt>
      <trkpt lat="44.48349" lon="-0.1584">
        <ele>47.24</ele>
        <time>2016-10-11T13:33:51Z</time>
      </trkpt>
      <trkpt lat="44.4833" lon="-0.15845">
        <ele>46.76</ele>
        <time>2016-10-11T13:34:09Z</time>
      </trkpt>
      <trkpt lat="44.48322" lon="-0.15845">
        <ele>46.28</ele>
        <time>2016-10-11T13:34:24Z</time>
      </trkpt>
      <trkpt lat="44.48321" lon="-0.15842">
        <ele>45.32</ele>
        <time>2016-10-11T13:34:38Z</time>
      </trkpt>
      <trkpt lat="44.48323" lon="-0.15837">
        <ele>45.32</ele>
        <time>2016-10-11T13:34:58Z</time>
      </trkpt>
      <trkpt lat="44.48324" lon="-0.15835">
        <ele>44.84</ele>
        <time>2016-10-11T13:35:16Z</time>
      </trkpt>
      <trkpt lat="44.48324" lon="-0.15833">
        <ele>44.36</ele>
        <time>2016-10-11T13:35:38Z</time>
      </trkpt>
      <trkpt lat="44.48326" lon="-0.15834">
        <ele>44.36</ele>
        <time>2016-10-11T13:36:02Z</time>
      </trkpt>
      <trkpt lat="44.48324" lon="-0.15831">
        <ele>44.36</ele>
        <time>2016-10-11T13:36:23Z</time>
      </trkpt>
      <trkpt lat="44.48324" lon="-0.15833">
        <ele>43.88</ele>
        <time>2016-10-11T13:36:52Z</time>
      </trkpt>
      <trkpt lat="44.48325" lon="-0.15834">
        <ele>43.88</ele>
        <time>2016-10-11T13:37:19Z</time>
      </trkpt>
      <trkpt lat="44.48322" lon="-0.1583">
        <ele>43.4</ele>
        <time>2016-10-11T13:37:50Z</time>
      </trkpt>
      <trkpt lat="44.48322" lon="-0.15832">
        <ele>43.4</ele>
        <time>2016-10-11T13:38:22Z</time>
      </trkpt>
      <trkpt lat="44.48322" lon="-0.15833">
        <ele>43.4</ele>
        <time>2016-10-11T13:38:46Z</time>
      </trkpt>
      <trkpt lat="44.48325" lon="-0.15833">
        <ele>43.4</ele>
        <time>2016-10-11T13:39:06Z</time>
      </trkpt>
      <trkpt lat="44.48325" lon="-0.1583">
        <ele>42.92</ele>
        <time>2016-10-11T13:39:26Z</time>
      </trkpt>
      <trkpt lat="44.48324" lon="-0.15831">
        <ele>42.92</ele>
        <time>2016-10-11T13:39:53Z</time>
      </trkpt>
      <trkpt lat="44.48325" lon="-0.15832">
        <ele>42.92</ele>
        <time>2016-10-11T13:40:16Z</time>
      </trkpt>
      <trkpt lat="44.48324" lon="-0.15834">
        <ele>42.92</ele>
        <time>2016-10-11T13:40:41Z</time>
      </trkpt>
      <trkpt lat="44.48326" lon="-0.1583">
        <ele>42.44</ele>
        <time>2016-10-11T13:40:59Z</time>
      </trkpt>
      <trkpt lat="44.48325" lon="-0.15833">
        <ele>42.44</ele>
        <time>2016-10-11T13:41:16Z</time>
      </trkpt>
      <trkpt lat="44.48326" lon="-0.15835">
        <ele>42.44</ele>
        <time>2016-10-11T13:41:40Z</time>
      </trkpt>
      <trkpt lat="44.48326" lon="-0.15834">
        <ele>41.95</ele>
        <time>2016-10-11T13:42:08Z</time>
      </trkpt>
      <trkpt lat="44.48326" lon="-0.15834">
        <ele>41.95</ele>
        <time>2016-10-11T13:42:34Z</time>
      </trkpt>
      <trkpt lat="44.48326" lon="-0.15834">
        <ele>41.95</ele>
        <time>2016-10-11T13:43:10Z</time>
      </trkpt>
      <trkpt lat="44.48326" lon="-0.15832">
        <ele>41.47</ele>
        <time>2016-10-11T13:43:36Z</time>
      </trkpt>
      <trkpt lat="44.48325" lon="-0.15833">
        <ele>41.47</ele>
        <time>2016-10-11T13:44:04Z</time>
      </trkpt>
      <trkpt lat="44.48326" lon="-0.15833">
        <ele>40.99</ele>
        <time>2016-10-11T13:44:33Z</time>
      </trkpt>
      <trkpt lat="44.48332" lon="-0.15825">
        <ele>40.99</ele>
        <time>2016-10-11T13:44:47Z</time>
      </trkpt>
      <trkpt lat="44.48335" lon="-0.15813">
        <ele>40.99</ele>
        <time>2016-10-11T13:45:03Z</time>
      </trkpt>
      <trkpt lat="44.48331" lon="-0.15794">
        <ele>40.51</ele>
        <time>2016-10-11T13:45:19Z</time>
      </trkpt>
      <trkpt lat="44.48332" lon="-0.15787">
        <ele>40.03</ele>
        <time>2016-10-11T13:45:24Z</time>
      </trkpt>
      <trkpt lat="44.48329" lon="-0.15767">
        <ele>40.03</ele>
        <time>2016-10-11T13:45:40Z</time>
      </trkpt>
      <trkpt lat="44.48325" lon="-0.1576">
        <ele>40.03</ele>
        <time>2016-10-11T13:45:53Z</time>
      </trkpt>
      <trkpt lat="44.48322" lon="-0.1576">
        <ele>40.03</ele>
        <time>2016-10-11T13:46:10Z</time>
      </trkpt>
      <trkpt lat="44.48321" lon="-0.1575">
        <ele>40.03</ele>
        <time>2016-10-11T13:46:21Z</time>
      </trkpt>
      <trkpt lat="44.48315" lon="-0.15734">
        <ele>40.03</ele>
        <time>2016-10-11T13:46:37Z</time>
      </trkpt>
      <trkpt lat="44.48308" lon="-0.15717">
        <ele>40.03</ele>
        <time>2016-10-11T13:46:53Z</time>
      </trkpt>
      <trkpt lat="44.48303" lon="-0.15708">
        <ele>40.99</ele>
        <time>2016-10-11T13:47:00Z</time>
      </trkpt>
      <trkpt lat="44.48294" lon="-0.15685">
        <ele>41.95</ele>
        <time>2016-10-11T13:47:16Z</time>
      </trkpt>
      <trkpt lat="44.48292" lon="-0.15669">
        <ele>42.92</ele>
        <time>2016-10-11T13:47:33Z</time>
      </trkpt>
      <trkpt lat="44.48293" lon="-0.15665">
        <ele>42.92</ele>
        <time>2016-10-11T13:47:38Z</time>
      </trkpt>
      <trkpt lat="44.48305" lon="-0.1565">
        <ele>42.92</ele>
        <time>2016-10-11T13:47:56Z</time>
      </trkpt>
      <trkpt lat="44.48323" lon="-0.15634">
        <ele>42.92</ele>
        <time>2016-10-11T13:48:15Z</time>
      </trkpt>
      <trkpt lat="44.4834" lon="-0.15613">
        <ele>41.47</ele>
        <time>2016-10-11T13:48:34Z</time>
      </trkpt>
      <trkpt lat="44.48357" lon="-0.15593">
        <ele>41.47</ele>
        <time>2016-10-11T13:48:53Z</time>
      </trkpt>
      <trkpt lat="44.48376" lon="-0.15573">
        <ele>41.47</ele>
        <time>2016-10-11T13:49:15Z</time>
      </trkpt>
      <trkpt lat="44.48389" lon="-0.15561">
        <ele>41.47</ele>
        <time>2016-10-11T13:49:30Z</time>
      </trkpt>
      <trkpt lat="44.48411" lon="-0.15538">
        <ele>41.47</ele>
        <time>2016-10-11T13:49:52Z</time>
      </trkpt>
      <trkpt lat="44.48414" lon="-0.1553">
        <ele>42.92</ele>
        <time>2016-10-11T13:49:59Z</time>
      </trkpt>
      <trkpt lat="44.48415" lon="-0.15522">
        <ele>43.4</ele>
        <time>2016-10-11T13:50:03Z</time>
      </trkpt>
      <trkpt lat="44.48413" lon="-0.15492">
        <ele>44.36</ele>
        <time>2016-10-11T13:50:20Z</time>
      </trkpt>
      <trkpt lat="44.48409" lon="-0.15466">
        <ele>45.8</ele>
        <time>2016-10-11T13:50:37Z</time>
      </trkpt>
      <trkpt lat="44.48409" lon="-0.15438">
        <ele>47.72</ele>
        <time>2016-10-11T13:50:53Z</time>
      </trkpt>
      <trkpt lat="44.48408" lon="-0.15413">
        <ele>49.65</ele>
        <time>2016-10-11T13:51:10Z</time>
      </trkpt>
      <trkpt lat="44.48406" lon="-0.15388">
        <ele>52.05</ele>
        <time>2016-10-11T13:51:27Z</time>
      </trkpt>
      <trkpt lat="44.48406" lon="-0.15385">
        <ele>51.57</ele>
        <time>2016-10-11T13:51:30Z</time>
      </trkpt>
      <trkpt lat="44.48404" lon="-0.15355">
        <ele>53.97</ele>
        <time>2016-10-11T13:51:48Z</time>
      </trkpt>
      <trkpt lat="44.48403" lon="-0.15344">
        <ele>54.45</ele>
        <time>2016-10-11T13:51:56Z</time>
      </trkpt>
      <trkpt lat="44.48402" lon="-0.15316">
        <ele>55.41</ele>
        <time>2016-10-11T13:52:13Z</time>
      </trkpt>
      <trkpt lat="44.48402" lon="-0.15289">
        <ele>56.37</ele>
        <time>2016-10-11T13:52:31Z</time>
      </trkpt>
      <trkpt lat="44.48402" lon="-0.15259">
        <ele>57.34</ele>
        <time>2016-10-11T13:52:49Z</time>
      </trkpt>
      <trkpt lat="44.48403" lon="-0.15232">
        <ele>58.3</ele>
        <time>2016-10-11T13:53:06Z</time>
      </trkpt>
      <trkpt lat="44.48403" lon="-0.15208">
        <ele>59.74</ele>
        <time>2016-10-11T13:53:20Z</time>
      </trkpt>
      <trkpt lat="44.48403" lon="-0.1518">
        <ele>61.66</ele>
        <time>2016-10-11T13:53:38Z</time>
      </trkpt>
      <trkpt lat="44.48403" lon="-0.15156">
        <ele>64.07</ele>
        <time>2016-10-11T13:53:55Z</time>
      </trkpt>
      <trkpt lat="44.48402" lon="-0.15132">
        <ele>65.99</ele>
        <time>2016-10-11T13:54:11Z</time>
      </trkpt>
      <trkpt lat="44.48403" lon="-0.15108">
        <ele>67.91</ele>
        <time>2016-10-11T13:54:26Z</time>
      </trkpt>
      <trkpt lat="44.48404" lon="-0.15085">
        <ele>69.83</ele>
        <time>2016-10-11T13:54:41Z</time>
      </trkpt>
      <trkpt lat="44.48404" lon="-0.15075">
        <ele>70.31</ele>
        <time>2016-10-11T13:54:48Z</time>
      </trkpt>
      <trkpt lat="44.48403" lon="-0.15055">
        <ele>71.76</ele>
        <time>2016-10-11T13:55:03Z</time>
      </trkpt>
      <trkpt lat="44.48403" lon="-0.15032">
        <ele>74.16</ele>
        <time>2016-10-11T13:55:19Z</time>
      </trkpt>
      <trkpt lat="44.48404" lon="-0.1502">
        <ele>75.12</ele>
        <time>2016-10-11T13:55:28Z</time>
      </trkpt>
      <trkpt lat="44.48405" lon="-0.14997">
        <ele>77.52</ele>
        <time>2016-10-11T13:55:43Z</time>
      </trkpt>
      <trkpt lat="44.48406" lon="-0.14968">
        <ele>80.41</ele>
        <time>2016-10-11T13:56:01Z</time>
      </trkpt>
      <trkpt lat="44.48404" lon="-0.14945">
        <ele>82.33</ele>
        <time>2016-10-11T13:56:16Z</time>
      </trkpt>
      <trkpt lat="44.48401" lon="-0.14919">
        <ele>84.73</ele>
        <time>2016-10-11T13:56:33Z</time>
      </trkpt>
      <trkpt lat="44.48396" lon="-0.14892">
        <ele>87.14</ele>
        <time>2016-10-11T13:56:49Z</time>
      </trkpt>
      <trkpt lat="44.48391" lon="-0.14863">
        <ele>89.54</ele>
        <time>2016-10-11T13:57:07Z</time>
      </trkpt>
      <trkpt lat="44.48384" lon="-0.14837">
        <ele>91.46</ele>
        <time>2016-10-11T13:57:24Z</time>
      </trkpt>
      <trkpt lat="44.48378" lon="-0.14812">
        <ele>93.39</ele>
        <time>2016-10-11T13:57:41Z</time>
      </trkpt>
      <trkpt lat="44.48371" lon="-0.1478">
        <ele>96.27</ele>
        <time>2016-10-11T13:58:01Z</time>
      </trkpt>
      <trkpt lat="44.48371" lon="-0.14753">
        <ele>98.67</ele>
        <time>2016-10-11T13:58:18Z</time>
      </trkpt>
      <trkpt lat="44.48374" lon="-0.14747">
        <ele>99.63</ele>
        <time>2016-10-11T13:58:22Z</time>
      </trkpt>
      <trkpt lat="44.48387" lon="-0.14737">
        <ele>102.52</ele>
        <time>2016-10-11T13:58:38Z</time>
      </trkpt>
      <trkpt lat="44.48408" lon="-0.14726">
        <ele>104.44</ele>
        <time>2016-10-11T13:58:56Z</time>
      </trkpt>
      <trkpt lat="44.48417" lon="-0.14724">
        <ele>104.92</ele>
        <time>2016-10-11T13:59:08Z</time>
      </trkpt>
      <trkpt lat="44.48425" lon="-0.14724">
        <ele>104.92</ele>
        <time>2016-10-11T13:59:16Z</time>
      </trkpt>
      <trkpt lat="44.48437" lon="-0.14726">
        <ele>104.92</ele>
        <time>2016-10-11T13:59:33Z</time>
      </trkpt>
      <trkpt lat="44.48439" lon="-0.14724">
        <ele>104.44</ele>
        <time>2016-10-11T13:59:52Z</time>
      </trkpt>
      <trkpt lat="44.4844" lon="-0.14719">
        <ele>104.44</ele>
        <time>2016-10-11T14:00:07Z</time>
      </trkpt>
      <trkpt lat="44.48441" lon="-0.14717">
        <ele>104.44</ele>
        <time>2016-10-11T14:00:30Z</time>
      </trkpt>
      <trkpt lat="44.48445" lon="-0.14714">
        <ele>104.44</ele>
        <time>2016-10-11T14:00:53Z</time>
      </trkpt>
      <trkpt lat="44.48453" lon="-0.14708">
        <ele>104.44</ele>
        <time>2016-10-11T14:01:07Z</time>
      </trkpt>
      <trkpt lat="44.4846" lon="-0.14706">
        <ele>103</ele>
        <time>2016-10-11T14:01:19Z</time>
      </trkpt>
      <trkpt lat="44.48466" lon="-0.14703">
        <ele>102.52</ele>
        <time>2016-10-11T14:01:32Z</time>
      </trkpt>
      <trkpt lat="44.48476" lon="-0.14698">
        <ele>102.04</ele>
        <time>2016-10-11T14:01:47Z</time>
      </trkpt>
      <trkpt lat="44.48489" lon="-0.14692">
        <ele>102.04</ele>
        <time>2016-10-11T14:02:04Z</time>
      </trkpt>
      <trkpt lat="44.48502" lon="-0.14685">
        <ele>102.04</ele>
        <time>2016-10-11T14:02:19Z</time>
      </trkpt>
      <trkpt lat="44.48515" lon="-0.14675">
        <ele>102.04</ele>
        <time>2016-10-11T14:02:34Z</time>
      </trkpt>
      <trkpt lat="44.48521" lon="-0.1467">
        <ele>102.04</ele>
        <time>2016-10-11T14:02:47Z</time>
      </trkpt>
      <trkpt lat="44.48526" lon="-0.14666">
        <ele>102.04</ele>
        <time>2016-10-11T14:03:02Z</time>
      </trkpt>
      <trkpt lat="44.48527" lon="-0.14665">
        <ele>102.04</ele>
        <time>2016-10-11T14:03:04Z</time>
      </trkpt>
      <trkpt lat="44.48541" lon="-0.14655">
        <ele>103</ele>
        <time>2016-10-11T14:03:21Z</time>
      </trkpt>
      <trkpt lat="44.48554" lon="-0.14645">
        <ele>103.48</ele>
        <time>2016-10-11T14:03:37Z</time>
      </trkpt>
      <trkpt lat="44.48567" lon="-0.14632">
        <ele>104.44</ele>
        <time>2016-10-11T14:03:54Z</time>
      </trkpt>
      <trkpt lat="44.4858" lon="-0.14619">
        <ele>104.44</ele>
        <time>2016-10-11T14:04:11Z</time>
      </trkpt>
      <trkpt lat="44.48591" lon="-0.14602">
        <ele>105.4</ele>
        <time>2016-10-11T14:04:27Z</time>
      </trkpt>
      <trkpt lat="44.48601" lon="-0.14586">
        <ele>106.36</ele>
        <time>2016-10-11T14:04:43Z</time>
      </trkpt>
      <trkpt lat="44.4861" lon="-0.14569">
        <ele>107.32</ele>
        <time>2016-10-11T14:04:58Z</time>
      </trkpt>
      <trkpt lat="44.48621" lon="-0.1455">
        <ele>108.29</ele>
        <time>2016-10-11T14:05:14Z</time>
      </trkpt>
      <trkpt lat="44.48632" lon="-0.14528">
        <ele>108.29</ele>
        <time>2016-10-11T14:05:31Z</time>
      </trkpt>
      <trkpt lat="44.48637" lon="-0.14504">
        <ele>108.29</ele>
        <time>2016-10-11T14:05:48Z</time>
      </trkpt>
      <trkpt lat="44.48639" lon="-0.14494">
        <ele>108.29</ele>
        <time>2016-10-11T14:06:02Z</time>
      </trkpt>
      <trkpt lat="44.48638" lon="-0.14493">
        <ele>108.29</ele>
        <time>2016-10-11T14:06:25Z</time>
      </trkpt>
      <trkpt lat="44.48644" lon="-0.14489">
        <ele>108.29</ele>
        <time>2016-10-11T14:06:36Z</time>
      </trkpt>
      <trkpt lat="44.48664" lon="-0.14485">
        <ele>106.84</ele>
        <time>2016-10-11T14:06:55Z</time>
      </trkpt>
      <trkpt lat="44.48686" lon="-0.14481">
        <ele>105.88</ele>
        <time>2016-10-11T14:07:15Z</time>
      </trkpt>
      <trkpt lat="44.48692" lon="-0.1448">
        <ele>105.4</ele>
        <time>2016-10-11T14:07:20Z</time>
      </trkpt>
      <trkpt lat="44.48708" lon="-0.14478">
        <ele>103.96</ele>
        <time>2016-10-11T14:07:36Z</time>
      </trkpt>
      <trkpt lat="44.48725" lon="-0.14479">
        <ele>102.04</ele>
        <time>2016-10-11T14:07:53Z</time>
      </trkpt>
      <trkpt lat="44.4874" lon="-0.14481">
        <ele>100.11</ele>
        <time>2016-10-11T14:08:10Z</time>
      </trkpt>
      <trkpt lat="44.48755" lon="-0.14481">
        <ele>99.15</ele>
        <time>2016-10-11T14:08:26Z</time>
      </trkpt>
      <trkpt lat="44.4877" lon="-0.14481">
        <ele>98.19</ele>
        <time>2016-10-11T14:08:42Z</time>
      </trkpt>
      <trkpt lat="44.48785" lon="-0.14482">
        <ele>96.75</ele>
        <time>2016-10-11T14:08:57Z</time>
      </trkpt>
      <trkpt lat="44.48797" lon="-0.14489">
        <ele>95.31</ele>
        <time>2016-10-11T14:09:14Z</time>
      </trkpt>
      <trkpt lat="44.48808" lon="-0.14501">
        <ele>93.87</ele>
        <time>2016-10-11T14:09:29Z</time>
      </trkpt>
      <trkpt lat="44.48821" lon="-0.14517">
        <ele>92.9</ele>
        <time>2016-10-11T14:09:44Z</time>
      </trkpt>
      <trkpt lat="44.48844" lon="-0.14523">
        <ele>90.98</ele>
        <time>2016-10-11T14:10:01Z</time>
      </trkpt>
      <trkpt lat="44.48863" lon="-0.14523">
        <ele>89.06</ele>
        <time>2016-10-11T14:10:16Z</time>
      </trkpt>
      <trkpt lat="44.48882" lon="-0.14508">
        <ele>89.06</ele>
        <time>2016-10-11T14:10:30Z</time>
      </trkpt>
      <trkpt lat="44.48898" lon="-0.14483">
        <ele>89.54</ele>
        <time>2016-10-11T14:10:46Z</time>
      </trkpt>
      <trkpt lat="44.48902" lon="-0.14477">
        <ele>90.5</ele>
        <time>2016-10-11T14:10:50Z</time>
      </trkpt>
      <trkpt lat="44.48917" lon="-0.14448">
        <ele>91.94</ele>
        <time>2016-10-11T14:11:09Z</time>
      </trkpt>
      <trkpt lat="44.48926" lon="-0.14422">
        <ele>92.42</ele>
        <time>2016-10-11T14:11:24Z</time>
      </trkpt>
      <trkpt lat="44.48936" lon="-0.1438">
        <ele>93.39</ele>
        <time>2016-10-11T14:11:44Z</time>
      </trkpt>
      <trkpt lat="44.48944" lon="-0.14346">
        <ele>93.87</ele>
        <time>2016-10-11T14:12:02Z</time>
      </trkpt>
      <trkpt lat="44.48946" lon="-0.14324">
        <ele>94.35</ele>
        <time>2016-10-11T14:12:15Z</time>
      </trkpt>
      <trkpt lat="44.48943" lon="-0.14297">
        <ele>94.83</ele>
        <time>2016-10-11T14:12:30Z</time>
      </trkpt>
      <trkpt lat="44.4894" lon="-0.14266">
        <ele>95.31</ele>
        <time>2016-10-11T14:12:49Z</time>
      </trkpt>
      <trkpt lat="44.48946" lon="-0.14241">
        <ele>95.31</ele>
        <time>2016-10-11T14:13:06Z</time>
      </trkpt>
      <trkpt lat="44.48958" lon="-0.14216">
        <ele>96.75</ele>
        <time>2016-10-11T14:13:25Z</time>
      </trkpt>
      <trkpt lat="44.48975" lon="-0.14202">
        <ele>97.23</ele>
        <time>2016-10-11T14:13:43Z</time>
      </trkpt>
      <trkpt lat="44.48995" lon="-0.14199">
        <ele>98.19</ele>
        <time>2016-10-11T14:14:00Z</time>
      </trkpt>
      <trkpt lat="44.49002" lon="-0.14199">
        <ele>99.15</ele>
        <time>2016-10-11T14:14:07Z</time>
      </trkpt>
      <trkpt lat="44.4902" lon="-0.14207">
        <ele>100.11</ele>
        <time>2016-10-11T14:14:24Z</time>
      </trkpt>
      <trkpt lat="44.49034" lon="-0.14214">
        <ele>100.6</ele>
        <time>2016-10-11T14:14:38Z</time>
      </trkpt>
      <trkpt lat="44.49051" lon="-0.14225">
        <ele>102.04</ele>
        <time>2016-10-11T14:14:55Z</time>
      </trkpt>
      <trkpt lat="44.49072" lon="-0.14235">
        <ele>103</ele>
        <time>2016-10-11T14:15:14Z</time>
      </trkpt>
      <trkpt lat="44.49074" lon="-0.14235">
        <ele>103</ele>
        <time>2016-10-11T14:15:16Z</time>
      </trkpt>
      <trkpt lat="44.49094" lon="-0.14241">
        <ele>104.44</ele>
        <time>2016-10-11T14:15:33Z</time>
      </trkpt>
      <trkpt lat="44.49111" lon="-0.14248">
        <ele>105.4</ele>
        <time>2016-10-11T14:15:49Z</time>
      </trkpt>
      <trkpt lat="44.4913" lon="-0.14249">
        <ele>106.36</ele>
        <time>2016-10-11T14:16:04Z</time>
      </trkpt>
      <trkpt lat="44.4915" lon="-0.14246">
        <ele>107.32</ele>
        <time>2016-10-11T14:16:21Z</time>
      </trkpt>
      <trkpt lat="44.49167" lon="-0.14245">
        <ele>108.29</ele>
        <time>2016-10-11T14:16:37Z</time>
      </trkpt>
      <trkpt lat="44.49187" lon="-0.1424">
        <ele>109.25</ele>
        <time>2016-10-11T14:16:55Z</time>
      </trkpt>
      <trkpt lat="44.49207" lon="-0.14238">
        <ele>109.25</ele>
        <time>2016-10-11T14:17:12Z</time>
      </trkpt>
      <trkpt lat="44.49227" lon="-0.14233">
        <ele>109.25</ele>
        <time>2016-10-11T14:17:30Z</time>
      </trkpt>
      <trkpt lat="44.49248" lon="-0.14225">
        <ele>109.25</ele>
        <time>2016-10-11T14:17:47Z</time>
      </trkpt>
      <trkpt lat="44.49267" lon="-0.1422">
        <ele>109.25</ele>
        <time>2016-10-11T14:18:03Z</time>
      </trkpt>
      <trkpt lat="44.49282" lon="-0.14219">
        <ele>109.73</ele>
        <time>2016-10-11T14:18:20Z</time>
      </trkpt>
      <trkpt lat="44.49286" lon="-0.14214">
        <ele>109.73</ele>
        <time>2016-10-11T14:18:36Z</time>
      </trkpt>
      <trkpt lat="44.49286" lon="-0.14214">
        <ele>109.73</ele>
        <time>2016-10-11T14:18:48Z</time>
      </trkpt>
      <trkpt lat="44.49289" lon="-0.14218">
        <ele>109.73</ele>
        <time>2016-10-11T14:18:52Z</time>
      </trkpt>
      <trkpt lat="44.49302" lon="-0.14216">
        <ele>109.73</ele>
        <time>2016-10-11T14:19:04Z</time>
      </trkpt>
      <trkpt lat="44.4932" lon="-0.1423">
        <ele>109.73</ele>
        <time>2016-10-11T14:19:22Z</time>
      </trkpt>
      <trkpt lat="44.4933" lon="-0.14248">
        <ele>109.73</ele>
        <time>2016-10-11T14:19:37Z</time>
      </trkpt>
      <trkpt lat="44.49344" lon="-0.14264">
        <ele>109.73</ele>
        <time>2016-10-11T14:19:53Z</time>
      </trkpt>
      <trkpt lat="44.49352" lon="-0.14275">
        <ele>109.73</ele>
        <time>2016-10-11T14:20:05Z</time>
      </trkpt>
      <trkpt lat="44.49367" lon="-0.14295">
        <ele>109.73</ele>
        <time>2016-10-11T14:20:22Z</time>
      </trkpt>
      <trkpt lat="44.4938" lon="-0.14314">
        <ele>110.21</ele>
        <time>2016-10-11T14:20:38Z</time>
      </trkpt>
      <trkpt lat="44.49394" lon="-0.14332">
        <ele>110.21</ele>
        <time>2016-10-11T14:20:54Z</time>
      </trkpt>
      <trkpt lat="44.49407" lon="-0.1435">
        <ele>110.21</ele>
        <time>2016-10-11T14:21:10Z</time>
      </trkpt>
      <trkpt lat="44.49422" lon="-0.14371">
        <ele>110.21</ele>
        <time>2016-10-11T14:21:28Z</time>
      </trkpt>
      <trkpt lat="44.49436" lon="-0.14389">
        <ele>110.21</ele>
        <time>2016-10-11T14:21:44Z</time>
      </trkpt>
      <trkpt lat="44.49444" lon="-0.14399">
        <ele>110.69</ele>
        <time>2016-10-11T14:21:53Z</time>
      </trkpt>
      <trkpt lat="44.49447" lon="-0.14404">
        <ele>110.69</ele>
        <time>2016-10-11T14:21:57Z</time>
      </trkpt>
      <trkpt lat="44.4945" lon="-0.14409">
        <ele>110.69</ele>
        <time>2016-10-11T14:22:01Z</time>
      </trkpt>
      <trkpt lat="44.49464" lon="-0.14429">
        <ele>110.69</ele>
        <time>2016-10-11T14:22:19Z</time>
      </trkpt>
      <trkpt lat="44.49474" lon="-0.14446">
        <ele>110.69</ele>
        <time>2016-10-11T14:22:32Z</time>
      </trkpt>
      <trkpt lat="44.49479" lon="-0.14455">
        <ele>110.69</ele>
        <time>2016-10-11T14:22:40Z</time>
      </trkpt>
      <trkpt lat="44.4949" lon="-0.14471">
        <ele>110.69</ele>
        <time>2016-10-11T14:22:55Z</time>
      </trkpt>
      <trkpt lat="44.49501" lon="-0.14493">
        <ele>110.69</ele>
        <time>2016-10-11T14:23:12Z</time>
      </trkpt>
      <trkpt lat="44.49512" lon="-0.14515">
        <ele>110.69</ele>
        <time>2016-10-11T14:23:29Z</time>
      </trkpt>
      <trkpt lat="44.49522" lon="-0.14539">
        <ele>110.69</ele>
        <time>2016-10-11T14:23:45Z</time>
      </trkpt>
      <trkpt lat="44.49522" lon="-0.14543">
        <ele>110.69</ele>
        <time>2016-10-11T14:23:48Z</time>
      </trkpt>
      <trkpt lat="44.49532" lon="-0.14567">
        <ele>110.69</ele>
        <time>2016-10-11T14:24:05Z</time>
      </trkpt>
      <trkpt lat="44.49539" lon="-0.14581">
        <ele>110.69</ele>
        <time>2016-10-11T14:24:20Z</time>
      </trkpt>
      <trkpt lat="44.49543" lon="-0.14586">
        <ele>110.69</ele>
        <time>2016-10-11T14:24:40Z</time>
      </trkpt>
      <trkpt lat="44.49547" lon="-0.14606">
        <ele>109.25</ele>
        <time>2016-10-11T14:24:57Z</time>
      </trkpt>
      <trkpt lat="44.4955" lon="-0.1462">
        <ele>109.25</ele>
        <time>2016-10-11T14:25:08Z</time>
      </trkpt>
      <trkpt lat="44.49555" lon="-0.14644">
        <ele>108.77</ele>
        <time>2016-10-11T14:25:22Z</time>
      </trkpt>
      <trkpt lat="44.49556" lon="-0.14646">
        <ele>108.77</ele>
        <time>2016-10-11T14:25:23Z</time>
      </trkpt>
      <trkpt lat="44.49564" lon="-0.14668">
        <ele>108.77</ele>
        <time>2016-10-11T14:25:37Z</time>
      </trkpt>
      <trkpt lat="44.49565" lon="-0.14688">
        <ele>108.77</ele>
        <time>2016-10-11T14:25:50Z</time>
      </trkpt>
      <trkpt lat="44.49568" lon="-0.14696">
        <ele>108.77</ele>
        <time>2016-10-11T14:25:56Z</time>
      </trkpt>
      <trkpt lat="44.49576" lon="-0.14718">
        <ele>108.29</ele>
        <time>2016-10-11T14:26:13Z</time>
      </trkpt>
      <trkpt lat="44.49578" lon="-0.14745">
        <ele>108.29</ele>
        <time>2016-10-11T14:26:29Z</time>
      </trkpt>
      <trkpt lat="44.49583" lon="-0.14768">
        <ele>107.81</ele>
        <time>2016-10-11T14:26:44Z</time>
      </trkpt>
      <trkpt lat="44.49585" lon="-0.14777">
        <ele>107.81</ele>
        <time>2016-10-11T14:26:50Z</time>
      </trkpt>
      <trkpt lat="44.49588" lon="-0.14802">
        <ele>108.29</ele>
        <time>2016-10-11T14:27:03Z</time>
      </trkpt>
      <trkpt lat="44.49587" lon="-0.14807">
        <ele>108.29</ele>
        <time>2016-10-11T14:27:06Z</time>
      </trkpt>
      <trkpt lat="44.49596" lon="-0.14832">
        <ele>107.81</ele>
        <time>2016-10-11T14:27:24Z</time>
      </trkpt>
      <trkpt lat="44.49602" lon="-0.14854">
        <ele>107.81</ele>
        <time>2016-10-11T14:27:39Z</time>
      </trkpt>
      <trkpt lat="44.49604" lon="-0.14879">
        <ele>106.84</ele>
        <time>2016-10-11T14:27:53Z</time>
      </trkpt>
      <trkpt lat="44.49608" lon="-0.14906">
        <ele>107.32</ele>
        <time>2016-10-11T14:28:10Z</time>
      </trkpt>
      <trkpt lat="44.49611" lon="-0.14918">
        <ele>107.32</ele>
        <time>2016-10-11T14:28:18Z</time>
      </trkpt>
      <trkpt lat="44.49616" lon="-0.14942">
        <ele>106.36</ele>
        <time>2016-10-11T14:28:34Z</time>
      </trkpt>
      <trkpt lat="44.4962" lon="-0.14961">
        <ele>106.36</ele>
        <time>2016-10-11T14:28:48Z</time>
      </trkpt>
      <trkpt lat="44.49624" lon="-0.14978">
        <ele>106.36</ele>
        <time>2016-10-11T14:29:02Z</time>
      </trkpt>
      <trkpt lat="44.49627" lon="-0.15005">
        <ele>106.36</ele>
        <time>2016-10-11T14:29:20Z</time>
      </trkpt>
      <trkpt lat="44.49628" lon="-0.15015">
        <ele>106.36</ele>
        <time>2016-10-11T14:29:27Z</time>
      </trkpt>
      <trkpt lat="44.49627" lon="-0.15033">
        <ele>106.36</ele>
        <time>2016-10-11T14:29:44Z</time>
      </trkpt>
      <trkpt lat="44.49624" lon="-0.15051">
        <ele>106.36</ele>
        <time>2016-10-11T14:29:59Z</time>
      </trkpt>
      <trkpt lat="44.49624" lon="-0.15055">
        <ele>106.36</ele>
        <time>2016-10-11T14:30:10Z</time>
      </trkpt>
      <trkpt lat="44.49624" lon="-0.15055">
        <ele>105.88</ele>
        <time>2016-10-11T14:30:39Z</time>
      </trkpt>
      <trkpt lat="44.49623" lon="-0.15055">
        <ele>107.32</ele>
        <time>2016-10-11T14:30:44Z</time>
      </trkpt>
    </trkseg>
  </trk>
</gpx>